GFSNGP_500_spd_000.txt.gz
Wind_Speed
2 6 16 21 26 30 38 42 24 28 28 24 22 19 17 15 14 13 13 14 16 19 21 22 22 24 26 27 28 28 29 31 34 37 40 44 46 48 49 54 56 60 65 69
13 16 18 20 26 39 36 22 15 32 36 28 22 20 14 12 12 11 11 11 13 15 17 19 21 23 24 25 27 28 31 33 36 39 43 45 47 50 52 54 60 64 69 68
9 7 14 11 16 17 10 18 38 29 20 21 19 16 15 13 12 10 10 11 13 15 16 17 20 22 25 26 27 30 33 36 39 42 46 47 48 50 53 59 62 69 67 64
18 16 19 17 17 20 22 18 18 14 18 19 18 15 13 15 16 16 16 17 18 18 18 20 23 24 24 26 29 32 36 39 43 46 46 46 48 53 57 62 66 66 62 63
17 16 16 19 18 22 22 18 19 19 19 17 15 14 14 15 17 14 14 15 16 18 21 22 23 24 26 28 32 35 40 43 45 43 43 48 52 57 61 64 64 60 61 66
8 12 13 13 12 14 16 16 13 14 15 15 15 16 19 19 14 12 14 16 18 20 21 21 22 25 28 31 33 36 36 38 41 45 47 52 56 59 62 58 57 60 65 70
7 6 8 10 12 14 16 15 17 17 17 17 18 20 20 16 14 16 19 19 18 18 20 22 25 27 29 32 35 36 39 42 44 48 51 54 58 59 54 55 59 63 67 72
7 5 6 9 10 12 12 13 15 17 19 20 18 17 16 16 17 18 18 17 17 19 21 24 28 32 34 35 37 39 41 44 47 50 53 56 53 52 54 58 62 65 70 77
10 13 10 10 10 14 15 14 15 17 18 18 18 18 17 16 16 16 17 18 20 24 28 26 28 31 34 37 39 41 44 46 48 52 52 50 50 53 58 61 64 69 74 81
15 13 10 13 10 11 12 13 13 15 16 18 17 16 14 13 15 17 20 23 23 23 26 29 31 33 36 39 40 41 43 47 49 48 48 50 53 56 59 63 69 75 81 88
14 13 14 14 12 16 10 11 15 13 14 17 16 14 14 14 14 14 16 19 22 25 28 30 33 34 35 36 38 42 45 45 45 46 48 51 54 57 62 70 76 81 87 93
19 18 16 12 15 17 13 15 14 15 12 11 11 11 11 12 14 16 18 20 22 25 28 30 31 32 35 38 41 41 42 44 45 47 49 52 56 62 70 76 82 87 92 96
24 24 21 17 18 15 15 18 18 16 13 10 10 11 12 14 16 17 19 24 27 29 29 29 31 34 37 38 39 40 43 45 45 48 52 55 60 67 72 80 86 90 93 97
16 18 24 22 19 15 14 14 14 12 10 11 13 14 15 16 17 21 25 27 26 26 28 31 34 35 37 38 41 43 44 45 48 51 55 60 66 73 78 82 86 91 96 99
15 17 17 17 19 17 14 14 11 10 11 12 15 16 17 19 23 26 27 26 27 29 32 32 34 36 38 41 42 43 45 48 51 55 60 66 72 77 82 85 89 94 96 85
16 17 16 15 16 17 13 13 14 15 15 16 19 22 24 26 28 28 27 28 30 30 32 34 36 38 40 41 43 45 47 51 54 60 66 71 76 81 85 88 92 95 83 68
13 13 16 16 15 15 16 16 17 19 21 23 25 27 27 28 27 27 28 28 29 31 34 36 38 39 41 43 45 46 49 53 60 66 70 75 79 83 86 90 94 81 67 62
14 14 16 17 19 20 20 21 23 25 25 26 27 28 27 26 26 25 26 29 31 34 36 38 38 40 41 43 45 48 54 60 65 70 74 78 82 85 89 93 81 67 61 53
19 18 19 20 22 22 23 23 24 26 26 24 24 24 24 23 24 27 29 31 33 35 36 38 38 40 42 44 49 54 60 64 69 73 77 81 84 87 91 82 67 61 55 47
26 26 26 25 24 24 23 23 23 23 23 23 23 23 25 26 27 28 30 33 34 35 35 36 38 41 44 49 54 59 64 68 71 76 79 82 85 90 84 68 63 56 48 38
25 25 25 24 24 24 24 24 23 23 23 23 24 25 25 27 28 30 32 33 33 34 36 38 40 44 49 54 59 63 66 69 74 77 81 84 88 86 67 63 57 49 36 26
24 24 25 26 26 25 24 22 23 23 23 24 26 26 26 28 31 32 31 32 34 35 37 40 44 50 55 59 62 65 69 73 76 80 83 87 86 64 62 56 49 39 26 19
22 22 23 23 23 23 23 22 23 24 25 25 26 27 29 31 30 30 31 32 34 37 41 46 50 54 58 61 65 69 73 75 79 84 87 85 62 61 55 47 41 30 20 5
22 24 24 24 24 24 24 24 25 25 26 27 28 29 27 27 28 29 31 34 38 42 46 50 54 58 61 65 69 72 75 79 84 86 84 63 61 55 47 36 32 20 6 6
22 22 23 24 24 24 24 24 25 26 26 25 25 25 25 27 29 32 34 39 44 48 50 55 59 62 65 68 71 74 78 83 87 79 62 61 55 47 38 28 22 12 8 16
23 23 23 23 22 22 22 22 21 20 21 23 24 26 28 30 33 38 42 45 48 52 56 58 62 65 68 69 73 79 83 87 74 62 62 55 46 39 30 22 11 6 18 22
20 20 19 18 18 18 19 19 20 22 24 26 27 30 33 36 39 42 45 49 51 54 59 61 64 66 68 73 79 83 86 72 63 62 54 47 40 31 19 6 7 19 26 26

GFSNGP_500_spd_003.txt.gz
Wind_Speed
15 8 9 8 17 23 26 21 32 24 29 32 30 23 26 27 28 31 30 26 25 25 25 24 23 24 25 25 27 29 30 31 32 32 34 36 40 44 47 50 53 57 58 59
9 4 2 10 14 18 23 28 30 8 32 33 32 29 26 24 21 20 20 20 21 21 20 21 21 22 23 24 26 28 29 30 30 32 36 40 44 47 51 55 59 54 57 62
13 9 7 16 11 13 16 14 15 27 33 31 30 26 22 19 18 15 15 15 15 16 16 18 18 19 21 22 25 26 27 29 32 36 39 43 48 51 50 48 54 58 62 67
13 9 10 5 9 10 13 11 16 35 32 27 20 14 13 13 12 12 12 11 11 11 12 13 16 17 19 22 24 25 28 31 35 39 43 46 45 46 51 54 58 61 66 70
19 14 21 26 24 26 26 27 28 26 22 17 16 13 10 7 11 10 10 10 10 11 12 14 17 19 21 23 24 27 31 35 38 41 42 45 49 51 53 57 61 65 66 63
14 15 14 15 17 20 20 19 19 16 14 15 11 9 8 10 8 7 8 9 9 12 16 18 19 19 21 24 28 31 34 36 39 42 45 48 49 53 55 59 64 60 61 63
7 8 10 12 14 13 14 12 10 11 11 9 8 10 13 11 11 11 12 15 17 18 17 16 18 21 24 26 30 33 37 39 41 44 46 48 51 54 59 60 58 59 61 63
7 7 8 6 5 7 8 11 12 12 12 10 13 14 13 14 13 13 15 15 15 15 16 18 20 23 27 29 31 34 37 41 42 44 46 49 53 57 55 55 56 59 61 67
11 7 6 6 7 8 10 11 11 12 13 15 15 15 14 14 14 14 14 14 16 17 18 21 25 26 27 30 33 36 38 40 41 44 48 52 52 52 53 55 57 60 65 71
12 9 9 7 5 5 7 10 10 10 11 14 15 16 16 16 14 14 15 15 17 19 21 21 24 27 29 32 34 36 37 39 43 47 48 48 50 51 52 56 60 65 72 77
16 14 12 8 8 6 6 2 9 9 9 11 13 16 16 16 15 14 15 15 16 18 21 24 27 29 31 33 34 35 39 42 43 44 46 47 49 51 55 61 66 71 76 82
18 17 16 11 9 6 9 7 9 9 9 7 8 13 15 15 15 15 15 16 18 21 24 27 29 30 31 32 35 38 39 41 43 44 44 47 50 55 60 65 72 77 83 88
22 20 19 16 15 14 12 12 14 13 10 7 8 9 11 13 14 15 17 19 20 24 27 28 28 29 32 35 36 38 40 41 42 44 46 49 53 57 63 72 78 83 87 91
21 20 22 22 19 16 15 14 12 13 12 11 10 10 11 13 16 18 18 21 25 27 28 29 30 32 34 35 37 38 39 41 43 45 48 52 57 64 69 74 78 83 89 93
20 19 20 22 25 23 16 14 13 12 13 11 11 12 14 16 18 20 24 26 28 29 29 30 32 33 35 36 38 39 40 42 45 48 52 57 63 68 73 78 83 87 91 95
18 14 13 14 15 15 15 15 16 14 14 12 13 15 18 21 24 26 27 29 29 28 31 31 33 35 36 37 37 39 41 44 47 52 57 62 67 72 76 81 85 90 94 92
14 16 14 13 14 15 17 18 16 16 16 16 19 22 25 27 28 28 29 28 29 30 31 33 34 36 36 37 38 40 43 47 52 56 61 65 70 75 80 83 88 92 91 70
12 11 13 13 13 15 18 18 17 19 21 23 26 27 28 28 29 27 27 28 28 31 32 33 35 35 35 37 40 42 47 52 56 60 65 69 74 78 82 87 91 90 67 62
16 15 15 16 17 17 18 20 22 24 26 26 26 27 27 27 27 25 26 28 29 31 32 33 34 35 37 39 42 47 52 56 60 65 69 73 78 81 87 90 87 66 61 53
21 21 20 19 20 21 23 24 25 25 25 25 25 26 26 24 25 25 26 28 30 31 33 33 34 36 39 42 47 51 55 61 65 68 72 77 80 85 89 84 64 60 53 44
24 25 25 25 25 25 24 23 24 24 25 26 25 25 24 24 24 25 27 29 31 31 31 33 35 38 42 47 51 56 60 64 67 72 76 79 85 89 81 63 59 51 42 32
25 26 27 27 26 26 26 26 26 26 25 25 25 24 25 25 25 27 29 30 29 30 31 35 38 43 48 51 56 59 63 67 71 75 79 85 90 79 63 59 50 41 32 19
24 24 25 24 25 26 27 26 26 26 26 25 25 26 26 26 28 29 27 27 28 31 34 39 44 47 52 54 58 62 66 69 73 79 85 88 78 65 60 48 39 28 22 3
23 24 23 24 26 26 26 26 26 26 25 26 27 27 27 28 27 26 26 29 32 35 41 43 48 51 54 58 62 65 68 72 78 85 86 78 67 60 48 40 29 18 6 12
23 23 23 24 24 25 26 26 26 27 27 27 27 26 25 25 25 26 29 32 36 40 43 46 50 54 58 61 64 67 71 77 85 85 76 67 57 49 43 31 17 6 15 18
24 24 24 24 24 25 26 27 27 27 26 24 23 24 24 25 26 30 33 36 39 41 45 50 54 57 61 63 66 70 75 85 84 74 66 53 47 40 28 15 1 15 22 22
26 26 27 27 27 26 26 24 23 22 22 22 24 25 25 27 30 32 35 39 43 47 51 53 57 60 63 65 69 74 84 83 72 63 50 44 35 25 14 3 16 24 25 22

GFSNGP_500_spd_006.txt.gz
Wind_Speed
33 26 26 22 18 12 11 8 15 3 23 19 32 27 29 35 34 34 39 37 38 37 35 34 35 34 34 34 34 35 33 30 30 30 31 34 34 36 39 44 48 52 54 52
13 8 8 10 6 4 4 9 11 10 14 27 24 31 28 33 35 36 31 32 30 30 31 33 34 33 32 33 32 29 28 27 27 30 31 32 34 38 43 46 50 50 53 56
16 16 11 4 3 6 9 10 10 14 24 27 33 34 30 34 35 36 34 31 28 27 30 30 29 28 28 27 26 24 23 25 27 27 29 33 37 41 45 49 51 55 57 59
11 18 17 12 5 7 7 14 26 31 27 24 26 24 23 22 19 26 25 23 23 24 23 21 20 20 20 20 21 21 21 22 25 29 33 37 41 44 47 51 54 56 59 61
16 14 16 26 18 18 18 32 34 31 31 29 28 24 21 19 19 16 15 15 15 13 12 13 14 14 15 15 16 18 22 25 29 32 36 40 43 46 50 52 55 57 60 65
12 11 15 22 29 20 22 27 21 20 21 18 20 21 18 18 13 12 12 12 12 12 12 12 11 11 13 15 18 22 25 28 31 36 39 41 46 49 51 53 55 60 62 61
8 8 8 10 14 16 15 15 16 14 14 15 15 14 12 10 11 10 9 6 8 9 9 10 12 14 16 18 21 24 28 32 34 37 41 44 47 49 50 55 58 58 59 59
4 7 8 7 8 11 12 14 12 13 14 14 13 13 12 12 13 12 12 11 12 12 12 13 15 16 18 20 25 28 30 33 36 39 42 44 46 50 53 54 55 55 56 60
6 6 6 8 9 9 9 9 8 8 10 11 13 13 14 14 13 12 11 10 11 12 13 15 16 18 22 25 26 29 32 35 37 40 42 45 49 50 51 52 52 55 59 62
13 9 9 8 7 5 6 7 9 10 10 12 13 14 14 12 12 11 12 13 14 13 14 17 18 20 23 26 29 32 34 37 38 40 44 45 47 49 49 51 54 57 62 68
17 13 13 10 7 5 4 5 5 7 8 9 13 14 12 14 14 14 15 14 14 14 14 16 18 23 26 29 32 33 34 36 39 41 43 45 46 47 50 53 56 61 67 72
18 16 16 12 6 3 7 4 3 5 6 5 7 11 13 16 16 16 15 13 12 14 15 18 23 27 29 30 31 33 36 38 39 42 44 44 46 49 52 56 62 67 73 79
16 18 17 12 9 9 9 7 7 8 7 7 7 5 9 13 13 11 10 12 14 15 19 24 28 30 30 30 33 36 36 39 41 41 42 45 47 50 55 62 67 73 77 82
14 17 17 16 16 14 11 9 9 10 11 9 9 8 7 5 6 10 13 15 18 22 26 28 30 31 31 33 34 36 38 39 39 41 43 45 49 54 59 65 69 75 80 85
22 21 21 20 19 20 18 13 12 10 11 12 11 7 7 9 10 13 16 20 24 27 29 30 31 31 33 33 35 37 38 38 40 42 44 49 54 59 65 69 74 79 83 89
24 24 22 20 18 18 20 20 16 14 14 12 9 10 11 12 15 19 23 26 27 29 30 30 31 31 32 34 35 36 37 39 41 44 49 54 59 64 68 72 77 83 89 93
13 16 14 13 12 10 12 13 14 14 12 11 11 13 16 20 24 27 28 28 30 28 29 29 30 30 32 34 36 36 38 40 44 49 54 59 63 67 71 76 82 88 92 82
7 12 12 9 8 9 12 12 14 15 15 17 19 21 24 26 27 28 29 28 28 27 27 28 29 31 34 34 35 37 40 44 49 53 58 62 66 70 75 81 88 91 79 65
10 10 10 10 11 11 11 13 15 17 19 22 23 25 26 27 27 27 27 26 26 27 27 28 31 33 33 34 36 40 44 49 53 57 61 65 69 74 81 88 89 77 64 56
15 14 13 12 13 13 13 15 17 20 23 24 24 25 25 25 26 26 26 26 26 27 28 31 31 31 32 35 40 44 48 52 56 60 64 68 72 79 88 88 77 64 54 43
19 20 19 18 18 19 19 21 23 24 23 23 25 26 26 26 26 26 26 26 27 29 31 30 30 32 35 40 43 47 52 56 60 64 66 72 78 87 88 77 65 52 42 32
22 22 23 24 25 24 24 24 24 25 26 26 27 27 26 26 26 26 27 28 30 29 28 30 32 35 39 42 46 51 56 60 64 66 71 78 86 86 77 64 53 44 33 20
19 20 22 24 25 25 23 24 25 25 26 26 27 26 26 26 27 28 29 29 27 27 30 32 35 38 41 47 50 56 60 63 65 70 77 84 84 74 63 55 46 34 19 7
20 22 22 22 22 23 24 25 25 25 26 26 26 26 27 28 29 30 27 26 27 29 32 34 37 42 46 50 55 58 62 64 69 76 83 82 71 62 55 44 33 17 4 12
23 22 22 23 23 23 23 24 24 25 26 27 28 28 29 30 27 25 25 27 29 31 34 38 42 47 50 54 57 60 63 68 75 81 82 71 61 53 42 32 17 4 15 17
24 24 24 24 24 23 24 24 24 25 27 28 28 29 27 25 25 25 26 28 32 35 38 42 47 50 54 56 59 61 66 73 80 83 72 61 51 39 29 17 4 16 18 16
28 28 27 26 26 25 25 25 26 27 28 28 25 24 25 26 25 27 30 33 37 39 42 46 50 54 55 58 60 65 72 79 82 74 62 51 40 25 17 3 15 19 18 15

GFSNGP_500_spd_009.txt.gz
Wind_Speed
13 12 17 23 17 10 12 9 6 12 4 11 20 25 20 24 32 34 39 40 38 38 38 40 41 40 38 36 35 35 35 34 34 34 36 37 34 35 37 38 40 42 46 49
13 13 9 12 10 10 6 1 3 5 5 11 17 22 21 26 34 38 37 38 38 34 34 37 37 34 32 32 33 34 33 33 33 33 32 33 34 34 36 39 41 45 48 52
16 21 19 13 11 6 5 5 4 12 18 14 16 25 29 29 35 29 30 32 32 31 30 31 33 32 31 31 32 32 32 31 27 28 30 31 32 35 37 41 45 48 50 54
17 19 25 21 10 10 12 13 11 22 22 27 25 22 25 23 24 29 29 30 30 30 28 27 26 27 29 30 29 26 24 24 25 26 28 31 33 36 40 44 47 50 54 56
18 15 16 16 15 16 17 16 15 19 22 25 23 39 28 26 26 27 23 21 22 22 24 25 24 23 22 22 21 19 20 22 24 25 29 32 36 40 43 46 50 52 54 57
9 13 26 21 21 22 22 26 22 19 23 26 23 22 21 20 18 22 20 15 15 15 17 17 16 15 16 17 17 18 19 20 23 27 31 36 38 42 45 48 49 52 57 59
4 8 13 14 19 17 16 19 18 17 17 17 17 17 20 17 15 13 12 14 14 14 14 13 12 13 14 14 14 16 19 22 27 32 34 38 41 43 45 47 51 54 56 59
3 3 4 8 8 7 8 11 15 14 13 13 14 14 14 13 13 13 13 11 8 5 7 10 12 11 11 13 16 19 23 28 30 33 36 38 40 43 46 49 51 54 56 57
5 6 6 6 7 6 4 3 4 4 5 5 5 7 11 13 13 13 13 12 12 12 13 11 11 13 15 17 21 23 26 29 32 34 36 38 41 45 47 49 51 53 54 56
10 8 7 9 9 9 8 8 7 7 7 6 7 9 10 12 12 12 12 12 11 11 12 13 14 16 17 18 21 24 27 30 32 34 37 41 43 45 48 50 51 52 54 58
15 12 9 10 8 6 7 8 8 7 6 7 8 10 10 13 13 12 14 13 11 12 13 16 13 15 17 21 25 27 29 30 33 36 39 41 44 46 47 49 50 53 58 63
16 15 13 12 9 9 9 7 5 7 7 7 5 8 11 12 13 13 12 12 13 14 11 12 15 19 22 26 28 29 30 32 35 36 39 42 44 45 46 49 54 59 64 68
15 13 15 14 10 9 9 10 6 4 5 6 7 9 8 12 11 11 11 13 8 9 13 16 20 24 27 29 30 30 32 33 36 38 40 41 43 44 48 55 60 63 67 72
12 11 13 15 14 11 12 10 8 6 7 7 8 7 7 9 11 8 5 7 11 13 17 22 25 27 29 30 29 31 33 35 37 39 40 41 44 47 52 56 60 66 71 75
17 14 12 15 14 14 14 14 12 6 7 6 7 8 8 5 3 4 7 11 15 20 23 25 27 28 28 29 30 32 34 35 37 38 40 43 47 51 55 60 65 69 74 80
22 20 19 18 16 18 20 22 21 18 13 10 11 9 5 6 7 10 14 19 22 24 25 27 27 28 29 30 31 32 34 35 36 39 43 47 50 54 60 64 68 73 79 87
15 16 17 19 18 14 9 4 9 11 14 13 6 3 7 11 14 19 23 25 25 26 26 27 26 27 29 30 32 33 33 35 39 43 45 48 53 59 63 68 73 79 87 87
6 11 15 15 10 9 10 14 10 11 8 5 7 10 14 18 21 24 25 25 25 25 25 25 26 28 30 32 32 32 34 39 42 45 48 54 58 63 68 72 79 87 86 75
5 9 15 15 12 8 6 6 9 12 11 11 12 15 19 22 23 24 24 24 24 24 24 25 28 30 33 31 31 34 38 42 45 48 54 58 63 68 73 78 87 84 73 59
10 10 9 8 7 7 6 6 8 9 11 14 18 21 23 21 22 23 23 23 23 24 26 28 30 31 30 31 34 38 41 45 48 53 57 62 67 73 78 86 85 72 60 47
14 13 12 12 12 12 13 13 15 16 19 21 21 20 22 23 23 22 23 24 24 26 28 30 29 28 31 34 36 40 45 48 53 56 62 66 72 77 84 83 71 59 47 34
19 19 19 20 20 20 20 22 23 24 24 22 21 22 23 24 23 23 23 24 25 28 28 27 28 31 33 36 40 45 49 53 56 60 65 71 76 84 82 69 59 46 33 15
18 20 21 22 23 22 23 24 24 23 21 21 22 23 24 23 22 22 23 25 28 26 25 28 30 33 36 40 44 47 51 56 60 64 70 74 82 84 69 58 44 30 14 6
22 22 22 22 22 22 21 21 22 22 22 22 22 21 21 22 23 24 25 27 24 25 27 30 33 37 40 42 45 52 57 60 63 69 72 81 84 70 56 43 30 14 7 14
21 20 20 20 21 21 21 22 22 22 21 21 21 22 23 24 25 26 24 24 25 28 30 33 37 39 42 46 51 56 59 63 68 72 78 83 71 57 43 29 13 9 13 12
23 24 24 22 21 21 21 21 21 21 22 22 23 23 24 26 25 23 24 26 29 31 32 35 38 42 46 50 54 59 64 67 71 77 82 74 58 45 27 13 10 14 12 10
25 25 24 23 23 22 22 22 23 23 23 24 25 25 25 22 22 24 27 28 31 33 36 39 43 46 50 54 58 63 67 71 77 82 79 60 45 28 13 9 16 15 12 12

GFSNGP_500_spd_012.txt.gz
Wind_Speed
11 17 23 24 23 23 22 16 20 7 16 13 15 17 22 23 27 35 38 42 41 42 37 36 37 39 41 41 41 38 37 36 36 35 36 38 39 39 39 38 37 40 44 45
9 11 16 17 16 16 18 17 18 15 11 11 9 10 14 18 17 35 39 38 39 38 35 36 37 38 37 36 36 35 35 34 33 30 39 38 38 36 36 36 39 41 44 47
5 11 15 17 15 12 15 11 8 6 6 9 6 10 6 13 13 27 29 34 35 33 34 35 35 33 32 33 33 30 29 28 32 38 36 36 33 35 36 36 40 43 46 49
8 9 20 17 14 13 8 7 1 7 19 24 20 17 12 23 24 26 27 28 30 32 32 32 29 28 27 25 25 26 28 32 33 32 31 32 33 33 35 39 41 45 48 51
15 15 14 14 13 13 12 12 4 2 8 4 14 16 18 19 25 25 27 28 29 27 25 24 23 22 22 25 28 27 27 27 28 30 30 29 31 34 37 41 43 46 50 53
6 10 15 10 14 15 17 18 17 6 12 6 15 16 18 21 21 20 22 28 30 28 25 25 24 24 25 25 23 22 24 25 24 25 27 29 32 37 39 41 45 48 50 53
3 4 5 11 9 9 10 13 15 17 18 18 19 18 17 12 15 18 15 21 24 20 20 19 17 16 16 17 18 19 21 22 23 25 29 33 35 38 41 43 45 49 52 54
2 2 3 1 1 4 5 6 8 10 15 10 13 14 15 15 12 13 14 12 11 14 16 16 15 12 12 14 16 17 19 22 25 28 31 34 37 39 40 43 47 49 52 54
6 5 6 5 4 4 3 3 2 1 2 3 3 4 4 5 5 7 9 9 8 8 9 10 12 14 15 15 16 18 21 23 26 30 33 35 36 38 42 44 47 50 51 52
10 8 9 9 9 9 9 7 5 4 3 3 3 4 5 5 6 5 7 7 9 10 10 10 10 10 11 13 16 17 21 25 29 31 33 34 37 40 42 45 47 48 49 53
19 16 13 10 10 10 10 9 8 7 4 4 3 4 5 7 9 9 9 8 8 9 8 10 10 12 13 14 18 22 26 29 30 31 33 35 38 41 43 44 45 48 52 56
21 19 14 14 13 11 9 6 6 5 4 5 4 5 5 7 8 9 8 7 7 8 10 13 10 11 15 20 23 26 28 29 30 32 34 38 40 41 41 43 47 51 54 59
19 15 14 14 13 11 11 11 4 2 4 7 8 8 8 7 8 8 8 9 10 11 9 9 14 17 20 24 26 28 28 29 31 34 37 39 38 39 43 48 51 54 60 66
15 12 11 13 14 13 11 10 10 7 6 8 10 7 4 9 8 8 9 9 7 7 10 14 18 21 24 26 27 27 29 31 34 36 37 36 38 42 46 49 54 60 65 69
15 14 10 12 14 14 13 13 13 12 7 6 7 8 6 4 8 6 3 4 8 11 15 18 20 23 24 25 27 28 30 33 35 35 34 37 42 46 49 54 58 62 67 73
18 20 18 14 14 13 14 17 17 16 17 12 12 9 10 8 6 5 8 10 15 18 19 21 22 23 24 25 28 30 32 34 33 33 37 42 45 49 53 57 62 66 71 79
14 17 20 20 20 18 15 12 7 9 13 14 14 10 7 6 7 9 13 17 19 20 20 21 22 23 25 27 29 31 33 31 33 37 42 45 49 53 55 61 66 71 77 86
11 14 18 17 16 15 12 11 9 11 10 13 12 7 6 9 12 13 16 19 19 19 21 21 22 24 27 28 31 30 30 33 37 40 44 48 52 54 60 66 70 75 84 83
8 8 11 13 12 14 15 11 10 10 10 8 8 8 9 12 15 18 17 18 20 20 20 21 23 25 27 29 29 30 33 37 39 44 47 51 55 58 65 70 76 83 82 68
8 7 11 16 15 13 12 10 9 8 6 7 9 12 14 17 16 17 19 19 20 20 21 22 24 27 27 27 30 33 37 40 43 45 51 55 59 64 70 76 83 84 66 52
11 11 12 14 13 11 9 8 9 10 12 13 15 18 19 19 19 19 20 20 20 21 22 24 26 25 26 30 33 36 40 43 46 49 54 60 65 70 76 83 84 66 50 34
16 15 14 13 13 14 14 14 15 17 19 20 21 20 19 18 19 21 21 20 21 21 24 24 23 26 29 32 36 39 41 45 48 53 59 64 69 75 81 82 66 49 32 14
19 21 21 21 21 21 21 21 21 20 21 21 19 18 19 20 20 20 19 19 21 24 23 23 26 28 32 35 37 41 44 48 52 58 64 68 74 80 81 64 47 33 15 7
19 21 21 22 21 21 21 21 20 20 20 20 20 20 20 20 19 19 20 21 23 22 23 26 28 32 34 38 42 45 48 52 57 63 69 73 80 81 64 46 31 17 7 10
20 19 20 21 21 21 21 21 21 21 22 22 21 20 19 19 20 21 22 22 21 22 26 28 31 35 38 42 45 49 53 56 62 67 74 80 82 65 46 31 16 8 11 10
24 23 21 21 22 22 22 22 23 22 21 21 20 19 20 20 21 23 21 20 22 25 26 30 33 36 41 43 47 51 54 60 67 73 79 83 67 51 33 15 7 13 11 10
29 27 26 24 23 23 23 23 22 22 21 20 20 20 21 22 22 20 20 22 24 24 28 31 35 39 43 48 50 53 60 66 72 79 83 70 56 36 13 6 16 13 11 10

GFSNGP_500_spd_015.txt.gz
Wind_Speed
16 12 16 19 24 25 30 30 38 35 38 31 32 36 32 32 26 25 29 35 34 37 41 36 41 41 39 40 40 39 39 39 39 36 36 35 35 35 36 37 41 43 46 46
14 11 15 18 18 20 25 28 27 35 31 24 22 15 16 15 14 17 29 31 32 35 38 30 34 40 41 39 37 36 36 35 32 34 34 35 34 36 49 35 44 45 44 46
9 10 13 15 12 17 23 25 27 28 25 23 21 10 5 3 6 9 23 27 29 32 33 29 31 36 37 35 34 32 29 33 39 30 34 33 36 40 38 41 44 43 42 44
5 6 6 13 16 17 21 22 23 20 23 25 24 18 12 11 14 10 15 23 27 28 29 27 28 30 30 29 29 29 28 30 31 32 33 36 40 39 35 39 40 40 43 48
3 2 7 10 14 16 20 23 24 15 14 20 22 20 19 18 18 18 19 23 25 26 24 24 24 22 20 20 31 29 28 33 31 35 37 35 40 37 37 36 39 43 46 48
2 1 3 7 8 12 16 19 17 23 9 18 19 17 15 16 18 20 20 23 22 21 21 21 19 18 20 23 26 23 33 30 32 35 38 32 32 35 35 38 42 44 46 47
2 3 2 4 6 11 12 15 17 17 19 23 21 19 9 6 15 17 18 21 23 23 27 33 22 24 28 30 31 32 35 38 36 31 29 28 30 34 37 39 42 43 45 49
6 6 5 4 6 7 8 10 14 15 18 16 16 16 18 18 12 10 14 19 21 23 24 24 26 27 28 29 28 26 22 18 20 22 25 29 31 34 37 39 40 44 48 50
9 8 8 9 9 9 10 10 10 9 10 8 7 10 8 11 10 15 13 10 7 11 18 18 15 13 11 10 11 14 16 18 20 23 26 29 32 34 36 39 43 45 47 48
14 11 10 10 12 11 12 13 12 8 6 6 6 5 3 3 4 5 2 5 4 3 3 3 5 7 9 11 13 14 16 18 21 25 28 31 33 35 38 40 43 44 45 47
19 17 14 13 14 12 12 12 13 12 10 9 8 7 4 3 3 3 3 2 3 5 5 5 4 5 9 13 12 15 18 22 26 29 31 32 34 37 39 42 43 43 46 51
24 21 18 15 15 14 12 12 10 8 6 7 8 7 7 7 6 2 2 1 1 1 3 5 7 7 9 12 16 19 23 27 29 30 32 34 35 38 40 39 41 46 50 54
21 20 18 15 15 16 15 12 9 6 5 7 12 12 14 6 5 6 4 4 7 7 6 6 6 10 13 17 22 25 27 28 29 31 33 35 36 37 37 41 45 50 54 58
17 16 16 14 15 16 15 11 10 12 12 11 10 10 6 4 6 6 6 5 6 4 5 7 11 16 19 22 24 25 26 28 29 31 34 35 35 37 41 45 49 53 57 59
18 14 14 12 13 16 15 13 11 12 13 12 8 7 8 6 5 9 7 6 5 7 9 12 15 18 20 21 23 25 27 29 31 33 34 33 36 41 44 48 51 55 59 65
15 16 17 18 12 13 14 15 14 16 16 15 13 10 9 8 8 7 6 6 9 13 15 17 17 19 21 22 24 26 29 30 32 32 32 36 39 43 46 50 54 58 64 70
18 16 19 22 21 18 16 14 16 16 13 13 15 13 12 11 9 7 8 11 14 16 17 17 20 21 22 24 26 28 30 30 30 33 36 39 43 46 50 54 59 64 71 76
14 16 17 17 21 20 18 18 15 11 9 7 8 10 11 8 8 9 12 14 16 16 18 20 21 22 24 26 27 29 28 29 33 36 39 42 45 49 53 59 66 70 76 83
10 12 14 16 17 16 16 15 16 14 10 8 8 9 8 9 10 13 15 15 17 18 19 21 22 24 25 27 27 26 29 32 35 39 42 45 49 53 58 65 71 76 80 84
11 9 7 11 15 14 15 17 15 13 10 10 10 10 11 13 14 16 17 17 18 19 20 22 23 24 27 26 26 28 31 35 38 42 46 50 54 59 64 70 75 80 83 70
10 9 10 14 20 19 15 15 14 11 10 10 11 13 15 17 18 18 18 18 19 20 21 23 24 26 24 25 28 31 35 37 43 48 51 54 58 62 69 74 79 80 70 51
14 13 12 14 15 15 15 13 12 12 14 15 17 18 18 20 19 18 19 20 19 20 22 24 25 23 25 27 31 35 38 43 45 48 52 57 62 68 73 79 79 70 52 33
15 18 18 17 17 17 18 17 18 19 20 20 19 19 18 19 19 20 20 20 20 21 23 24 23 24 26 29 33 36 40 43 48 51 57 63 68 73 80 80 71 51 32 12
16 16 17 21 23 23 23 24 24 23 21 20 19 19 19 20 20 20 20 20 21 23 24 22 24 26 28 31 34 38 43 48 51 56 62 69 75 82 83 72 52 29 12 11
20 19 18 19 20 20 21 21 21 21 20 19 20 20 21 21 21 21 21 22 23 23 22 24 25 27 30 33 37 42 47 50 57 61 69 75 82 84 69 48 25 8 11 11
27 25 22 21 21 20 19 19 21 21 22 21 21 21 21 22 22 22 22 24 23 21 23 24 25 29 32 35 40 45 48 55 61 67 74 79 79 58 39 19 3 13 12 11
31 32 30 28 26 25 24 24 24 24 24 23 22 22 23 23 23 24 24 24 21 21 24 25 28 31 34 38 43 46 52 59 65 72 77 75 49 33 17 3 14 12 10 9

GFSNGP_500_spd_018.txt.gz
Wind_Speed
19 18 11 13 19 22 22 27 33 33 34 37 44 39 33 26 38 40 33 27 26 20 26 27 32 38 40 37 36 39 40 41 40 39 37 35 35 34 34 35 37 38 40 45
16 10 10 16 18 13 17 25 28 33 25 34 37 32 24 25 21 16 12 11 15 17 20 26 26 35 36 37 35 34 36 36 34 32 32 34 32 30 32 32 35 39 41 42
12 8 10 7 8 12 18 24 30 31 25 31 33 31 25 13 7 7 1 8 12 19 17 22 24 34 35 33 30 30 28 29 29 31 31 35 28 29 29 33 34 39 40 43
9 9 6 3 8 12 19 24 23 28 27 29 29 32 27 16 12 8 10 12 14 16 23 19 27 31 29 27 27 26 26 26 28 32 35 29 23 34 32 32 39 43 37 37
7 5 4 4 5 11 16 22 18 26 29 25 26 28 26 20 16 17 16 17 20 23 21 18 20 21 23 24 25 26 26 31 30 29 25 30 23 35 39 39 38 37 39 41
6 4 5 5 4 10 13 14 20 20 25 25 29 29 23 15 17 16 18 18 19 20 18 17 17 15 13 16 19 23 31 27 28 39 25 25 32 36 30 32 32 37 41 44
7 5 5 5 6 10 11 13 15 19 19 22 21 24 26 15 9 14 10 13 16 17 17 16 13 12 12 14 15 18 26 32 29 35 31 30 26 27 28 32 37 39 42 45
9 8 8 8 10 10 12 14 16 16 16 16 20 22 23 23 10 8 8 7 10 11 18 21 18 24 24 25 23 18 22 21 21 24 23 23 24 28 31 35 39 42 43 45
11 10 11 10 11 10 11 13 13 14 14 14 16 15 15 13 16 16 15 5 4 7 4 6 4 9 12 7 12 17 14 15 16 16 19 22 26 32 36 39 40 41 43 44
13 14 15 14 12 13 12 13 14 14 13 13 13 10 10 10 9 9 10 8 9 9 5 1 2 2 4 8 8 11 12 13 15 18 23 29 33 35 37 38 39 40 42 42
19 17 17 17 16 16 15 13 14 14 10 8 11 10 7 7 8 7 4 6 4 3 3 1 1 1 3 5 10 10 11 14 20 25 29 31 33 34 36 38 40 40 41 44
24 22 22 22 18 17 15 14 14 12 9 7 8 13 12 9 4 4 1 1 3 0 4 1 2 4 4 5 8 12 17 21 25 27 29 31 33 35 37 38 38 40 44 47
22 21 19 20 20 19 16 15 13 10 8 7 11 14 13 8 2 4 4 5 3 3 5 5 4 5 7 10 16 19 22 24 26 27 29 32 34 35 36 36 39 43 46 50
20 19 17 18 17 17 17 16 14 11 11 11 11 11 8 7 6 5 3 4 5 7 6 6 7 9 12 16 20 22 23 25 27 29 31 33 34 33 36 39 43 47 51 54
13 13 13 14 14 15 15 15 15 11 11 12 11 9 8 8 8 6 7 6 5 5 5 7 11 13 16 18 20 23 25 26 29 31 32 31 33 36 39 43 47 50 53 58
11 14 17 17 18 16 15 16 16 14 14 15 16 14 11 10 10 6 8 6 5 8 11 13 16 17 19 21 22 24 26 29 30 30 30 33 36 39 43 47 51 55 58 63
14 16 17 20 22 19 17 14 14 13 17 18 15 15 15 12 10 11 9 8 10 13 15 17 17 19 21 22 24 27 28 29 28 30 33 36 39 43 47 51 55 58 63 67
20 20 19 20 21 21 20 18 16 16 17 13 10 8 10 9 9 9 10 11 13 16 17 18 20 21 22 24 27 28 29 27 30 33 36 39 43 47 50 54 58 63 68 73
15 14 15 17 18 18 20 20 18 14 17 14 11 10 8 10 10 10 12 15 16 18 19 20 21 23 24 26 27 27 26 29 32 35 38 42 45 49 54 58 64 70 75 79
15 16 14 13 15 17 17 13 10 17 18 14 11 10 10 9 10 13 16 18 19 20 21 22 23 24 25 27 26 25 28 30 33 36 39 44 50 54 60 65 72 77 83 83
14 15 11 8 9 12 13 13 21 20 18 16 15 12 10 12 15 17 20 20 20 21 22 22 23 24 27 26 25 28 29 32 34 39 45 49 54 60 66 72 79 85 84 67
13 13 11 14 17 21 23 23 19 16 14 13 12 13 15 18 19 20 19 20 21 21 21 22 23 26 26 25 28 29 32 34 39 44 48 54 60 66 73 80 86 79 57 32
11 13 17 15 16 18 18 16 17 17 17 16 17 19 19 19 19 19 19 20 21 21 22 23 26 25 25 28 30 32 34 37 42 46 51 59 66 73 79 85 70 52 31 11
12 14 15 18 20 19 20 21 21 22 22 21 21 21 20 20 19 19 20 20 20 22 24 26 26 24 27 28 31 33 34 40 43 48 57 65 71 77 81 65 49 29 9 11
18 16 15 16 19 21 23 24 23 21 20 20 20 20 20 19 20 20 20 21 22 24 26 27 24 25 26 29 30 33 37 40 47 52 62 70 72 74 61 43 24 9 12 10
27 25 24 22 22 22 22 21 21 21 20 19 19 19 20 20 21 21 22 23 24 25 27 25 24 26 28 29 32 34 38 44 49 57 64 70 66 53 35 18 11 9 8 7
25 27 30 30 29 28 27 26 24 22 22 21 21 21 22 22 22 23 24 24 25 26 26 24 24 26 27 29 33 35 39 46 52 58 69 65 52 29 15 12 9 7 5 3

GFSNGP_500_spd_021.txt.gz
Wind_Speed
12 13 9 9 11 13 7 13 23 22 28 21 28 34 40 37 34 32 23 20 19 19 15 18 20 20 25 27 37 39 39 42 47 47 43 40 37 36 35 34 34 34 33 33
11 8 6 8 9 4 8 13 17 23 24 25 25 32 35 31 28 30 20 10 8 12 12 11 12 18 16 31 28 33 36 42 41 37 37 32 33 34 27 36 32 32 31 33
8 5 6 6 5 2 7 14 13 20 24 28 30 27 33 28 19 22 20 16 12 9 4 4 7 2 8 26 26 27 30 32 32 29 28 30 30 31 40 37 32 31 31 31
7 7 6 4 3 3 9 13 16 19 25 27 31 29 27 27 18 16 14 13 15 14 12 15 19 16 16 26 26 28 27 26 27 26 26 32 29 32 39 41 36 41 33 38
7 6 6 6 2 5 8 10 13 18 22 24 30 33 26 24 21 16 13 13 12 13 13 18 13 14 21 23 24 21 20 21 19 20 24 31 31 30 27 32 40 35 40 39
7 4 6 7 2 3 9 11 14 16 19 19 27 29 27 25 19 18 13 12 11 12 15 14 13 14 16 22 16 21 14 15 20 23 15 20 26 32 29 28 30 27 30 34
5 5 10 5 6 9 10 13 15 16 16 18 22 22 23 26 19 13 12 11 9 11 17 15 16 17 17 13 12 12 16 18 26 18 16 18 21 28 28 24 25 29 33 38
6 8 8 6 7 9 10 12 14 15 16 16 17 18 18 18 20 16 8 13 9 8 8 8 6 7 11 17 13 11 13 9 15 29 20 16 16 17 20 25 30 35 40 43
10 10 8 6 5 6 9 11 12 14 16 12 14 16 15 14 13 13 13 9 6 4 2 5 1 4 13 3 7 2 7 6 6 8 10 12 17 23 28 33 36 40 42 44
14 14 11 10 10 10 10 10 12 13 13 10 11 14 15 12 11 9 7 8 11 14 10 4 8 6 4 4 1 1 2 4 5 7 11 17 24 29 32 35 37 39 40 42
19 17 14 13 12 13 13 13 12 12 10 9 8 11 16 9 10 6 3 4 6 9 7 6 5 3 2 1 2 4 5 9 12 16 21 26 30 32 33 35 36 39 40 41
21 19 18 18 19 18 15 14 14 12 9 7 7 11 14 13 6 5 2 2 3 6 2 3 2 2 2 4 7 9 10 14 19 23 26 28 30 32 34 36 37 38 41 45
20 19 19 19 16 16 16 15 15 13 10 8 10 11 12 9 6 4 5 4 3 3 4 4 4 4 7 8 10 14 17 21 23 25 26 28 31 33 35 35 38 41 44 47
16 18 19 17 16 17 16 16 15 12 11 11 9 9 8 8 8 8 5 5 6 6 6 6 6 7 10 13 16 19 20 22 23 25 28 31 32 33 34 38 41 44 48 52
14 16 18 17 17 16 15 14 12 12 13 11 11 11 10 9 9 9 8 4 6 5 5 6 9 12 15 17 18 20 22 24 26 29 30 31 31 33 37 40 43 47 52 56
18 18 18 17 18 17 15 13 14 15 15 15 15 14 17 17 12 8 7 10 8 8 9 12 14 17 18 19 21 23 24 26 29 30 30 30 33 36 39 42 46 51 57 62
15 15 16 16 18 17 17 16 15 17 15 14 15 20 16 13 13 10 11 11 12 11 13 16 18 19 21 22 23 24 26 29 31 29 29 32 35 38 40 46 53 58 63 68
14 15 16 17 18 19 20 20 19 16 16 16 16 13 11 8 10 10 12 12 11 13 16 18 20 22 23 24 24 26 28 30 28 30 32 35 37 40 46 51 57 64 71 78
13 13 13 15 19 21 19 17 19 20 17 19 18 15 12 13 12 10 11 10 13 16 18 20 22 23 24 24 26 28 29 28 30 32 34 36 40 44 48 55 64 71 78 86
14 13 14 16 16 16 18 17 16 18 17 21 18 17 14 12 12 11 11 14 17 19 20 21 22 23 24 26 27 29 28 29 31 33 35 38 43 46 54 63 66 79 84 74
13 15 16 20 15 14 16 14 14 14 20 22 20 18 16 15 12 12 15 18 20 21 21 21 22 23 24 26 29 28 28 30 32 34 36 40 46 49 61 63 76 78 70 49
13 16 9 12 12 13 14 19 22 19 23 21 18 15 15 14 13 16 19 20 20 20 21 22 22 23 25 28 28 28 30 31 32 34 37 42 49 55 59 71 70 61 42 27
9 13 13 10 14 18 19 22 24 23 23 21 19 17 16 16 17 19 20 20 21 21 22 22 23 25 27 29 27 29 30 30 32 34 41 45 51 58 64 67 52 32 23 16
11 11 13 15 19 18 17 16 17 18 19 20 19 19 19 19 20 21 22 21 21 22 22 23 24 27 29 28 28 30 30 31 33 37 44 48 54 61 65 52 31 29 19 11
19 17 16 14 15 18 20 22 24 24 24 23 25 23 21 22 21 21 21 21 21 22 23 24 27 29 28 27 29 30 30 33 36 39 44 50 55 62 58 34 29 20 12 8
23 25 24 23 22 20 19 18 19 20 22 23 23 22 21 21 21 20 20 22 23 25 25 25 28 29 26 26 28 27 31 33 36 41 45 52 56 60 45 24 23 14 10 8
27 25 24 25 27 27 27 26 26 25 23 23 24 25 24 23 22 22 23 24 26 26 25 28 29 27 24 25 24 27 32 34 37 41 46 54 58 53 31 20 17 13 10 10

GFSNGP_500_spd_024.txt.gz
Wind_Speed
7 9 10 13 13 10 9 6 6 11 13 15 22 30 27 33 26 25 30 35 29 20 13 11 20 27 30 31 30 33 36 36 41 48 51 55 50 47 42 40 40 40 39 45
8 11 10 13 10 7 5 4 4 5 14 23 27 29 28 29 25 23 25 26 24 18 8 5 10 18 21 22 25 30 31 33 37 39 40 41 42 39 37 38 38 35 35 40
10 10 12 8 6 6 1 4 7 12 18 21 21 29 24 23 24 22 22 21 21 18 13 8 3 4 6 9 17 27 29 25 28 34 33 38 38 35 36 32 35 41 46 43
10 11 11 9 7 5 2 5 9 12 16 18 21 25 30 24 25 22 21 19 20 13 15 16 13 7 9 7 9 27 23 19 23 28 33 34 33 34 36 28 37 36 37 39
11 9 10 9 8 6 3 4 10 12 16 17 22 22 25 22 23 21 18 18 22 12 16 13 14 13 18 15 14 16 21 21 22 23 24 26 26 30 30 28 28 38 38 40
11 10 9 10 10 9 4 5 9 10 14 16 17 21 20 24 22 18 18 18 17 16 16 16 16 14 14 14 15 20 18 14 16 14 16 20 25 23 25 28 33 30 30 32
12 11 10 8 9 11 8 8 8 8 12 13 15 18 18 18 19 16 13 14 14 14 18 13 10 12 11 10 5 10 16 4 14 10 20 9 8 21 20 22 20 22 24 27
14 13 12 10 8 9 7 7 7 8 10 11 12 14 15 17 17 15 17 11 11 11 10 9 9 8 5 2 7 7 9 8 5 9 14 17 14 16 20 16 20 24 30 33
16 15 11 11 10 9 7 5 6 7 9 9 9 12 14 15 14 12 11 14 13 7 7 9 12 7 10 8 11 9 7 1 1 3 4 4 7 11 15 21 26 29 33 35
19 18 14 14 13 11 9 8 9 10 10 9 8 10 14 15 11 11 9 7 7 9 9 9 9 10 10 9 8 6 4 2 1 3 5 9 15 20 24 27 30 33 37 39
20 21 18 16 14 13 10 11 11 12 12 9 8 9 13 14 14 9 8 5 3 3 3 3 4 4 5 4 2 3 3 4 7 9 13 18 22 25 27 30 33 35 37 37
19 26 21 18 17 17 17 16 14 13 14 9 7 8 12 11 8 7 5 5 5 1 1 4 4 4 3 5 7 7 9 12 15 18 20 22 24 26 29 31 33 34 36 40
20 23 18 20 20 19 18 16 14 15 15 12 10 11 9 8 7 7 8 7 6 9 9 8 6 6 6 7 9 13 15 18 19 21 22 24 26 29 30 30 32 36 39 42
21 23 22 26 23 20 19 17 15 15 14 11 12 10 10 10 9 8 10 8 8 7 7 6 6 7 11 14 16 18 18 20 21 22 24 26 29 30 29 32 35 38 42 47
20 21 24 24 22 20 19 15 15 14 13 10 12 13 13 13 12 11 11 10 6 7 6 6 8 12 14 17 18 19 21 22 23 25 28 29 29 29 32 35 38 42 47 52
21 21 26 27 25 22 19 16 16 13 16 17 15 17 16 14 17 21 16 11 11 10 9 11 14 15 18 19 21 23 24 24 26 28 29 28 29 32 34 37 41 45 50 58
22 23 25 26 22 20 19 18 17 16 17 16 16 14 15 18 20 16 14 13 13 11 13 15 16 19 20 22 23 24 24 25 28 29 28 29 32 34 36 39 44 48 55 62
19 20 21 20 20 18 18 19 19 18 17 18 14 13 13 16 12 9 11 12 14 14 15 15 18 20 22 22 23 25 25 27 29 29 29 32 34 35 37 41 47 53 59 70
18 17 18 19 19 21 23 24 21 20 20 21 23 19 18 15 13 12 13 12 13 13 16 18 21 22 22 23 24 25 26 29 29 29 32 33 34 34 38 43 50 55 65 68
15 15 17 16 17 17 17 19 19 19 19 19 21 19 20 16 17 17 16 15 15 16 19 21 22 23 23 24 24 25 28 30 29 31 33 33 33 36 42 47 51 59 67 54
15 17 18 15 20 21 19 19 19 17 16 19 21 19 21 17 18 19 19 17 17 19 21 22 23 23 23 23 25 26 29 30 30 33 34 34 35 40 46 49 53 64 60 42
11 15 12 9 13 14 12 13 17 17 21 21 22 24 21 20 18 19 18 18 20 20 21 22 23 23 23 25 27 29 31 30 31 34 34 36 39 44 46 49 56 65 43 37
10 14 14 12 13 12 14 17 19 22 24 22 23 24 21 19 18 19 19 21 22 22 23 24 24 24 24 26 28 31 32 31 32 33 35 37 40 44 48 50 59 58 34 29
11 10 9 10 14 15 20 19 16 15 18 22 22 21 20 20 20 22 23 23 23 24 25 25 25 25 27 28 30 32 31 30 31 33 36 37 42 43 50 54 60 45 30 24
16 16 15 14 13 13 15 18 20 20 19 19 20 19 20 21 23 23 23 24 25 25 25 25 26 27 29 30 31 31 29 29 29 33 36 39 43 46 52 57 56 33 25 21
23 21 20 20 20 20 20 19 18 18 20 21 22 23 21 18 22 24 26 25 25 26 26 27 28 29 29 30 32 30 30 30 31 34 37 42 44 49 53 58 46 27 24 20
30 29 28 27 25 23 23 24 24 24 24 23 22 22 21 25 28 28 27 27 28 27 27 28 30 29 30 31 31 29 30 31 33 35 40 44 46 51 57 51 33 24 23 21

GFSNGP_500_spd_027.txt.gz
Wind_Speed
10 11 12 15 17 14 12 12 7 7 6 10 18 24 24 24 26 25 25 25 28 28 26 29 31 22 23 24 32 35 35 36 36 39 41 49 54 53 52 56 56 51 51 48
11 12 16 17 15 10 11 7 7 7 10 13 16 15 21 26 25 24 21 19 24 21 26 30 29 22 22 22 25 27 26 28 38 36 38 42 48 51 51 55 53 47 46 46
13 15 14 13 12 11 11 8 3 6 7 12 16 20 22 23 25 22 19 19 23 21 26 30 25 21 23 21 17 19 22 19 24 28 33 35 40 43 47 49 45 42 42 46
16 15 13 12 13 13 10 5 3 4 7 10 15 20 22 20 21 19 17 20 22 20 22 23 22 21 21 16 5 7 10 13 15 17 19 16 23 30 37 38 33 40 41 41
15 13 13 12 14 12 9 7 5 7 7 11 13 17 19 19 19 17 17 18 19 22 18 18 17 18 17 16 9 9 14 13 14 14 16 20 26 24 35 37 37 32 33 38
14 14 12 14 15 14 11 8 8 8 9 11 11 15 17 16 17 20 19 13 12 20 19 17 15 13 14 16 17 15 14 14 15 10 16 7 10 17 22 20 19 27 24 28
14 14 14 14 15 15 13 10 10 8 9 10 12 12 15 16 15 15 19 18 12 13 11 18 11 14 19 15 13 11 11 14 12 9 8 8 12 15 26 19 21 19 20 18
17 16 17 14 14 16 15 13 11 8 9 9 13 11 13 16 16 14 15 17 16 11 11 13 12 13 13 18 10 13 13 14 6 1 5 3 1 1 5 7 11 13 18 21
19 20 18 15 16 14 15 13 11 9 10 11 13 13 11 16 17 15 13 14 14 14 11 12 11 10 10 14 13 13 10 8 7 6 1 3 4 5 7 10 15 21 25 28
21 22 21 17 17 15 14 14 13 13 14 15 16 15 13 13 16 18 10 10 11 11 10 9 9 10 11 12 11 11 8 8 7 5 4 6 9 13 15 18 21 24 27 30
20 24 23 22 19 17 17 17 16 17 17 18 16 15 13 14 15 12 9 7 8 10 5 7 9 9 9 8 7 7 6 6 7 9 11 13 15 17 19 22 25 27 29 29
21 24 23 22 19 18 20 20 20 20 19 20 17 14 13 13 12 11 9 9 7 4 6 9 8 6 6 7 8 10 12 13 14 15 17 18 19 21 23 25 26 26 27 30
23 25 25 24 26 26 23 23 23 20 19 20 17 15 14 12 11 11 12 11 10 10 10 8 6 6 6 9 12 14 16 16 17 18 19 20 21 23 24 23 24 27 30 34
24 24 27 27 29 30 27 25 23 20 20 19 17 16 15 13 13 13 13 13 10 10 9 9 7 6 10 12 15 17 18 19 20 20 21 22 23 24 23 25 28 30 33 37
23 23 28 29 30 31 29 27 25 21 20 17 16 16 15 15 15 15 15 16 15 11 9 9 8 10 14 15 17 17 19 20 20 21 23 25 25 24 26 29 31 34 36 41
25 22 26 28 30 30 30 29 26 21 20 18 20 19 20 16 16 17 21 20 18 16 15 12 12 14 16 18 19 20 21 21 23 24 25 26 25 27 29 31 33 34 39 44
23 23 24 27 28 27 29 29 26 23 22 20 21 22 19 14 13 18 19 18 16 16 13 13 15 17 19 21 22 22 23 23 24 25 26 25 27 29 31 33 33 36 42 46
24 23 24 26 25 24 24 24 24 23 22 22 20 19 18 20 15 15 14 12 13 14 15 15 17 18 21 22 23 23 23 24 25 26 27 27 29 31 33 35 37 40 44 48
21 21 20 21 19 18 20 22 22 22 21 23 23 22 24 20 18 17 15 14 14 15 16 17 18 20 22 23 23 23 23 24 26 28 30 30 31 33 35 36 39 43 45 51
18 21 20 19 19 20 22 23 23 24 25 26 25 26 25 22 20 19 17 18 19 18 19 19 21 22 23 24 24 24 25 26 28 30 32 32 33 35 35 37 41 43 47 54
15 16 17 17 17 21 21 23 25 23 21 22 24 25 21 20 20 19 18 18 20 20 21 22 23 24 24 25 25 26 27 28 30 32 33 33 34 34 35 36 41 44 51 57
9 13 15 16 22 24 17 16 16 19 23 22 21 20 22 20 19 21 19 20 21 21 22 24 24 24 25 26 26 28 29 30 32 34 33 33 33 34 35 42 43 44 54 60
5 8 13 14 15 14 13 16 15 17 21 22 22 26 23 22 23 23 19 19 20 22 24 25 25 26 28 28 28 29 31 31 32 33 33 33 33 35 38 45 46 49 56 61
9 8 9 9 11 16 14 13 13 17 18 18 22 25 26 25 22 21 21 22 23 25 25 25 26 28 29 29 29 31 31 32 33 32 33 34 36 39 42 46 49 51 59 53
13 14 14 13 12 12 14 18 18 19 19 20 20 21 21 19 21 22 24 24 24 24 25 26 27 29 30 30 30 30 31 32 33 32 34 35 37 39 45 46 50 55 58 40
23 22 20 19 19 18 17 15 15 17 20 23 24 26 27 26 26 25 25 27 27 26 26 26 28 30 30 30 30 30 31 32 32 32 34 36 37 42 46 47 52 60 47 32
33 31 31 29 27 25 24 23 21 19 18 17 19 22 23 24 27 30 28 28 29 30 30 30 30 30 30 30 30 30 31 32 31 32 35 36 39 45 46 50 55 54 37 29

GFSNGP_500_spd_030.txt.gz
Wind_Speed
11 11 12 14 15 14 13 13 11 10 12 9 11 18 19 17 20 23 25 25 24 25 27 27 32 34 39 45 42 39 33 31 34 39 43 53 53 54 49 51 53 51 52 56
10 10 13 14 15 13 13 11 11 12 9 11 14 10 12 17 18 22 26 21 21 25 22 26 27 34 35 38 40 35 26 24 28 24 21 21 19 26 35 45 44 47 46 49
11 12 14 14 15 13 13 12 13 10 9 12 8 9 12 15 15 16 18 18 19 22 20 23 25 28 29 31 29 28 21 14 17 20 24 24 22 22 20 26 35 36 37 40
13 14 14 13 13 13 12 15 13 11 11 8 6 8 13 14 15 17 17 19 16 21 23 23 22 25 26 25 21 20 18 12 2 12 19 24 21 20 21 25 31 35 36 37
16 16 15 13 14 15 18 16 13 10 10 6 7 9 14 13 15 16 16 20 19 18 18 20 19 24 29 18 22 20 14 13 13 10 9 14 14 12 17 21 29 25 30 42
18 17 16 14 14 18 20 18 15 12 11 8 7 9 14 14 14 18 19 17 19 20 15 20 17 21 21 11 19 16 19 12 14 11 7 6 3 10 13 10 15 20 22 25
19 17 16 14 15 20 20 18 15 13 12 10 9 10 13 17 16 18 19 19 16 19 16 13 17 11 23 13 17 15 19 15 15 12 14 13 7 3 4 9 13 17 20 16
21 19 19 15 16 20 21 19 17 14 13 12 10 12 14 18 17 18 18 18 16 17 17 15 14 10 16 12 16 13 15 16 15 15 11 11 12 9 4 8 6 5 7 11
23 23 20 19 18 21 21 21 19 17 14 14 13 15 16 19 19 18 20 14 15 13 14 12 12 11 12 11 13 14 13 13 14 13 12 12 11 8 4 5 8 10 14 17
24 24 22 21 22 20 20 18 18 18 16 17 17 19 19 19 18 19 17 13 14 12 11 8 8 9 9 10 10 11 11 11 11 10 10 10 10 11 12 13 14 17 19 22
24 25 22 22 23 20 19 20 18 19 18 19 20 21 19 20 17 17 14 13 10 10 8 9 9 6 6 7 8 9 10 11 11 11 11 12 12 13 15 17 19 20 21 22
23 25 25 24 25 26 23 24 22 21 21 21 22 22 19 19 18 15 14 13 12 11 11 12 10 6 4 5 8 9 12 13 13 15 16 16 16 17 19 20 19 19 20 22
25 25 26 27 25 27 26 26 24 24 23 23 23 23 21 20 19 15 14 13 13 14 12 11 11 8 5 8 11 13 15 16 17 18 18 18 19 20 21 20 20 22 24 26
25 25 26 28 29 28 29 31 29 26 25 25 25 25 22 20 20 17 16 16 13 14 14 12 10 8 8 11 13 16 17 19 20 20 20 20 21 21 20 21 23 25 27 28
24 24 25 28 31 31 30 31 32 31 29 27 27 25 22 21 20 20 18 19 17 18 17 14 11 10 11 13 15 18 19 21 20 20 20 21 22 22 22 24 26 28 29 31
23 25 23 26 31 33 31 31 31 32 30 29 29 26 23 22 19 18 21 20 23 22 20 15 16 14 13 15 18 20 21 21 21 21 21 22 24 24 26 28 30 30 32 33
22 25 22 25 27 30 31 30 30 29 29 28 28 26 23 24 20 17 15 19 22 23 17 14 15 14 15 16 20 21 22 22 22 22 23 25 27 28 29 31 32 33 34 35
21 23 23 24 25 26 28 27 27 27 26 25 25 26 25 22 22 21 18 17 17 15 14 15 15 16 16 18 21 23 23 23 23 24 26 28 30 31 32 33 33 34 33 36
20 21 21 22 23 22 21 22 22 23 23 23 24 27 25 23 20 15 17 19 18 17 15 16 16 17 19 21 23 24 25 24 25 26 29 30 32 33 33 33 34 33 35 42
19 15 16 17 18 19 18 17 19 21 22 23 24 24 25 25 24 23 21 20 20 19 20 18 18 19 20 23 24 24 26 26 27 28 30 32 34 35 34 34 34 34 40 42
12 10 9 11 15 18 20 19 20 23 24 24 24 25 25 24 22 21 21 20 21 19 20 21 20 20 22 24 24 25 26 28 29 30 32 33 35 35 35 34 36 36 41 45
6 12 11 12 17 19 21 23 21 23 25 27 29 26 24 22 20 18 18 17 21 23 21 21 20 21 24 25 25 26 27 29 31 32 32 34 35 35 35 35 36 38 44 45
7 7 12 14 14 15 17 19 20 20 19 19 22 24 23 22 21 21 21 22 23 22 20 20 22 24 26 26 26 27 30 31 32 33 33 34 35 35 35 36 37 41 47 48
5 5 5 10 9 11 16 13 16 18 16 19 20 21 25 26 29 27 27 25 22 21 22 24 24 25 26 26 27 28 31 31 31 32 33 34 35 35 36 37 39 46 47 51
14 14 13 14 15 16 12 11 16 17 16 16 16 18 19 21 22 22 22 23 24 24 25 26 26 26 25 27 29 30 30 30 31 32 33 35 34 35 37 38 43 46 48 52
22 22 22 22 21 21 20 20 21 17 15 21 23 24 24 23 24 24 27 28 27 28 28 27 28 28 30 31 31 29 29 31 31 32 34 35 35 35 37 41 45 45 51 56
33 33 33 33 32 31 29 28 26 24 23 21 17 16 19 23 27 31 32 34 34 34 32 31 29 30 29 29 28 30 31 30 30 32 34 34 35 36 40 44 45 47 53 56

GFSNGP_500_spd_033.txt.gz
Wind_Speed
15 14 14 15 15 14 12 14 11 14 15 11 11 11 10 12 14 19 23 21 22 18 20 23 20 23 24 24 32 36 39 45 53 36 25 25 25 37 38 36 38 36 40 46
14 13 13 13 13 12 13 12 14 13 14 12 11 9 11 9 11 16 16 15 14 14 16 14 14 19 20 28 28 27 29 34 42 16 12 17 17 23 25 31 35 32 29 35
11 11 12 12 11 11 12 12 13 15 14 14 11 13 8 6 11 14 14 14 17 15 17 13 14 17 19 21 24 22 25 26 33 17 9 12 13 10 9 9 18 25 23 28
11 11 11 11 11 10 12 14 17 16 15 12 12 11 10 10 11 11 13 14 16 15 16 15 15 14 21 17 21 21 22 22 22 19 5 12 13 10 7 3 6 19 21 18
13 13 12 11 11 12 13 16 17 16 15 13 14 14 11 8 10 12 13 15 16 18 17 15 15 13 17 14 13 15 17 21 19 16 20 6 2 9 13 8 9 4 6 14
16 15 14 13 13 14 16 18 19 18 15 14 15 14 12 8 11 14 16 17 17 18 19 14 13 16 14 11 6 15 18 16 20 24 22 12 11 10 8 7 9 2 5 10
18 17 16 14 14 16 18 19 21 19 17 16 15 12 11 11 13 15 17 19 18 15 16 15 12 10 11 7 4 13 15 15 15 15 18 16 12 8 12 5 3 6 9 6
21 18 17 16 15 17 19 20 21 21 19 17 16 13 11 12 14 17 18 18 17 14 15 13 12 9 7 7 8 9 12 15 17 17 17 17 16 15 10 6 3 7 6 6
22 21 19 19 18 20 21 23 23 23 21 19 17 15 13 14 16 16 17 18 16 14 13 12 10 7 6 7 7 9 10 13 15 15 14 13 11 9 7 7 6 7 9 10
25 24 21 19 20 21 20 22 24 25 24 23 19 16 16 16 17 17 16 16 13 11 12 9 9 8 6 6 7 9 11 13 13 12 12 12 12 12 11 11 11 12 13 14
24 24 23 22 23 24 24 23 25 24 24 23 20 17 18 18 18 17 15 14 13 13 13 11 12 12 9 8 8 9 11 12 12 13 14 14 13 13 13 14 14 14 14 15
20 22 24 26 25 22 24 25 25 25 24 22 21 20 19 19 19 19 17 13 11 11 14 14 14 13 11 9 9 9 11 12 13 14 14 15 15 16 16 17 16 15 16 18
18 21 23 25 27 23 22 26 28 28 25 24 23 23 23 22 20 19 19 16 13 13 12 14 13 13 13 9 10 11 12 14 16 17 17 17 17 18 18 17 17 19 21 23
18 19 21 23 25 26 25 24 26 29 29 27 26 25 25 24 22 20 20 19 17 16 16 16 15 13 13 12 12 12 14 16 18 18 18 18 18 20 19 19 20 21 24 26
19 21 21 21 24 28 28 28 27 28 31 32 30 29 28 27 25 22 21 20 20 19 18 20 18 17 15 15 14 14 16 18 20 20 19 19 20 21 22 22 24 26 28 30
19 19 19 20 24 27 29 30 29 28 29 30 31 33 32 29 26 23 22 22 20 21 23 24 23 20 19 17 16 15 17 20 22 21 21 21 22 24 25 27 28 29 31 32
22 22 21 22 23 25 26 29 31 30 29 29 29 29 30 29 26 24 22 18 17 19 21 21 18 18 19 17 16 16 19 21 23 22 23 24 25 26 28 29 31 32 33 34
23 21 21 22 23 25 25 26 27 28 27 27 27 28 28 28 27 23 21 25 23 19 18 18 16 18 18 17 16 17 20 21 22 23 24 26 28 29 31 32 33 33 34 34
20 19 18 21 24 24 24 24 25 26 26 26 26 26 27 28 25 23 22 18 18 18 17 18 20 19 20 19 18 19 21 21 23 24 26 27 30 32 32 34 35 35 35 36
18 17 17 18 20 20 21 20 21 23 23 23 23 23 24 24 24 24 23 24 25 21 19 19 21 22 22 22 19 21 23 23 24 26 27 29 32 33 33 35 36 36 36 36
17 16 11 9 14 18 17 17 19 20 19 19 21 22 22 23 25 25 23 22 23 23 22 22 20 21 24 22 20 22 24 25 25 26 29 31 33 34 34 36 36 35 37 37
12 11 13 11 12 13 18 19 19 21 21 21 23 24 26 26 22 21 20 21 18 20 19 19 21 21 19 20 22 24 25 25 26 27 30 31 33 34 35 36 36 36 36 38
9 13 12 11 11 14 15 18 21 22 21 21 21 21 21 21 22 23 22 21 23 25 23 22 21 20 20 22 24 25 25 25 26 28 30 32 33 34 35 35 35 35 37 41
4 3 2 3 5 3 4 12 16 15 16 15 16 17 16 19 22 24 25 24 25 25 24 21 21 22 23 24 25 25 25 26 28 29 30 32 33 33 35 36 36 36 39 43
12 12 13 13 13 12 12 13 14 12 11 15 15 13 14 18 23 28 29 26 20 21 23 24 24 25 25 26 26 26 28 30 30 28 30 30 31 33 34 35 36 38 40 43
22 22 22 21 21 21 21 21 20 19 19 17 16 20 22 20 19 20 21 23 25 29 31 30 29 29 29 28 28 28 28 30 29 29 30 31 32 32 34 36 37 38 41 43
30 31 30 31 32 32 32 31 31 30 29 26 25 23 22 22 21 21 26 26 28 26 25 31 33 33 33 33 31 29 31 32 31 31 31 31 31 32 34 36 37 40 41 44

GFSNGP_500_spd_036.txt.gz
Wind_Speed
16 17 17 18 19 18 18 22 21 23 20 18 18 18 17 17 19 18 14 16 18 18 21 19 21 19 18 17 21 21 22 24 27 32 34 41 34 25 25 25 27 32 33 33
15 16 15 16 17 17 18 18 18 21 19 18 19 19 17 15 12 11 12 16 18 19 20 18 18 18 20 18 21 20 16 19 21 25 27 31 23 26 27 23 25 27 26 33
14 14 15 15 15 16 17 18 19 17 20 19 19 18 15 13 10 11 12 16 16 16 16 18 17 18 18 19 19 16 17 19 19 21 20 24 23 22 26 20 17 15 19 17
15 16 15 14 14 14 15 16 17 20 18 20 19 16 15 14 10 10 12 12 12 16 18 17 19 23 20 15 14 15 17 15 16 20 19 19 19 16 18 16 14 7 9 16
16 15 14 13 13 13 13 15 17 16 19 19 17 14 15 15 11 12 11 13 15 16 18 20 20 17 16 20 14 12 15 18 15 15 18 15 17 14 10 9 7 12 2 6
18 17 16 14 14 13 13 15 17 18 19 17 17 15 16 14 15 14 9 11 14 16 18 19 19 17 16 15 16 17 15 13 14 14 17 13 13 13 9 12 12 8 5 3
20 19 18 16 14 15 15 15 17 19 20 19 18 16 16 16 15 12 10 11 13 15 15 17 16 14 16 15 11 11 11 12 11 14 16 17 19 16 11 10 15 8 7 6
24 22 20 17 16 15 15 16 18 18 24 21 19 16 16 18 16 13 12 11 13 15 14 14 15 14 13 12 10 9 9 10 12 15 17 17 16 14 13 12 13 11 10 8
24 25 24 21 18 16 17 18 20 21 19 24 22 18 18 19 17 15 14 12 13 13 12 13 14 13 13 13 11 9 8 11 13 15 16 16 16 14 12 11 12 11 11 11
23 26 26 24 22 20 20 20 23 24 23 23 24 21 20 19 17 17 16 14 13 13 12 12 12 13 12 12 11 9 10 12 14 15 15 16 16 15 15 15 15 14 13 13
22 24 25 26 24 24 22 22 23 24 25 25 25 25 22 21 18 17 17 15 15 14 12 12 14 14 15 13 12 12 12 14 15 16 16 16 16 15 16 16 16 15 15 15
20 24 23 26 26 24 22 22 23 25 24 24 25 25 23 22 20 19 18 17 16 17 14 12 13 14 15 15 14 14 14 16 16 17 17 17 16 16 17 16 15 15 17 18
17 20 22 23 25 24 23 23 24 27 27 25 26 25 24 23 23 22 20 19 18 18 17 15 15 14 15 16 15 16 14 15 17 17 18 18 18 18 18 18 18 19 21 23
14 17 19 21 22 23 22 24 24 24 26 26 27 26 25 24 25 25 23 21 21 19 20 20 18 17 18 18 17 18 16 16 17 18 19 19 19 20 20 21 22 23 24 25
21 19 18 21 22 23 24 24 23 23 25 25 26 29 30 28 28 28 26 24 22 21 21 22 22 21 22 21 22 20 19 18 19 18 20 20 21 22 23 24 25 26 27 29
22 22 22 22 24 24 25 25 26 25 24 24 26 27 28 30 31 31 30 26 23 22 23 22 22 24 25 25 25 23 21 20 20 20 20 21 21 23 25 27 29 30 31 32
20 20 22 23 23 25 25 26 25 26 27 27 25 26 28 29 30 30 29 27 25 23 19 19 22 22 23 20 24 24 22 21 20 21 21 23 24 25 27 29 31 32 33 34
20 21 22 24 25 28 28 27 26 24 26 27 27 27 28 29 30 29 29 28 26 23 27 25 24 22 19 21 22 23 24 22 21 23 24 25 26 27 29 31 32 33 34 36
21 21 21 22 24 25 26 25 26 25 25 26 27 27 27 29 29 29 28 26 25 23 25 25 25 22 19 21 25 27 26 22 22 24 25 27 28 29 31 32 33 34 35 37
19 19 18 19 22 23 24 24 25 25 26 25 26 26 27 27 27 26 25 25 25 24 25 24 24 24 21 22 25 26 25 24 23 25 26 28 28 30 31 33 33 34 36 37
15 16 16 15 16 17 17 20 23 24 24 21 22 23 23 23 23 23 24 23 24 24 24 25 25 24 24 23 23 22 23 23 23 26 27 28 28 30 31 33 33 34 36 38
17 15 15 14 17 14 14 16 19 19 21 21 22 23 24 23 24 25 23 23 24 25 24 23 24 24 24 22 22 21 21 22 25 26 26 27 29 30 31 32 33 34 36 38
10 14 16 18 14 13 15 16 17 19 22 23 23 22 23 24 25 25 27 27 25 24 22 23 25 25 24 22 21 21 22 24 25 25 26 29 30 30 30 31 33 35 37 38
9 9 9 10 7 4 4 4 6 8 10 13 14 16 16 17 18 20 23 25 27 26 25 25 25 26 25 23 22 23 24 25 25 26 29 30 30 30 30 31 33 35 36 37
10 10 11 10 11 13 13 12 11 11 10 9 10 13 14 14 15 18 22 24 27 29 28 24 24 27 26 26 26 25 25 27 29 30 31 30 31 32 31 32 33 34 35 36
18 19 19 20 21 22 22 22 21 21 21 21 20 19 18 15 16 17 18 19 22 28 29 29 32 33 32 32 30 30 31 32 32 32 33 33 34 33 33 33 33 34 36 38
25 26 28 30 32 33 32 32 31 31 31 29 28 27 27 25 24 23 21 21 24 26 27 29 31 31 32 30 28 25 28 30 33 35 34 35 36 33 34 32 33 34 37 39

GFSNGP_500_spd_039.txt.gz
Wind_Speed
20 22 23 22 22 22 19 21 26 27 27 26 24 23 25 24 23 22 21 21 21 21 22 22 21 23 25 26 22 22 23 25 23 25 26 27 28 31 30 33 34 40 38 34
16 18 20 20 19 19 20 22 21 24 23 22 20 24 23 23 22 20 20 18 15 17 19 20 22 24 24 24 25 25 25 25 24 25 25 26 27 30 28 27 28 34 34 29
14 16 17 15 15 16 18 20 24 22 24 19 20 22 23 20 19 18 14 14 16 15 20 20 21 22 23 25 26 26 28 23 22 24 25 23 24 25 27 25 25 29 27 27
16 16 15 14 17 17 19 20 20 20 20 20 20 21 22 20 17 15 15 15 13 15 16 15 17 20 23 25 26 27 27 21 21 22 23 23 24 22 21 20 20 22 23 18
17 18 16 15 15 16 17 18 19 21 20 20 20 21 20 18 17 18 15 13 16 18 21 19 20 23 22 22 24 27 29 24 22 22 22 23 20 20 19 18 21 19 16 15
18 17 17 14 15 15 16 17 17 19 21 20 21 20 18 16 16 17 14 14 16 16 15 17 18 21 22 20 20 21 20 19 18 19 18 16 17 19 17 15 18 18 15 15
20 19 19 17 17 16 17 14 17 18 19 20 21 20 18 16 16 16 16 15 18 15 13 14 17 18 19 19 18 17 16 15 17 14 15 18 19 20 19 18 18 18 16 16
22 22 21 19 18 18 15 17 17 18 19 20 22 21 19 17 17 16 15 16 17 15 13 13 15 17 17 18 19 18 16 15 14 14 17 19 20 21 22 21 20 19 18 17
27 27 26 24 22 20 19 18 17 19 21 18 27 25 21 18 17 17 17 16 16 15 14 13 15 17 17 17 18 18 16 14 14 16 18 19 21 21 21 20 19 19 18 17
23 25 27 27 26 24 22 21 20 20 22 22 20 25 23 20 19 18 18 18 17 15 16 16 17 18 17 18 18 17 16 15 15 18 19 19 21 21 19 19 19 18 17 17
25 24 25 24 25 25 24 24 23 23 23 23 24 23 24 24 22 20 19 18 18 16 18 17 17 18 18 18 18 17 17 17 17 17 18 20 20 19 19 18 18 17 17 18
26 27 25 25 25 26 27 26 25 24 24 24 24 25 25 25 23 22 21 19 19 19 19 20 19 19 19 18 18 18 19 18 18 17 18 19 20 19 19 18 19 20 21 22
23 26 25 23 25 25 27 27 26 25 26 26 26 26 26 25 24 23 23 22 21 20 21 22 21 21 21 21 20 19 20 19 19 19 19 20 20 20 20 20 21 22 24 26
23 23 23 23 23 25 24 27 26 27 28 26 25 27 26 26 24 24 24 24 23 22 22 22 24 24 24 22 23 23 22 22 22 22 22 22 21 21 21 21 22 24 26 29
27 23 20 18 20 23 23 24 26 26 27 27 24 24 25 26 28 27 25 26 25 25 24 24 25 26 25 25 26 28 28 27 25 25 24 23 23 23 23 24 25 27 28 30
30 28 27 25 23 23 24 25 26 26 26 26 26 25 26 26 26 28 29 30 30 30 28 26 26 28 28 26 27 28 31 29 28 28 26 25 24 25 25 26 28 29 31 32
27 28 26 25 26 27 28 27 28 28 27 27 26 25 26 27 28 28 29 29 29 29 28 28 27 25 24 25 27 27 26 24 26 29 29 27 26 27 28 30 31 32 33 34
25 24 22 23 24 26 28 30 30 29 28 28 27 28 28 28 29 30 30 29 30 29 30 29 27 29 30 28 28 27 25 26 28 30 31 28 27 28 29 31 32 33 34 34
20 20 20 21 23 24 26 28 31 32 29 28 29 29 29 30 30 31 31 31 30 29 30 29 28 28 28 28 29 28 27 26 28 30 30 28 27 28 30 31 32 34 34 34
18 19 20 21 22 23 24 24 26 29 29 29 31 30 29 30 30 31 31 30 30 29 29 29 28 26 24 25 26 28 29 27 27 27 27 27 27 29 31 31 33 34 33 34
14 15 17 18 20 20 22 22 24 25 25 24 24 25 25 25 25 27 28 29 29 29 27 28 29 28 29 28 26 28 30 29 28 26 25 26 28 29 29 31 33 33 33 34
15 15 16 18 17 16 17 20 16 16 19 20 21 21 21 21 22 23 23 25 27 28 28 27 28 27 27 26 28 27 27 28 26 24 25 26 28 28 29 32 33 34 35 35
14 17 17 16 16 20 19 21 18 18 18 19 20 21 21 22 22 24 26 27 28 29 28 28 28 29 26 26 27 28 27 26 26 25 26 26 27 29 32 33 33 35 35 35
13 11 14 14 17 18 15 6 11 12 14 14 13 15 16 17 17 18 21 22 26 29 34 32 28 28 27 27 28 28 27 27 26 26 26 28 31 33 33 34 35 36 36 36
12 13 12 11 10 11 12 13 13 14 13 12 11 11 12 12 15 17 17 17 20 21 24 31 32 29 27 28 28 31 27 26 26 28 29 32 35 36 36 37 38 38 36 35
18 18 18 18 18 19 20 22 23 23 23 23 23 23 23 23 22 20 17 18 19 19 19 21 27 31 34 34 35 33 31 31 30 31 33 35 36 36 34 35 38 36 35 35
24 24 23 24 25 26 30 32 33 33 33 31 30 29 28 24 24 24 24 23 23 22 22 23 26 26 27 27 25 28 29 29 29 29 30 31 31 32 35 34 35 34 34 36

GFSNGP_500_spd_042.txt.gz
Wind_Speed
20 20 20 20 21 22 22 20 26 22 28 25 25 24 22 26 25 24 24 24 24 24 22 22 24 26 27 24 23 23 26 27 27 29 31 30 31 30 28 30 35 33 30 34
18 19 20 21 21 21 21 22 22 25 27 25 22 21 23 24 23 22 22 22 21 21 19 19 19 20 20 20 23 25 26 26 26 28 31 29 28 28 30 33 32 28 29 28
16 17 18 19 16 17 20 24 25 25 22 25 19 20 22 23 22 22 20 20 21 19 19 18 16 17 19 21 23 25 27 29 31 31 30 28 25 26 29 29 30 28 28 24
14 14 14 13 14 13 14 18 18 19 22 20 19 20 23 22 21 20 19 19 16 18 18 18 17 18 19 21 23 25 27 27 27 29 30 28 26 26 27 25 23 24 25 21
14 14 13 12 13 15 15 17 18 20 20 20 21 22 23 23 21 20 19 16 15 16 17 18 20 22 18 19 23 22 23 24 23 24 24 22 22 21 21 22 24 25 24 24
14 14 15 11 13 13 14 16 17 18 19 19 20 20 18 19 20 18 17 16 15 15 14 18 19 16 15 17 19 21 21 20 20 19 19 18 18 19 21 23 25 24 23 22
17 16 15 12 14 14 14 12 14 15 17 18 18 18 20 19 18 17 15 14 17 15 15 16 17 14 13 17 19 21 21 20 19 20 18 17 19 20 21 23 24 22 21 20
18 18 17 16 15 15 12 14 15 15 15 16 16 18 20 20 18 17 15 14 17 15 13 15 15 13 14 16 18 20 20 20 19 20 18 18 19 20 22 23 21 20 19 19
23 22 22 20 18 17 16 15 16 16 15 16 18 20 23 21 20 19 17 17 17 15 12 14 15 15 15 16 18 19 20 19 20 19 19 19 19 20 22 22 20 18 18 18
21 20 21 23 24 24 23 21 19 18 18 18 20 22 21 28 24 21 19 18 18 17 15 16 15 17 16 16 18 20 22 21 20 20 20 20 19 20 21 20 20 19 18 19
27 27 25 21 22 24 25 25 24 22 21 21 20 23 22 20 27 24 21 19 19 18 17 17 17 17 17 17 18 19 20 21 22 22 21 21 20 20 21 21 20 19 20 21
27 27 27 25 23 23 24 24 26 25 25 23 23 23 23 25 23 25 25 22 22 21 18 18 19 18 18 19 20 21 20 20 22 23 22 22 22 22 22 22 21 20 22 23
35 26 27 24 25 24 24 26 25 26 27 27 26 25 25 25 25 26 25 24 25 24 21 21 19 18 18 21 22 22 22 21 22 24 25 25 25 24 24 23 23 22 23 25
37 31 29 22 23 26 25 26 26 26 28 29 28 27 26 27 27 27 28 27 25 24 25 24 22 21 21 22 24 25 25 26 28 28 28 29 28 27 26 26 25 26 27 28
35 32 29 24 22 24 24 25 26 27 27 29 30 29 28 26 27 28 27 27 27 27 26 25 25 24 24 24 26 27 28 27 29 29 31 32 29 29 28 27 28 29 30 30
34 33 30 27 22 21 20 20 23 26 27 27 29 29 29 28 27 27 28 29 31 31 30 29 29 29 29 29 29 28 28 29 29 28 29 27 28 29 31 30 29 30 31 32
29 32 31 29 27 27 29 29 28 27 28 29 28 29 28 29 29 28 28 29 30 30 30 30 31 31 31 31 30 27 27 28 28 27 26 25 27 29 31 31 30 31 32 33
30 30 30 29 27 28 30 30 30 30 32 31 31 31 31 31 31 30 30 29 30 31 32 33 33 33 32 31 30 31 31 31 30 29 28 28 27 27 28 31 31 32 32 33
24 25 24 23 24 27 28 28 28 28 28 29 32 32 33 33 33 33 33 33 33 34 35 35 34 32 32 31 30 29 28 28 28 29 29 30 30 29 28 29 30 31 32 34
16 17 18 21 23 23 24 25 26 25 25 25 26 30 31 32 33 33 32 33 35 35 35 34 32 32 32 31 29 27 24 25 27 29 30 31 31 31 28 28 29 30 31 33
13 14 15 17 17 18 19 21 23 25 24 23 21 22 24 27 27 29 30 30 32 32 31 31 31 31 30 30 31 30 28 27 27 28 29 30 31 29 28 28 28 28 32 34
14 13 13 14 15 17 16 16 13 12 14 14 13 15 17 20 22 23 23 24 26 26 27 28 28 28 29 28 29 27 28 30 29 29 29 29 28 28 29 29 28 31 33 35
12 12 13 15 14 13 15 16 19 20 21 18 16 16 16 18 20 21 23 24 25 26 28 28 29 30 30 29 29 29 32 31 29 29 28 29 28 29 29 30 32 34 35 38
10 13 15 13 14 12 15 21 22 19 17 15 15 14 13 14 15 16 16 18 20 22 25 27 29 31 31 30 28 32 31 30 30 29 27 27 28 29 31 35 36 36 38 39
19 20 16 15 17 16 14 12 11 11 11 12 15 15 14 13 14 15 16 16 16 17 17 19 19 21 26 29 28 32 36 35 35 33 31 31 31 33 36 37 39 39 38 38
17 18 18 18 17 17 17 17 19 19 21 23 25 26 26 24 24 24 24 23 22 21 19 18 17 14 13 20 28 31 33 33 32 34 35 37 38 37 38 38 37 36 36 36
25 25 25 24 24 23 23 24 24 25 28 31 32 31 31 30 29 27 24 21 21 21 20 20 19 19 20 21 23 25 24 25 27 30 31 32 34 35 35 34 35 35 38 40

GFSNGP_500_spd_045.txt.gz
Wind_Speed
19 17 17 16 16 15 14 16 22 17 26 23 22 23 20 22 24 28 30 29 28 28 27 26 26 26 26 27 28 29 28 25 24 25 26 28 28 28 30 31 32 31 34 33
19 21 21 20 21 19 17 19 18 20 24 22 19 17 15 21 22 22 23 23 24 25 24 23 22 22 22 24 23 21 21 22 23 26 29 29 29 30 29 30 29 31 32 32
14 17 18 17 16 20 21 21 22 25 18 26 22 18 18 23 24 21 21 21 21 22 20 18 19 20 18 16 16 18 20 22 25 28 31 29 26 26 28 29 28 30 28 27
15 18 17 15 16 15 16 22 24 23 24 21 16 16 19 22 20 19 19 19 18 19 20 18 19 18 18 17 19 21 20 18 20 23 23 23 24 26 26 25 27 26 26 27
15 15 14 11 13 14 13 14 15 18 20 17 15 17 19 18 20 18 19 18 18 19 19 16 17 18 18 17 16 14 14 15 17 17 19 19 19 20 22 23 23 24 25 26
12 13 13 12 13 12 13 13 13 15 16 16 17 18 20 18 19 19 19 19 20 19 17 15 16 15 13 12 12 14 13 15 17 18 19 20 21 21 20 21 22 24 25 24
14 13 11 12 13 14 10 10 11 13 15 15 16 18 18 19 20 21 22 22 21 20 17 16 15 14 12 13 14 14 14 16 18 20 20 20 21 20 20 22 23 24 23 21
16 12 12 13 13 12 11 12 12 14 14 14 16 16 17 18 20 22 21 21 21 19 17 17 16 14 12 14 14 14 15 16 19 19 19 20 21 21 22 22 23 22 20 18
15 16 17 16 15 15 14 14 13 13 13 13 14 16 17 20 23 25 23 21 21 20 17 16 16 15 13 14 16 15 15 17 19 20 19 20 21 22 22 23 23 22 20 19
23 17 17 18 19 20 19 18 17 15 14 14 15 16 21 22 24 27 25 24 23 22 20 17 17 16 14 15 17 17 17 17 19 19 20 21 22 23 23 23 24 23 22 21
24 25 27 23 18 17 19 20 21 22 20 19 19 18 19 23 23 19 28 25 23 22 21 20 20 19 17 16 17 18 18 18 19 18 19 20 22 24 24 25 25 24 23 23
27 31 25 24 24 24 21 20 20 21 22 23 23 22 20 22 23 23 21 29 28 25 23 23 21 20 19 18 19 20 20 21 21 21 21 20 22 24 26 27 27 27 26 24
36 35 30 28 22 23 26 24 23 23 22 24 25 25 24 23 24 24 25 27 26 30 28 26 25 24 21 20 19 21 22 23 24 24 26 27 28 28 29 30 30 29 28 28
41 39 34 33 27 24 22 25 25 25 25 25 26 27 28 27 26 26 27 27 27 28 31 30 28 28 25 24 23 24 24 25 26 27 28 28 29 31 33 33 31 30 30 31
41 41 39 35 31 27 23 22 24 26 26 27 27 28 29 29 29 28 28 29 30 29 29 33 31 29 28 27 26 27 28 28 28 28 29 29 29 29 29 27 28 29 31 32
35 38 39 34 33 28 24 23 22 22 25 26 28 29 29 30 31 30 30 29 31 32 31 30 31 32 31 31 31 32 32 31 31 29 27 27 28 28 28 27 27 28 29 31
31 32 34 30 32 29 27 24 22 22 23 23 24 27 29 30 31 31 30 31 32 32 32 33 34 35 36 36 35 35 34 32 31 29 28 29 30 29 28 28 30 32 31 29
24 26 27 30 32 31 29 28 28 27 29 29 30 31 31 31 32 33 33 32 32 33 33 34 34 34 35 37 37 36 34 32 31 30 31 30 30 30 30 30 31 32 31 30
19 22 25 27 28 27 28 28 28 27 28 27 27 28 28 32 34 34 35 35 35 35 36 36 35 35 36 37 37 36 34 33 31 30 29 29 29 31 32 33 33 31 31 30
14 17 18 19 21 23 24 25 25 26 27 27 28 28 27 27 29 30 31 35 36 36 36 36 36 36 36 36 35 35 32 32 30 29 27 28 30 32 32 33 31 30 30 31
15 15 15 16 17 19 21 22 22 21 21 23 24 25 25 26 26 26 26 28 30 32 33 33 33 34 34 34 33 32 31 32 31 31 31 31 33 33 33 31 30 30 31 32
12 12 13 15 15 17 17 16 16 18 18 17 18 18 19 20 18 18 19 21 24 26 27 29 29 29 30 30 29 29 30 29 28 29 31 34 35 35 33 32 32 32 33 34
14 14 14 14 13 12 14 14 14 14 14 13 13 16 18 17 17 16 17 19 21 23 26 27 28 28 27 27 28 28 28 30 32 34 35 35 36 35 34 33 33 33 36 38
12 12 15 12 13 13 15 14 13 14 18 20 18 16 14 16 12 12 12 13 15 16 16 18 21 24 27 29 30 32 33 31 33 36 37 35 36 38 35 34 35 36 38 39
20 18 26 23 18 16 17 15 17 14 11 10 11 10 13 17 18 18 19 19 19 20 19 18 19 18 19 21 23 24 27 29 32 34 36 36 37 38 37 38 38 38 39 40
23 22 22 25 25 23 20 20 20 18 16 17 18 19 21 23 24 25 25 25 25 23 23 24 23 20 19 17 13 11 12 14 17 20 22 24 27 29 31 33 35 37 36 37
24 24 24 24 25 25 25 24 23 23 23 23 24 25 28 31 30 27 27 27 28 24 21 20 20 19 18 15 13 12 12 14 17 19 22 26 29 31 33 36 37 38 39 40

GFSNGP_500_spd_048.txt.gz
Wind_Speed
21 24 24 23 24 22 19 15 19 13 18 18 25 28 27 29 26 27 32 32 33 33 32 33 31 28 27 27 27 27 28 29 30 31 30 29 28 26 28 31 32 32 31 31
24 24 24 23 22 20 17 17 12 17 16 16 26 24 26 20 21 22 25 27 30 30 29 28 27 26 25 24 24 24 25 26 27 25 24 25 27 29 32 34 34 30 29 30
17 20 22 22 20 23 22 22 19 23 11 25 23 21 16 22 25 26 21 22 25 26 26 25 24 23 22 20 20 21 21 20 20 21 23 24 27 29 31 32 30 29 31 31
14 21 21 16 17 20 19 21 25 22 20 23 19 18 17 21 24 23 22 21 22 23 22 22 22 21 20 19 22 22 20 19 19 18 17 18 21 23 25 27 27 27 28 29
17 17 14 14 15 16 14 17 18 19 22 18 14 15 18 20 19 19 20 21 21 21 22 21 20 20 19 21 22 22 17 14 16 15 14 16 19 20 22 24 25 26 27 27
15 14 14 14 15 13 13 15 13 14 16 12 14 14 18 17 19 19 20 20 22 21 21 22 20 19 19 20 21 18 13 13 14 14 14 17 19 21 22 23 24 24 25 27
15 14 13 16 14 15 13 13 15 15 15 13 13 18 18 18 21 22 23 22 20 21 21 23 21 19 19 19 19 15 14 13 13 14 16 18 18 20 21 22 23 25 26 27
17 14 14 16 15 16 15 15 13 13 13 14 16 16 14 17 18 20 22 24 24 24 24 25 22 19 18 18 17 16 14 13 14 15 17 18 18 20 20 22 23 24 25 26
18 17 19 18 17 17 17 17 17 17 16 15 14 15 16 15 16 17 21 23 23 23 23 23 23 20 18 18 19 17 15 15 16 17 18 18 20 22 21 22 23 24 25 25
24 21 20 19 21 21 19 18 17 17 16 13 13 13 15 18 19 22 24 26 26 23 22 23 23 21 20 20 20 20 18 17 18 19 18 19 21 22 22 23 24 25 26 26
26 23 27 26 22 19 20 22 22 20 19 18 16 15 16 18 22 24 20 19 30 28 26 25 26 25 23 23 22 22 22 21 20 21 21 21 22 22 21 23 25 27 28 28
31 30 34 29 27 29 26 22 22 23 24 23 22 22 21 21 21 22 23 21 19 30 28 27 28 28 26 25 25 25 25 24 23 23 24 25 26 28 29 29 29 30 32 32
37 37 38 35 31 28 26 28 27 24 22 23 24 25 25 25 24 23 23 23 24 24 26 35 30 31 30 28 26 27 26 26 26 26 26 28 29 30 31 30 31 32 35 36
47 43 42 39 36 32 30 25 24 28 26 25 25 25 26 28 27 27 26 25 26 26 26 27 28 33 34 32 32 30 30 29 29 29 29 30 31 32 33 32 31 31 31 29
55 52 45 43 40 38 32 30 26 23 26 28 27 26 26 27 28 29 28 28 28 28 28 29 30 31 32 35 35 33 32 33 33 32 32 33 34 34 33 31 30 30 30 31
48 58 45 39 39 40 36 32 30 25 23 23 25 25 26 28 28 29 29 30 30 30 31 30 31 32 32 33 36 35 34 35 35 35 36 36 35 34 32 32 32 31 31 31
23 31 36 39 37 33 38 35 31 27 25 23 21 21 21 24 27 29 30 30 32 32 33 33 33 33 34 35 36 37 38 39 39 39 38 37 35 34 34 34 34 33 33 34
11 15 23 28 29 33 31 35 32 29 26 25 24 26 26 28 29 30 30 32 33 34 34 35 35 35 35 35 36 36 37 39 39 39 38 37 36 34 34 34 34 34 35 36
7 11 14 19 21 25 28 34 31 29 28 27 27 28 27 27 27 27 30 33 35 36 37 36 36 36 35 36 37 37 38 38 38 37 37 35 34 34 34 33 33 35 35 35
14 10 11 12 18 19 25 31 27 24 26 27 26 27 27 28 28 28 28 29 31 34 35 36 36 38 37 37 37 37 37 36 37 35 34 34 34 34 34 34 35 36 36 35
10 12 13 10 10 15 17 19 20 22 22 22 22 24 25 25 23 24 25 27 29 30 31 31 32 34 35 36 36 36 36 37 36 33 34 35 34 33 36 38 38 38 38 38
15 13 11 13 14 16 17 18 18 19 19 19 19 19 19 20 19 19 21 22 23 24 24 25 26 28 30 31 31 32 32 33 32 33 33 33 35 37 38 38 37 38 41 41
16 17 13 15 16 15 15 16 16 17 19 21 20 19 14 13 14 16 19 20 20 21 21 22 22 24 26 27 28 28 29 30 31 31 35 36 36 37 38 39 39 40 40 38
18 19 19 17 17 18 14 13 14 16 16 14 13 13 13 13 11 11 13 15 16 13 14 16 16 16 17 20 24 26 30 34 36 37 37 37 37 36 36 37 37 38 39 39
21 21 22 22 24 21 19 16 15 16 14 14 13 13 14 13 13 16 17 20 22 22 22 23 23 24 23 22 20 19 23 26 25 29 28 28 28 26 22 20 23 27 32 35
23 26 28 27 28 29 30 23 19 21 19 19 19 17 18 19 19 21 24 25 25 27 26 26 26 24 23 24 24 21 17 15 13 11 9 10 13 16 19 22 25 27 30 33
29 28 30 31 30 27 28 27 26 26 24 23 23 23 23 23 24 25 27 29 28 26 28 30 27 26 24 22 23 23 20 17 13 14 15 17 18 20 22 22 24 27 30 32

GFSNGP_500_spd_051.txt.gz
Wind_Speed
25 26 27 29 29 24 20 18 25 18 16 16 26 27 28 26 29 30 30 31 31 31 30 34 44 44 38 33 32 34 34 33 32 31 30 30 31 31 32 32 32 32 33 35
25 26 28 30 30 29 25 26 23 17 14 14 19 24 32 32 31 31 33 34 35 34 34 34 35 35 36 36 31 29 29 29 28 27 27 28 28 28 28 29 31 32 33 35
24 27 29 28 24 28 26 24 24 25 13 20 20 20 23 27 23 31 33 33 32 34 36 36 32 30 29 29 27 26 26 25 24 23 23 24 25 27 27 26 27 29 30 31
16 18 21 17 18 23 24 23 27 25 21 26 22 20 18 19 23 29 29 27 26 26 27 29 30 29 28 27 25 23 22 22 22 21 21 22 22 21 20 21 24 26 27 28
17 17 15 14 18 21 20 18 25 21 21 24 19 18 16 17 20 23 22 24 24 24 23 25 25 26 25 25 24 23 22 23 21 21 18 18 18 18 19 21 22 24 26 28
17 17 16 15 17 16 16 16 18 17 18 17 13 12 17 24 26 25 22 20 21 23 23 23 24 24 24 24 23 22 22 22 23 19 16 16 16 17 19 20 21 22 23 24
18 17 14 18 16 16 17 15 16 16 16 13 14 17 21 20 20 19 21 23 21 23 24 23 23 23 23 23 23 21 23 23 23 17 15 15 15 17 18 19 20 21 23 24
18 16 13 17 17 17 17 17 17 15 16 16 17 17 14 16 20 23 24 24 24 23 22 24 22 23 23 23 22 22 23 23 22 18 16 16 16 17 18 20 21 22 24 25
20 18 19 20 20 19 18 18 18 17 16 15 15 15 16 17 17 18 19 21 23 25 26 25 23 23 25 25 25 23 23 24 22 19 17 17 16 17 18 21 22 22 26 28
23 20 23 22 22 24 22 21 20 20 20 19 18 18 17 18 17 17 15 14 17 22 25 25 23 24 27 27 26 24 23 24 23 21 20 20 19 18 21 23 22 22 25 28
26 23 28 28 29 27 24 25 25 23 22 22 20 17 16 17 17 19 21 19 21 26 26 27 24 25 26 27 26 26 24 24 25 24 24 24 23 23 24 26 27 29 32 33
23 25 30 28 34 31 30 27 25 26 27 26 25 23 21 20 18 19 21 22 20 15 20 25 28 29 25 26 27 26 27 27 27 27 27 27 27 28 28 30 30 32 33 34
33 34 33 31 37 36 33 32 33 29 26 26 28 29 28 27 25 24 23 23 22 20 20 23 27 30 28 30 29 30 30 29 30 29 29 29 30 31 32 33 33 34 35 35
41 47 46 42 40 42 37 34 31 30 31 31 28 27 27 28 30 29 28 26 25 24 24 25 25 26 27 32 37 36 35 34 31 31 31 31 32 33 34 35 36 36 37 35
40 54 53 54 48 47 43 40 35 32 29 28 31 31 29 27 28 28 29 29 29 28 28 28 28 29 29 29 30 31 31 37 39 36 33 34 35 35 36 37 37 37 37 35
40 36 44 60 57 49 46 42 38 35 32 28 26 26 29 30 28 28 28 29 29 30 31 31 31 32 31 30 31 31 30 32 34 36 37 38 38 38 38 39 38 38 37 37
31 25 13 15 48 46 41 41 39 37 34 30 28 27 24 25 26 27 27 27 28 29 30 31 33 33 34 34 33 33 34 35 34 34 35 37 39 39 39 38 37 38 37 37
18 13 3 18 18 19 25 32 34 34 37 32 29 27 25 23 23 24 25 27 28 29 31 32 31 32 33 35 36 36 36 36 36 36 35 37 37 38 38 38 37 37 37 38
14 10 7 17 12 19 18 17 26 26 33 36 30 28 27 27 27 27 26 27 28 30 31 32 34 35 35 36 36 36 36 36 36 36 36 37 38 38 37 37 37 36 37 37
13 15 10 9 13 21 22 23 23 28 30 35 32 27 27 28 28 27 27 26 27 29 31 31 31 34 37 37 36 36 36 36 36 35 37 38 39 37 38 37 37 38 37 38
12 15 15 12 6 8 6 13 13 23 28 27 24 22 23 25 24 24 24 24 26 27 28 30 31 31 32 35 35 34 34 35 36 37 37 37 37 36 36 37 37 38 40 42
16 11 13 17 17 8 11 16 17 18 18 19 20 21 22 21 20 18 19 19 20 21 21 22 23 25 26 28 30 31 31 32 32 33 34 33 33 34 35 36 39 38 40 40
17 19 21 19 20 17 19 15 17 20 20 20 20 20 20 22 21 20 18 16 16 17 19 22 25 25 24 26 26 26 29 29 30 30 30 30 31 33 35 39 40 40 37 37
20 20 20 20 16 18 21 16 18 17 16 16 18 18 19 17 17 14 13 11 12 15 18 18 20 20 20 21 23 24 22 21 26 31 33 34 37 37 34 34 33 32 28 25
24 21 21 24 24 25 24 24 23 19 16 15 16 16 15 16 17 17 17 17 18 19 20 23 24 25 26 26 26 26 27 26 24 21 25 27 26 27 25 19 15 16 22 27
29 27 25 24 27 29 32 30 29 25 24 19 17 18 18 19 19 18 19 19 21 21 23 24 25 26 29 29 30 27 25 26 23 19 18 17 13 10 11 16 19 22 25 27
35 30 30 28 28 29 34 33 33 29 31 26 22 22 22 23 23 23 23 24 24 25 24 26 26 25 25 26 27 27 27 24 24 20 17 19 20 21 22 24 26 27 28 29

GFSNGP_500_spd_054.txt.gz
Wind_Speed
20 22 22 25 23 25 26 20 24 16 21 19 22 28 30 31 32 36 37 36 35 37 36 34 38 42 46 40 36 32 31 34 37 39 39 39 39 38 37 36 35 33 33 34
18 18 22 25 26 26 27 27 30 27 21 21 22 25 24 32 32 33 34 34 35 34 32 32 28 26 46 48 42 42 37 33 32 33 36 35 35 34 33 33 31 30 29 31
21 23 24 24 19 23 26 27 28 28 18 24 23 19 21 23 33 34 32 35 38 37 36 36 35 33 33 34 36 41 44 45 38 37 34 33 32 30 28 28 27 27 27 27
18 20 23 19 20 26 29 27 29 31 26 28 28 27 22 19 20 26 33 37 37 37 37 38 39 40 37 34 31 32 31 31 32 31 29 27 26 25 25 24 22 21 23 25
19 17 17 17 18 22 25 22 27 27 26 26 28 27 20 21 20 22 24 29 29 31 31 29 32 34 36 39 36 30 30 28 28 27 25 25 25 23 21 21 21 22 21 20
17 16 15 16 19 20 20 20 23 24 21 21 22 17 16 28 29 29 28 23 24 26 28 27 27 27 27 26 26 26 28 27 27 25 25 25 23 21 21 21 21 19 19 19
18 17 13 17 16 17 18 17 19 19 18 18 16 16 22 24 26 25 25 22 20 21 24 23 24 24 27 28 25 25 26 26 25 24 24 27 24 22 20 20 19 18 18 19
17 17 15 14 16 16 17 18 18 19 17 16 18 18 17 17 20 21 20 19 20 23 25 21 22 23 24 23 23 23 23 23 23 24 27 25 26 23 20 20 19 18 19 19
19 17 18 20 21 21 20 19 19 20 19 17 16 16 16 18 18 17 20 23 24 24 25 24 24 24 30 25 23 24 24 24 26 25 26 26 26 24 22 21 20 20 20 20
22 20 23 24 24 25 25 23 21 21 20 20 20 19 19 19 19 20 20 21 22 21 23 25 27 26 26 22 26 23 25 26 26 25 26 27 28 26 24 23 23 22 23 23
22 23 25 26 28 29 28 26 26 26 24 23 22 21 20 19 18 19 20 20 20 18 21 22 24 25 26 25 23 24 25 25 25 26 27 28 29 28 27 27 27 27 27 28
17 19 22 17 25 32 31 30 31 28 27 27 27 25 24 22 20 19 18 21 22 23 18 23 24 25 28 26 25 25 24 26 26 27 28 28 29 29 30 29 30 30 31 32
20 22 24 25 27 34 37 35 33 33 33 29 27 29 30 28 27 26 24 23 22 21 20 19 19 21 31 27 24 27 30 27 28 28 28 28 31 30 31 31 32 31 32 33
27 28 30 36 39 39 43 46 40 37 36 35 35 32 28 28 29 30 30 29 27 26 23 22 22 24 24 25 27 28 31 31 32 32 32 32 33 31 31 31 32 32 34 35
29 34 37 38 43 47 47 49 50 46 40 36 35 33 33 33 30 29 29 29 29 29 28 26 25 26 27 28 28 29 30 29 30 31 30 32 36 38 39 38 37 36 37 38
30 35 34 36 42 53 58 51 52 51 44 40 36 34 31 29 31 33 30 28 27 28 28 27 28 30 29 30 29 30 31 31 33 33 32 31 31 31 32 34 34 36 37 37
26 29 33 37 38 45 44 41 44 39 44 40 40 37 34 29 26 26 28 29 29 28 27 28 28 28 28 29 31 32 33 33 34 34 34 35 35 35 35 35 35 36 36 36
24 27 24 24 29 19 11 29 22 28 38 35 31 38 35 31 29 26 25 25 24 25 26 26 27 28 29 30 31 31 32 34 35 35 36 36 36 36 37 36 37 37 39 40
22 22 18 20 19 8 7 10 14 19 25 33 29 31 36 33 28 26 25 25 25 26 27 27 27 27 29 31 34 35 35 35 36 35 36 37 37 37 37 37 39 40 40 39
24 20 16 14 19 14 14 14 12 17 19 25 25 22 30 34 28 27 26 27 27 27 26 27 28 28 31 33 33 33 34 36 39 38 38 37 37 36 37 38 40 41 40 40
25 23 20 14 16 13 13 14 10 8 13 18 26 26 27 32 32 30 25 24 24 24 24 25 26 28 29 30 32 33 33 34 35 37 39 38 38 38 36 37 38 38 39 41
27 24 22 21 18 20 12 16 13 19 17 18 20 22 23 25 25 26 24 22 21 20 20 21 21 21 21 22 24 25 28 30 31 32 33 34 34 35 36 35 36 38 39 38
31 28 25 21 22 22 22 21 15 16 18 19 21 21 21 22 21 21 20 20 20 21 20 22 22 21 21 19 21 25 26 23 25 28 31 32 33 33 32 33 34 34 36 38
35 30 28 24 20 23 24 29 27 22 20 18 21 23 23 22 21 21 22 20 18 16 15 15 17 19 22 24 25 25 25 25 27 29 27 25 30 34 35 35 36 38 33 32
40 35 30 27 22 23 24 20 25 25 21 20 20 20 20 21 22 22 22 21 20 19 18 17 19 22 22 23 26 29 30 30 29 28 26 25 25 23 25 29 28 27 25 21
36 40 34 29 25 23 25 29 30 28 28 26 23 20 19 20 19 20 21 23 24 22 21 21 22 21 21 22 24 25 25 28 32 31 28 24 24 21 20 18 18 19 23 26
32 35 36 33 30 27 25 26 26 31 31 32 31 28 26 24 22 23 22 22 23 24 24 24 24 22 22 24 26 26 27 27 26 27 25 23 23 23 23 23 24 25 26 28

GFSNGP_500_spd_057.txt.gz
Wind_Speed
23 24 26 27 25 25 27 24 23 10 20 14 16 21 24 29 33 34 34 36 37 37 37 40 39 40 42 45 45 44 41 42 44 42 41 41 41 43 44 43 44 42 40 39
23 24 25 26 28 27 26 24 26 26 21 19 18 20 20 24 27 27 31 35 36 37 37 39 40 42 43 40 40 45 47 48 43 38 30 30 35 36 38 37 35 37 36 35
21 21 21 17 16 20 23 22 25 25 21 24 22 26 24 20 20 23 26 33 37 39 41 40 40 41 38 34 34 33 44 47 46 46 41 36 32 32 33 34 36 35 31 30
16 20 19 16 17 21 21 22 26 26 26 26 26 29 28 23 21 19 20 31 35 35 39 40 38 39 37 35 35 33 32 35 38 39 41 44 43 39 37 33 30 29 29 28
17 15 15 14 15 17 19 22 24 24 24 24 25 25 25 26 24 24 24 23 27 36 37 39 39 38 40 41 41 40 40 34 32 32 32 33 30 32 30 28 26 27 25 24
16 14 13 16 16 18 20 22 22 23 24 22 22 22 24 24 26 29 29 29 28 25 26 32 33 31 29 29 31 32 35 40 31 32 32 28 27 26 26 27 25 24 24 23
15 13 17 18 17 17 19 20 21 21 21 21 19 18 19 22 26 29 28 28 27 24 23 24 25 29 28 28 29 28 25 26 26 25 25 26 25 25 25 26 28 26 23 23
16 14 17 17 18 18 17 18 18 20 19 19 17 17 19 20 20 21 22 21 21 21 21 22 25 26 24 21 23 27 28 23 22 23 25 27 26 23 27 29 27 27 24 23
21 20 20 21 21 22 21 19 19 19 20 19 19 18 16 17 17 21 20 19 20 22 21 21 23 21 23 24 26 26 23 24 25 23 22 23 25 27 29 28 28 27 25 24
23 22 23 25 25 25 25 23 23 24 22 21 20 19 20 17 19 20 19 20 21 21 21 23 24 26 26 22 21 31 28 26 25 24 23 24 27 28 29 28 28 28 26 24
24 24 25 26 28 29 28 27 26 26 24 24 25 23 22 21 20 18 19 20 21 22 23 21 21 23 23 23 26 25 26 28 24 23 23 25 27 28 28 27 29 30 28 28
25 26 24 23 26 28 27 28 30 29 29 28 27 27 27 25 23 22 20 18 20 23 21 20 17 21 25 23 25 25 22 23 23 23 23 23 24 26 27 28 29 30 30 30
25 18 18 21 23 27 29 32 32 33 32 31 32 32 29 30 28 27 25 24 22 21 20 19 17 17 17 23 26 30 25 20 23 26 26 25 25 26 27 28 30 29 30 31
21 21 21 24 23 27 29 32 35 38 39 38 36 35 36 33 29 28 28 29 28 27 26 24 22 20 20 21 21 22 29 23 24 26 27 28 28 28 29 30 30 30 31 31
26 26 24 24 27 30 34 38 40 42 46 46 43 40 38 37 36 35 31 28 28 28 28 27 27 26 24 24 25 25 26 26 27 27 27 28 29 30 30 29 30 31 33 35
26 29 31 31 32 33 36 35 43 52 54 52 50 44 42 40 36 34 32 32 32 29 27 26 27 27 26 27 27 28 29 29 29 30 30 31 31 32 32 32 32 31 31 32
28 28 30 31 33 34 26 33 55 49 51 54 46 51 42 41 38 33 30 28 29 32 31 28 27 25 25 26 28 28 29 31 32 33 33 33 33 34 34 35 37 37 38 37
33 33 30 29 29 29 28 29 38 15 13 28 35 39 38 35 39 35 30 28 27 26 26 26 26 25 25 25 26 27 28 30 32 33 34 35 36 36 37 38 38 38 38 39
32 32 30 28 26 28 26 26 24 2 10 12 20 27 28 27 25 36 33 29 28 26 24 23 23 25 25 25 24 25 26 27 29 32 35 38 39 39 39 39 40 40 40 40
40 39 33 29 26 27 26 19 19 17 18 17 19 21 26 28 25 27 34 33 28 26 25 25 25 24 25 25 25 27 28 31 33 34 35 36 37 39 42 42 43 42 41 41
39 41 42 37 32 28 27 23 17 18 17 17 20 20 23 23 21 23 28 32 31 28 23 22 24 24 24 24 25 26 27 28 29 30 31 33 34 35 37 39 41 42 42 42
46 46 42 42 38 31 28 28 25 21 20 17 19 14 16 21 22 24 26 29 30 30 28 26 24 23 21 20 20 21 21 22 23 25 27 28 29 30 32 33 34 35 36 38
53 44 45 40 39 33 28 26 28 22 23 16 19 19 19 19 23 25 25 25 26 24 22 22 21 20 20 20 19 20 21 22 23 24 25 26 27 30 29 29 33 36 36 35
47 42 45 43 38 36 30 26 30 28 28 22 19 21 20 24 24 25 24 24 23 22 22 22 20 17 17 16 17 19 21 23 24 28 30 31 29 29 28 29 29 30 32 34
45 47 46 41 38 39 30 27 28 30 28 32 28 23 23 23 24 24 24 24 25 24 23 21 19 18 17 17 17 18 18 19 23 26 26 28 30 33 28 29 29 25 22 21
39 40 38 39 36 37 34 27 28 31 28 27 29 28 25 24 24 25 26 24 24 24 25 24 21 20 19 20 20 19 19 21 23 25 26 27 27 27 27 26 24 19 16 16
30 31 30 29 30 33 38 30 27 28 32 30 30 33 29 26 22 20 23 24 23 21 22 22 23 23 23 23 22 21 22 24 25 26 27 28 27 26 25 23 22 22 20 21

GFSNGP_500_spd_060.txt.gz
Wind_Speed
18 18 19 21 23 25 26 22 28 18 23 14 22 25 26 27 25 25 30 32 33 36 38 39 40 41 42 42 42 44 44 43 43 43 45 45 47 45 46 46 47 47 47 48
23 23 25 24 25 27 30 28 28 26 23 22 28 23 22 23 25 20 21 26 30 31 33 35 38 40 40 41 41 43 43 43 45 47 45 45 42 43 45 39 40 41 39 40
24 23 24 22 23 25 26 29 31 31 26 30 27 26 25 24 24 22 20 20 25 27 29 32 35 36 37 40 43 45 46 47 44 43 44 50 48 43 40 37 31 30 31 31
19 22 23 22 24 24 25 26 27 28 27 27 26 25 26 28 26 25 26 27 26 22 25 29 33 36 38 41 43 45 46 44 40 37 35 36 46 46 47 47 43 40 43 38
19 21 21 22 22 24 25 27 29 28 28 27 26 23 28 30 29 26 28 29 30 29 24 25 31 34 38 40 40 41 41 41 39 36 36 34 34 36 37 35 41 38 33 32
19 20 21 22 23 25 24 27 25 25 25 24 23 22 25 27 26 26 28 29 30 30 30 27 26 31 35 37 38 39 38 34 34 41 40 40 36 27 28 28 26 28 32 32
16 17 22 22 23 23 23 23 21 22 23 23 22 22 22 22 23 23 25 27 28 28 28 27 27 27 28 29 32 33 28 28 30 29 29 36 32 33 31 28 26 25 26 27
15 16 20 18 18 21 22 21 20 21 21 21 21 21 22 20 22 23 21 22 21 22 23 24 25 27 27 26 26 31 29 26 28 26 27 28 28 25 25 25 26 25 25 27
20 21 22 22 21 21 23 23 22 21 22 21 22 23 23 23 21 22 21 22 22 22 23 24 24 22 25 24 25 28 22 28 32 29 27 24 25 25 25 24 26 28 25 29
22 22 24 25 26 28 28 26 27 26 25 26 24 24 23 23 23 22 24 23 18 20 22 22 23 25 26 27 27 26 28 29 27 28 26 26 25 23 23 25 26 26 28 28
27 26 26 27 30 30 28 28 27 28 28 28 28 27 26 25 24 23 24 21 21 21 22 23 25 24 24 26 27 26 22 23 27 30 28 27 27 25 23 25 27 28 29 29
33 31 30 27 31 31 29 31 31 28 27 28 28 28 30 28 27 26 26 25 23 23 24 24 21 20 26 19 26 26 26 28 24 25 26 27 26 25 23 24 26 27 28 28
37 37 30 28 28 29 27 30 32 31 29 27 29 26 28 29 31 30 29 29 28 26 25 23 21 19 17 16 14 23 23 27 27 25 22 21 23 26 27 24 25 27 28 29
23 23 23 25 25 27 29 29 29 30 32 33 32 35 32 32 33 33 34 32 32 31 30 28 27 25 21 19 19 19 19 21 25 28 28 24 24 25 27 28 29 30 31 31
23 24 22 24 28 30 32 33 33 31 33 35 37 38 39 39 37 36 36 37 35 32 31 29 29 29 26 25 25 26 24 23 20 23 23 24 25 27 28 30 32 33 33 32
27 29 31 32 32 33 34 37 36 36 35 35 34 42 47 50 45 42 40 38 38 38 36 32 29 29 27 27 27 29 29 28 27 28 28 28 29 30 31 32 33 34 35 35
29 31 32 34 35 35 35 35 35 37 38 35 41 47 56 62 58 49 43 40 38 38 36 35 35 32 29 27 27 28 28 29 29 30 31 31 32 33 34 35 36 37 38 39
32 35 39 41 40 37 36 37 36 36 37 38 37 44 32 33 39 33 42 41 37 37 34 30 30 31 32 31 29 28 28 29 29 29 30 32 32 34 35 37 38 40 42 43
32 32 36 36 40 42 39 36 35 34 33 33 28 27 19 19 29 28 30 32 36 38 33 29 27 26 26 27 27 27 28 28 27 27 28 28 30 32 34 37 39 42 44 46
39 41 43 45 48 46 40 42 36 31 28 30 27 25 18 26 33 28 26 20 25 34 35 29 27 27 26 26 26 26 26 26 26 26 28 31 33 34 35 37 38 39 41 43
45 48 49 50 47 48 43 40 40 32 28 29 28 26 26 22 25 28 29 25 24 29 34 30 27 26 26 26 25 25 25 25 25 27 28 27 27 27 29 30 31 33 35 37
56 57 58 55 50 49 47 40 37 37 30 30 30 30 27 25 27 27 26 27 28 26 28 32 29 26 25 27 24 23 23 22 22 21 22 22 23 26 26 28 30 32 33 34
65 66 62 57 51 49 48 44 34 34 32 29 29 33 26 28 23 24 26 25 23 23 26 29 29 27 26 26 23 21 20 20 20 20 21 23 25 28 30 33 34 33 32 35
65 61 53 48 44 43 41 39 35 34 31 30 30 30 25 29 24 23 21 22 24 24 25 27 28 25 23 22 21 19 18 17 18 19 20 22 25 27 30 32 34 35 34 33
49 42 39 34 31 30 29 28 31 32 31 29 32 32 27 25 21 18 20 22 23 23 25 26 26 26 23 21 19 18 16 15 15 14 15 16 18 21 24 27 28 29 30 29
34 28 24 23 22 20 21 23 28 31 30 27 32 34 32 30 30 31 31 26 23 23 23 24 27 26 24 23 21 19 17 18 19 17 18 20 22 23 25 27 27 26 26 24
20 14 14 18 17 18 20 23 27 30 29 25 28 31 31 33 35 32 30 30 27 23 21 22 22 25 27 27 24 24 23 22 21 22 23 24 24 26 27 28 27 25 25 24

GFSNGP_500_spd_063.txt.gz
Wind_Speed
15 13 14 18 22 23 25 20 27 16 21 17 24 29 32 31 28 29 28 27 31 35 36 38 40 40 41 42 43 45 46 47 49 49 48 47 48 48 47 46 44 43 44 43
15 15 15 15 17 20 22 21 27 24 27 26 28 30 29 28 28 28 31 29 28 31 31 33 34 36 39 39 40 43 45 46 45 45 44 44 44 46 48 46 44 42 42 41
20 20 21 21 21 23 26 28 31 33 34 32 30 29 29 29 32 30 28 29 32 30 30 27 31 31 30 32 34 36 38 40 40 41 42 44 45 46 46 48 50 45 42 41
27 28 28 26 27 30 32 33 35 35 34 33 32 31 34 35 35 35 33 31 31 32 31 29 27 25 26 27 28 31 34 38 40 43 46 49 48 45 43 44 45 51 51 47
24 25 27 27 27 28 31 32 30 31 32 32 31 30 33 33 35 35 35 35 34 33 34 32 29 26 27 28 31 35 38 41 45 45 41 40 43 43 42 38 35 33 35 37
22 22 23 24 24 26 28 32 29 30 30 29 29 28 30 32 33 34 33 33 34 35 35 33 31 29 28 29 32 34 39 40 41 41 39 40 39 43 43 40 34 30 31 29
25 26 28 26 26 26 29 31 28 27 27 28 28 28 26 30 29 29 29 29 30 32 33 33 31 31 30 30 30 32 30 34 36 37 35 31 28 30 31 35 36 33 25 24
23 23 24 20 22 24 27 29 28 27 26 26 27 27 26 27 26 27 28 27 25 27 28 26 27 28 28 29 30 32 32 29 30 30 30 27 26 25 29 28 33 27 28 23
23 21 21 23 24 26 26 26 27 27 27 27 26 26 26 26 26 27 27 27 26 26 27 26 26 27 27 27 28 30 30 29 29 28 31 26 27 30 28 28 26 24 23 24
24 24 26 25 25 28 28 29 30 30 30 31 30 30 30 29 27 27 27 28 26 27 27 29 29 26 25 28 30 29 29 28 26 25 30 25 26 29 27 25 26 27 28 28
28 30 30 30 32 31 31 31 30 31 32 32 32 31 33 32 31 30 30 29 30 28 28 27 28 28 27 28 28 30 32 30 27 23 22 26 28 27 27 28 27 26 25 25
30 33 35 37 37 37 35 35 35 33 33 34 33 27 30 28 30 32 32 32 31 31 29 28 27 28 27 23 26 29 28 28 27 28 26 25 28 28 26 26 27 27 25 25
27 28 26 28 31 36 35 35 35 36 34 29 32 31 29 29 31 31 30 32 35 34 32 31 29 29 26 25 22 21 17 21 27 28 29 30 25 23 22 23 25 26 27 27
18 20 23 24 24 29 35 38 34 33 34 34 31 32 33 33 35 36 36 35 35 36 36 35 33 33 32 28 26 24 21 20 18 22 27 24 29 29 24 22 23 24 26 28
22 24 24 27 30 30 31 31 33 38 39 39 40 39 38 36 33 33 35 36 39 39 38 39 36 36 35 33 32 30 28 26 25 23 19 25 27 28 26 24 25 28 30 30
27 28 32 32 31 34 35 35 36 39 41 44 44 45 44 42 40 41 39 38 38 42 43 41 40 39 35 33 34 32 32 31 31 29 26 25 25 27 27 28 30 31 33 35
26 29 29 35 37 35 33 37 40 43 44 43 43 43 43 41 43 40 45 50 48 44 45 45 43 42 41 38 35 33 33 32 32 32 31 30 29 29 30 30 31 33 34 36
32 32 33 37 41 43 42 41 42 47 45 45 45 45 44 41 41 45 43 47 55 57 52 49 46 43 40 39 39 38 35 32 30 31 31 30 30 29 30 31 32 32 34 35
43 42 44 45 47 48 51 54 56 53 52 46 44 45 44 39 37 34 32 26 36 43 46 46 43 41 38 37 35 36 36 35 33 32 31 30 30 29 29 29 30 32 34 37
49 50 52 55 57 59 60 61 60 58 54 50 44 43 39 36 36 28 26 30 31 25 33 37 36 37 37 36 33 31 29 29 29 29 29 30 29 28 28 31 32 31 31 31
53 56 59 63 65 66 69 69 67 63 59 57 49 43 39 32 33 30 25 30 30 28 29 30 34 39 39 35 32 30 28 27 28 28 28 27 28 28 28 26 26 26 27 29
61 64 68 72 75 75 75 72 68 61 57 56 51 42 39 32 32 33 27 25 31 29 29 26 28 34 39 36 33 30 28 27 26 25 25 26 25 23 23 24 25 26 28 31
68 73 76 76 72 69 63 56 47 40 40 44 45 40 39 29 33 31 29 29 30 30 32 28 30 32 34 37 34 31 30 29 28 27 24 23 22 22 22 24 26 28 31 33
72 69 63 60 57 52 44 33 28 28 27 28 33 34 35 25 32 31 28 30 31 32 28 29 28 30 29 31 32 31 28 25 23 22 21 20 21 20 19 18 18 20 23 27
60 54 51 46 39 31 27 24 23 24 25 25 27 31 29 24 30 30 30 29 28 25 23 27 28 24 26 29 28 26 23 20 20 20 19 18 16 16 17 18 20 22 26 28
45 44 40 31 19 20 21 19 20 24 25 23 24 27 22 22 30 29 29 23 21 18 17 19 20 22 25 26 26 24 21 21 20 19 20 20 19 18 20 21 23 26 28 29
38 37 32 21 14 19 17 16 20 19 22 21 20 24 19 22 28 33 30 28 25 20 17 17 17 17 21 26 28 27 25 23 22 21 20 21 22 22 23 25 26 29 30 30

GFSNGP_500_spd_066.txt.gz
Wind_Speed
12 14 13 17 17 19 22 15 23 16 18 20 21 23 24 25 26 28 28 30 33 33 34 37 34 35 37 38 39 40 41 42 42 43 45 47 50 50 51 51 50 46 46 45
11 13 12 12 15 19 18 19 22 20 18 22 25 24 22 25 28 30 31 32 31 33 32 32 29 31 34 35 37 40 42 43 44 44 44 46 47 46 47 47 46 45 44 46
14 14 15 14 13 14 15 17 20 19 22 23 27 27 29 32 33 33 32 32 32 33 34 36 35 31 29 29 34 40 41 40 40 41 40 39 39 40 41 42 43 45 46 45
21 20 20 18 19 21 23 25 26 28 29 29 29 30 33 34 35 35 37 37 34 36 35 35 36 35 32 30 28 31 33 32 34 34 35 36 37 38 39 41 45 48 47 44
25 26 27 27 27 28 29 28 29 30 30 31 31 31 31 30 31 33 36 37 37 36 39 38 38 38 36 35 32 31 32 32 33 33 34 38 41 42 44 44 41 40 40 41
22 22 24 27 24 26 28 31 28 28 29 29 30 30 31 32 33 35 36 36 37 39 39 40 41 40 37 36 35 33 33 34 31 33 38 41 42 42 40 39 40 40 41 43
24 25 26 26 25 27 28 30 29 28 28 29 31 32 30 32 34 34 32 33 34 34 35 36 36 35 35 35 36 36 35 33 32 33 34 33 35 36 35 34 32 31 31 35
25 26 26 25 23 25 26 26 27 29 29 30 30 31 32 31 32 32 31 30 30 31 31 31 31 30 30 31 33 34 34 33 36 36 34 32 32 30 30 30 25 26 29 29
25 24 26 26 25 26 25 27 29 30 31 31 31 33 32 30 30 30 29 30 31 31 30 29 29 28 26 28 29 30 32 33 33 32 30 29 29 28 30 28 29 28 28 27
26 26 27 29 29 29 28 29 30 32 33 35 35 35 34 34 33 33 32 31 30 30 30 30 28 27 26 28 29 29 29 32 31 30 30 27 24 24 27 24 25 27 26 27
27 30 34 32 33 33 34 34 34 33 34 34 34 34 34 34 35 36 35 34 34 32 31 31 31 30 28 28 30 31 31 30 30 31 33 31 28 22 22 23 23 23 25 26
28 31 34 35 35 36 39 41 41 41 39 37 35 34 33 33 34 35 36 35 35 35 33 33 32 31 30 29 26 28 27 22 31 32 33 29 27 24 23 22 24 23 23 26
23 28 29 29 29 28 29 29 31 33 35 34 37 36 33 32 34 35 37 36 34 34 35 35 34 34 33 31 29 25 26 23 21 23 21 21 24 28 26 24 21 21 22 23
18 21 23 24 24 25 27 29 31 32 33 33 34 37 39 34 33 35 36 38 37 36 36 37 37 36 36 35 33 30 28 25 25 23 19 20 28 29 24 28 24 23 22 21
21 24 27 29 31 30 28 28 30 31 33 35 37 37 37 38 41 40 40 40 42 42 42 42 40 39 40 38 36 35 32 31 29 28 27 26 24 22 28 28 32 30 26 25
28 28 31 31 33 34 36 37 39 39 36 32 34 38 40 42 41 42 44 48 46 44 44 43 41 40 41 41 39 38 35 35 33 32 32 32 30 28 24 23 25 25 25 27
38 40 42 42 43 44 44 43 42 42 45 46 46 46 45 46 43 42 44 45 46 48 50 50 49 43 39 43 42 41 40 36 33 33 34 34 34 33 31 30 31 31 31 32
43 45 48 50 52 53 54 55 55 56 56 55 55 57 58 57 55 50 44 46 43 44 47 49 45 49 50 44 46 43 42 41 38 36 34 33 34 33 31 31 31 31 31 31
49 51 54 56 57 58 60 60 60 62 65 67 67 67 67 65 60 53 48 46 46 43 44 46 49 48 50 51 48 46 43 41 39 38 38 36 33 31 30 30 30 30 31 30
48 51 53 54 57 60 61 65 67 69 73 74 73 72 71 69 66 62 53 46 45 43 41 40 43 39 39 33 43 48 43 38 36 36 36 36 35 34 32 32 31 29 28 29
53 56 58 61 64 69 72 75 78 80 81 81 79 74 69 64 63 60 55 47 45 39 36 34 28 26 34 43 44 40 37 34 33 32 31 30 29 29 29 28 28 27 28 27
60 64 67 71 74 74 76 75 73 70 66 61 54 45 41 40 42 45 46 44 44 37 34 35 36 35 34 33 34 32 31 30 30 30 28 28 28 27 26 25 25 25 24 24
71 74 76 71 65 59 55 54 50 45 36 29 25 27 28 29 32 33 38 39 41 31 34 37 38 32 31 26 35 35 34 30 29 28 27 24 23 22 23 23 23 23 22 23
76 66 60 56 49 45 44 37 31 30 28 23 22 23 23 27 26 27 28 33 35 31 34 32 35 29 28 28 28 31 33 32 29 27 27 28 26 24 23 21 20 19 18 18
59 56 52 49 42 38 34 26 22 23 23 23 24 23 22 23 20 22 24 27 34 31 30 31 29 26 25 25 23 30 32 33 31 27 27 24 21 21 19 17 17 17 18 19
56 56 50 47 43 34 28 24 21 21 17 18 21 23 21 17 16 19 22 23 31 29 30 29 34 28 20 26 25 26 28 28 29 27 20 19 19 18 17 16 16 18 19 22
53 55 52 44 43 35 27 25 21 19 19 19 17 16 15 13 13 15 18 22 28 29 30 30 26 22 18 16 17 18 23 26 21 19 20 20 19 18 18 19 20 21 22 24

GFSNGP_500_spd_069.txt.gz
Wind_Speed
9 7 8 8 10 13 16 17 20 20 22 24 23 22 22 23 20 21 24 25 27 29 31 31 32 33 33 34 35 36 38 39 40 41 41 43 44 44 45 46 46 48 49 48
9 9 12 13 11 12 12 16 16 19 18 22 23 23 21 16 21 24 25 25 26 30 31 31 31 32 33 31 29 30 31 33 35 39 42 45 47 47 46 45 46 45 46 46
11 10 9 9 10 10 12 15 15 16 18 19 21 21 21 25 26 27 28 28 27 28 30 30 30 32 33 33 33 31 30 31 32 37 42 44 46 46 45 44 43 41 42 43
14 14 13 13 15 15 16 16 16 19 19 20 25 28 28 28 30 31 31 32 32 33 34 33 34 36 36 35 35 33 34 35 35 33 34 38 39 40 41 41 41 41 41 43
21 23 22 21 21 21 22 20 21 21 21 22 23 25 28 28 30 31 33 33 33 35 38 39 40 38 39 39 39 38 37 37 37 36 36 36 38 38 39 41 42 43 44 46
22 23 25 25 25 23 23 24 23 25 26 28 29 29 33 32 33 35 36 35 35 37 38 38 38 39 40 40 41 42 40 39 39 39 37 36 36 37 38 40 41 41 40 40
24 24 27 27 28 28 26 28 29 29 30 30 31 32 33 34 34 35 35 34 36 35 35 37 38 39 38 38 37 38 37 37 38 38 35 36 37 36 36 35 36 36 35 35
24 26 29 30 29 29 31 32 33 34 33 32 31 31 32 32 33 34 34 36 35 34 34 34 33 33 33 32 32 33 33 34 35 37 37 37 39 37 35 33 33 34 31 31
25 26 29 26 23 25 27 28 29 29 30 30 31 32 33 33 34 34 35 35 34 33 33 33 33 31 30 30 33 33 31 31 32 33 34 35 34 34 34 32 31 30 26 27
27 27 31 28 26 28 30 31 33 33 33 34 34 34 34 35 37 37 38 38 37 35 34 34 34 33 32 32 31 31 31 31 30 30 32 33 32 32 31 29 28 27 26 25
20 25 28 30 30 31 33 36 36 40 41 42 41 40 39 37 36 37 38 38 39 38 38 38 36 35 33 33 32 32 30 30 31 31 33 33 33 33 33 30 29 25 26 25
17 22 25 27 29 31 33 36 38 40 39 39 40 41 41 40 40 37 37 37 37 37 35 37 38 38 36 35 34 33 32 29 29 28 25 25 32 35 36 32 28 22 23 24
19 21 23 24 24 25 26 28 29 31 33 32 31 31 31 30 31 33 35 36 38 39 38 37 37 36 37 38 37 36 34 32 29 28 28 24 23 20 24 27 28 24 25 22
22 23 24 25 25 26 27 29 30 30 31 34 34 35 35 36 35 33 36 35 34 35 37 39 39 38 38 38 37 37 36 35 33 30 28 26 23 22 15 22 25 28 27 26
29 31 32 35 37 37 37 37 37 37 37 38 37 36 35 34 36 37 36 36 37 39 40 38 39 39 38 40 40 39 38 37 37 34 32 31 28 25 23 22 21 26 26 29
32 32 35 39 43 46 47 48 50 50 49 49 50 51 50 49 45 41 40 38 34 35 41 43 48 45 45 43 43 41 41 40 39 38 35 34 33 31 29 28 26 25 22 28
36 39 40 44 47 51 55 57 59 61 62 60 57 57 58 59 57 55 53 50 49 47 42 38 46 47 49 49 48 45 45 43 42 39 38 35 35 34 34 33 31 29 28 26
41 42 43 44 47 50 52 56 59 61 63 65 67 66 64 62 61 61 61 60 57 55 51 47 43 46 50 50 51 48 47 48 44 43 41 39 35 34 32 32 31 31 32 33
45 44 45 47 50 52 55 57 60 62 66 67 69 70 70 70 68 67 67 66 64 61 59 54 50 45 47 50 47 49 48 45 47 43 43 41 39 38 35 33 31 31 31 32
50 50 52 54 59 65 68 68 67 67 68 70 72 75 76 77 76 74 72 70 68 65 62 59 51 49 46 48 47 45 47 48 49 47 46 43 40 39 38 36 34 32 31 29
53 56 60 66 64 60 59 59 57 56 54 52 52 51 51 54 61 66 67 66 64 63 61 58 54 50 48 46 43 40 43 42 38 41 45 43 41 39 34 34 33 32 32 32
60 64 67 62 55 53 55 53 49 47 45 40 36 37 34 34 34 36 39 41 42 43 46 50 50 47 47 41 34 30 31 30 33 36 40 41 40 35 30 28 28 29 28 28
66 69 64 53 50 51 54 51 44 42 35 31 30 29 24 19 18 18 19 23 27 31 34 38 43 43 44 36 34 27 28 37 39 36 36 37 34 30 28 26 25 24 23 21
69 69 56 49 49 52 53 47 42 37 31 30 28 26 22 17 16 15 13 14 17 22 25 29 33 36 35 30 35 35 34 31 37 37 35 33 30 27 26 22 22 22 21 20
72 65 51 47 49 52 54 50 41 35 28 26 27 22 20 18 14 13 13 12 17 17 19 22 30 30 26 26 28 28 31 33 31 31 34 32 30 30 27 26 24 19 19 18
70 56 47 48 51 53 52 51 43 35 27 21 24 19 19 13 13 12 11 14 16 17 16 23 27 27 21 31 27 25 19 31 32 33 32 31 30 28 27 20 16 18 17 17
60 49 46 48 53 54 52 50 46 35 27 22 19 17 16 13 12 9 13 15 14 13 17 23 24 23 21 25 24 18 20 19 22 32 32 30 28 23 18 19 18 18 17 17

GFSNGP_500_spd_072.txt.gz
Wind_Speed
2 1 3 5 8 8 10 16 20 20 24 25 25 26 27 28 29 27 26 29 29 32 35 36 36 36 34 33 33 34 34 35 37 38 40 41 42 44 45 47 47 47 48 47
7 6 8 11 11 10 13 18 20 22 25 25 27 26 26 26 26 26 28 30 31 34 36 35 35 35 34 33 34 34 34 34 35 35 36 37 37 39 42 45 46 48 49 49
7 11 9 9 10 11 12 15 15 20 23 23 23 24 23 24 26 30 31 30 28 29 29 30 31 33 35 34 33 33 33 35 36 35 33 35 37 37 39 43 45 47 47 49
14 13 13 11 13 15 15 15 15 18 21 22 24 26 27 29 29 30 32 33 34 34 34 34 35 35 34 35 36 35 36 37 37 38 38 38 40 40 38 36 36 38 42 44
22 21 22 20 19 19 20 22 23 24 25 27 30 32 33 33 33 34 35 36 36 35 35 35 37 38 38 39 41 41 42 42 42 41 41 40 42 42 41 39 38 39 40 41
23 24 26 25 24 24 23 24 25 27 29 29 31 33 35 36 36 36 37 38 38 39 39 40 40 40 40 41 42 42 43 44 44 43 44 43 44 44 41 40 40 41 40 38
25 26 25 25 26 27 26 26 29 29 30 31 33 34 35 37 37 38 38 39 40 40 41 42 41 40 41 40 41 42 41 41 41 41 42 42 41 41 40 39 41 42 39 37
25 27 25 28 29 29 32 33 35 35 34 34 34 33 34 35 37 39 40 40 40 39 38 39 38 38 39 37 38 38 37 37 37 38 39 39 39 39 39 40 41 41 39 38
14 20 22 26 29 29 29 30 32 32 34 35 33 33 34 35 36 36 37 37 38 39 38 38 38 37 38 37 37 36 35 35 35 36 38 37 36 36 36 38 38 36 38 38
13 12 17 22 24 29 31 31 32 33 35 37 38 39 39 40 40 40 40 39 39 41 41 40 39 38 36 36 36 36 36 35 35 35 35 35 34 33 34 35 34 34 33 35
15 17 18 20 22 24 27 30 33 35 37 40 41 43 44 45 46 47 47 46 44 42 42 42 42 41 40 39 37 37 36 36 35 35 34 34 35 35 36 36 34 35 36 35
18 20 22 23 26 26 27 28 29 32 35 37 38 38 37 36 37 37 39 44 48 47 44 42 41 40 40 40 39 39 38 38 36 36 36 34 33 29 29 28 34 37 37 38
22 25 26 27 28 29 29 29 31 33 36 37 38 38 37 37 37 37 37 35 38 42 41 41 40 39 39 38 37 37 38 39 38 37 37 35 33 32 30 29 27 27 29 30
24 28 31 33 35 37 38 40 42 42 44 44 43 42 41 40 37 38 38 36 37 39 41 41 37 38 39 40 41 40 37 36 36 38 38 37 35 32 30 30 27 22 24 29
26 29 31 33 35 38 41 44 49 51 54 55 57 55 52 50 50 47 45 44 40 37 39 40 41 44 39 37 39 40 41 40 39 37 37 38 38 36 36 33 29 26 19 18
32 34 35 37 39 41 44 47 49 52 55 59 61 63 62 60 57 57 57 56 53 47 43 40 37 35 38 43 45 40 39 40 40 39 39 39 39 38 37 36 32 30 26 24
39 39 39 39 41 42 44 46 48 50 54 59 64 66 68 71 71 66 59 58 60 59 53 49 47 44 41 36 36 43 47 44 42 44 42 39 38 38 38 38 37 35 33 30
43 43 42 42 41 42 47 51 54 59 65 68 68 69 70 73 76 79 79 69 60 59 60 56 52 49 46 42 38 37 36 42 48 48 46 45 42 37 39 39 37 36 36 35
46 46 47 47 48 51 54 56 57 58 57 52 52 56 59 61 65 67 70 78 77 66 61 59 57 55 52 50 45 41 40 38 42 46 48 46 44 41 38 40 40 37 35 34
52 53 53 54 55 58 60 59 53 48 47 50 51 49 46 48 49 49 49 52 56 59 62 63 59 57 57 56 53 47 42 41 40 43 45 47 46 44 40 39 41 41 39 37
57 58 57 59 60 64 61 54 48 46 48 50 49 42 39 34 37 35 33 31 35 40 39 44 57 58 55 54 52 49 44 40 37 41 45 45 46 46 42 41 40 40 39 39
64 61 61 63 66 61 53 48 46 47 50 49 46 39 32 29 32 26 24 22 17 18 24 33 42 46 53 54 51 47 44 40 39 42 43 44 44 44 42 41 40 38 36 37
65 65 65 68 66 56 46 45 45 49 50 47 45 36 29 24 28 21 19 21 17 14 12 14 22 37 47 47 44 42 38 37 39 41 41 33 29 32 35 36 37 35 34 32
68 68 70 70 60 48 41 42 47 49 48 45 43 36 28 17 23 23 20 19 15 11 12 14 16 20 29 38 42 41 38 39 39 36 34 28 30 29 31 32 32 33 32 29
70 72 74 62 49 42 41 45 47 47 44 43 41 34 26 22 20 21 15 17 14 11 13 14 17 19 21 25 29 34 36 37 37 30 38 38 31 31 29 30 32 31 29 26
72 77 66 49 42 44 45 44 43 42 44 43 38 31 24 20 19 20 16 15 13 12 14 16 16 17 18 19 24 27 30 33 35 28 28 29 36 34 36 31 30 30 28 27
78 68 51 43 45 45 43 43 44 42 46 45 35 25 20 18 17 15 14 14 15 16 13 12 12 15 17 21 24 24 25 26 26 29 31 27 27 26 28 32 35 33 25 21

GFSNGP_500_spd_075.txt.gz
Wind_Speed
4 4 4 3 4 5 10 12 15 15 18 23 24 23 24 28 30 33 35 35 34 36 40 43 45 45 45 47 46 44 42 41 41 41 41 41 41 42 43 44 44 45 47 47
2 2 2 5 5 6 9 12 15 17 20 21 23 25 27 28 29 30 31 34 37 38 39 40 44 44 43 44 44 43 43 42 42 41 41 41 42 43 44 44 44 43 41 44
5 2 2 6 5 8 10 13 15 18 20 24 25 25 26 27 29 31 34 37 40 43 43 43 44 43 43 43 42 41 40 41 41 41 42 40 40 41 39 38 39 40 40 40
14 12 14 12 11 12 12 13 14 17 21 23 23 25 27 31 33 32 34 36 39 39 39 38 39 40 39 39 40 41 43 43 42 41 41 40 41 44 44 42 41 42 43 43
20 21 21 17 18 19 19 18 19 21 23 25 26 27 29 32 33 35 36 37 38 39 41 43 42 41 41 42 43 44 44 43 43 43 44 44 44 44 44 43 44 46 45 44
20 18 18 18 21 22 22 22 24 26 30 34 35 36 38 40 41 42 42 43 44 44 45 45 45 44 44 44 43 43 44 46 46 47 48 48 48 48 47 47 47 48 48 46
22 22 20 22 22 24 25 26 28 29 31 33 36 38 40 42 43 44 45 47 48 48 48 48 48 47 48 48 47 46 47 48 48 47 47 47 47 48 48 47 47 46 47 46
14 17 19 19 22 24 27 29 30 32 33 34 37 39 41 42 44 46 47 48 49 49 48 47 47 47 46 47 47 46 46 47 47 46 45 45 44 45 46 45 44 44 45 45
7 10 13 16 17 20 22 25 27 29 32 35 38 39 40 40 41 42 43 44 46 46 46 46 46 46 45 46 45 44 44 45 44 43 42 42 41 41 40 41 42 42 42 41
9 13 15 17 19 21 23 24 26 28 30 33 37 41 44 46 48 48 48 48 48 48 47 47 46 46 46 45 44 43 42 43 41 41 41 41 39 38 38 39 39 39 38 38
14 16 16 19 21 23 27 28 29 31 33 34 37 39 41 47 50 50 49 49 51 51 51 53 53 50 48 46 46 46 44 43 42 40 39 40 39 39 36 36 38 38 38 39
17 19 22 24 27 29 31 33 35 37 39 41 43 44 49 49 47 46 46 45 44 45 45 45 47 51 53 50 46 46 47 46 45 43 40 38 37 38 38 37 36 36 35 37
20 22 25 27 30 33 36 38 41 42 45 47 49 54 55 52 50 49 48 48 47 45 45 45 44 42 45 48 47 44 43 43 43 44 43 40 38 38 37 38 36 36 35 32
25 27 30 33 35 36 37 38 40 42 46 49 53 60 61 60 58 56 53 52 51 49 46 45 44 42 42 44 42 42 42 41 40 40 40 39 40 40 38 37 36 35 36 33
29 32 35 38 41 41 41 42 43 44 47 50 54 57 60 61 61 65 68 66 59 56 57 54 49 46 44 43 41 43 40 41 42 42 42 39 38 38 39 38 37 36 36 32
34 37 41 44 45 45 45 45 44 45 48 51 54 58 64 69 70 71 73 75 76 75 62 61 61 58 53 48 44 41 43 41 39 41 43 42 41 39 38 37 37 36 36 34
38 43 46 48 48 48 48 47 48 49 52 57 61 68 70 68 60 55 57 60 62 63 70 67 62 61 60 54 50 43 38 38 45 42 39 40 41 42 40 39 37 36 36 36
43 48 50 52 51 49 49 51 53 56 59 63 65 59 51 48 52 55 57 60 62 64 64 66 62 60 61 58 57 53 48 43 39 40 43 42 40 41 40 39 37 34 35 36
48 51 53 55 57 56 55 56 60 66 64 60 52 45 44 49 52 52 53 50 50 49 47 48 48 52 57 61 57 56 52 48 43 39 37 39 44 44 42 41 42 39 36 36
53 55 57 60 61 63 62 68 70 63 56 48 42 42 46 47 49 49 46 42 38 36 31 30 33 37 43 56 59 55 54 50 46 41 39 37 34 39 42 44 42 40 39 36
56 58 62 66 67 66 73 71 63 51 41 39 41 46 47 43 47 45 38 31 31 29 30 28 24 30 38 48 55 56 54 52 48 43 39 37 38 32 34 39 41 42 39 37
61 63 69 72 71 73 71 61 48 40 38 41 45 46 43 42 44 39 31 30 26 26 26 22 19 22 37 48 53 56 54 51 49 45 41 38 36 33 31 36 39 41 42 40
64 69 74 73 75 72 58 45 40 41 42 41 43 42 43 45 43 34 23 25 24 24 22 18 19 20 20 34 47 54 54 51 48 43 41 38 36 33 32 33 38 40 41 40
69 75 74 77 73 61 45 41 41 40 42 43 45 45 44 45 38 30 24 21 20 22 19 19 13 15 16 14 19 43 53 51 47 42 38 36 33 32 32 34 37 40 37 35
74 77 78 74 64 50 44 42 42 43 46 47 48 47 45 46 37 22 20 19 18 17 15 18 19 15 11 12 14 18 41 50 45 40 36 34 34 32 30 27 27 26 29 30
77 79 75 66 55 48 47 49 50 51 51 49 47 45 43 43 33 17 14 13 15 15 18 21 19 19 19 19 20 20 24 43 44 38 32 35 32 30 31 29 28 28 29 28
77 78 70 59 52 53 56 57 58 57 54 47 40 39 38 38 24 14 12 11 14 16 20 21 14 12 11 12 17 22 22 29 45 41 35 31 30 36 32 30 30 29 26 31

GFSNGP_500_spd_078.txt.gz
Wind_Speed
12 12 12 10 7 3 1 4 5 6 13 18 23 24 23 24 25 31 39 43 45 46 47 47 48 49 50 51 51 49 47 46 46 46 45 44 43 44 43 42 42 43 44 45
8 8 8 8 6 2 1 3 4 7 10 14 16 20 22 25 28 32 34 38 44 46 48 50 51 53 56 57 58 57 55 54 52 49 49 48 47 46 45 45 44 44 44 45
5 4 4 7 4 5 5 6 8 9 13 16 18 21 24 26 29 32 34 36 39 42 46 49 51 51 49 50 51 52 52 51 49 50 49 48 47 47 46 45 45 43 42 42
9 8 10 11 11 11 11 12 13 13 15 16 18 22 26 30 34 36 38 40 41 42 45 49 51 52 52 51 50 51 51 50 49 48 48 48 47 47 47 46 44 43 43 44
16 17 18 19 17 14 15 17 19 21 22 23 25 27 29 32 33 35 37 38 40 43 44 45 46 50 50 50 50 49 49 50 49 47 47 47 48 48 47 44 43 43 43 45
20 21 19 18 19 19 20 21 25 27 28 29 32 34 37 39 41 43 45 45 46 47 47 47 48 49 50 52 53 52 51 50 50 50 51 48 48 47 47 46 46 47 47 49
18 19 19 20 19 21 21 21 26 29 31 32 34 36 38 41 44 47 49 50 52 52 53 53 53 52 51 52 53 52 53 53 54 55 52 50 48 48 49 50 50 48 48 49
10 12 14 14 16 17 20 22 24 27 30 32 34 37 38 41 44 47 49 51 54 55 56 55 55 55 55 54 54 54 53 52 52 52 53 52 52 51 50 50 49 49 49 49
10 12 14 15 17 20 22 24 25 28 29 31 33 35 38 40 42 45 48 51 52 52 51 54 55 53 52 51 51 51 52 52 50 50 51 51 51 50 49 48 47 46 47 46
12 15 16 18 21 22 24 27 31 34 37 38 37 37 38 40 43 47 51 54 56 56 53 55 56 57 57 54 51 50 50 50 49 48 49 49 49 49 47 46 45 45 44 43
15 17 19 21 24 26 28 30 33 36 39 42 45 48 47 49 53 56 57 57 56 53 48 49 51 53 56 58 57 58 54 51 50 50 48 48 47 47 47 46 44 44 43 42
19 21 22 23 25 28 31 33 35 38 40 42 44 48 50 53 57 64 65 61 57 53 51 50 51 51 53 53 51 51 53 57 54 51 50 49 48 46 45 45 44 44 42 40
21 23 25 27 29 32 37 39 41 41 42 43 44 46 48 54 65 71 66 64 62 59 54 55 54 53 54 53 52 51 48 49 49 53 50 49 49 48 46 44 42 41 40 40
24 26 29 31 34 38 43 46 47 46 47 47 48 51 54 62 67 69 69 68 67 67 68 64 59 58 60 55 53 52 50 48 47 48 50 49 47 46 45 45 43 41 40 40
28 31 33 36 40 44 48 51 50 51 52 52 52 54 60 64 65 68 70 72 73 75 76 77 76 68 62 61 61 55 53 49 47 44 49 48 47 45 42 43 45 44 42 40
33 35 38 40 45 49 52 55 54 55 54 55 58 61 65 69 71 72 70 65 60 54 54 53 55 58 61 55 59 63 61 56 49 46 45 50 47 47 45 45 43 42 43 42
37 39 41 46 50 53 55 57 58 59 62 64 64 67 69 68 61 52 47 46 48 51 54 56 57 57 56 59 60 55 64 63 57 49 46 47 49 46 46 46 44 40 39 40
40 42 46 51 55 57 60 62 64 66 67 66 64 59 53 47 43 41 43 47 52 53 53 55 55 53 51 49 52 56 60 65 65 57 50 46 47 46 45 47 44 46 40 38
43 46 51 56 59 61 66 69 68 69 68 60 50 43 40 38 40 42 46 49 50 48 51 51 47 43 40 39 41 44 54 63 62 61 54 47 41 45 45 43 43 41 39 38
46 51 57 60 63 69 72 72 69 67 56 47 42 40 39 39 40 42 44 45 50 51 49 40 37 32 35 35 32 39 49 58 60 60 58 51 45 42 40 42 42 40 39 40
50 56 60 63 69 74 74 71 69 57 47 44 42 42 41 41 43 43 45 45 49 50 40 33 32 30 32 25 26 33 46 54 60 58 59 57 50 43 41 41 40 41 42 40
55 59 63 68 74 76 72 69 61 50 45 45 46 48 49 48 49 46 46 49 46 44 30 27 29 29 25 24 28 27 37 49 58 57 57 57 53 48 42 39 35 35 37 40
58 62 66 72 79 77 71 63 54 50 50 52 54 55 56 54 52 48 42 45 44 37 26 25 26 23 22 23 26 24 22 36 54 56 54 55 53 49 43 40 36 32 30 33
60 65 70 77 82 76 69 58 54 56 58 58 58 59 58 53 47 45 40 38 38 26 22 22 21 19 22 26 26 22 15 20 45 56 53 55 52 48 43 37 33 32 29 27
63 68 74 81 80 74 64 56 56 58 60 61 59 56 53 49 40 33 34 35 27 16 18 19 19 23 25 24 19 12 14 17 33 54 52 52 51 46 41 37 35 33 31 30
67 72 77 82 78 70 60 57 58 60 63 63 55 49 43 39 34 30 31 25 15 14 15 16 23 29 21 17 17 14 12 14 23 48 51 45 45 44 41 38 36 33 31 30
69 75 80 77 73 64 59 59 61 65 66 63 51 42 36 31 27 27 23 11 10 9 13 18 24 18 9 6 9 12 11 14 19 40 49 43 43 41 39 36 32 28 26 24

GFSNGP_500_spd_081.txt.gz
Wind_Speed
17 16 15 14 12 11 10 9 8 7 9 10 11 14 16 17 20 23 25 27 30 33 34 33 34 37 40 43 44 45 46 47 48 49 50 50 49 50 49 49 46 44 45 45
16 15 15 13 13 11 7 4 4 6 9 12 15 18 21 23 26 28 30 33 36 39 42 46 48 49 51 54 54 54 55 56 55 54 54 55 55 54 53 50 48 47 47 46
10 9 7 6 4 6 9 6 4 6 9 12 15 19 21 23 25 29 32 35 39 42 46 49 53 54 55 56 57 58 59 57 58 61 61 59 59 57 55 54 53 51 51 48
5 4 5 8 9 11 12 9 11 13 13 14 16 20 22 24 27 30 33 36 39 42 45 47 49 51 52 54 55 56 56 56 55 54 53 54 53 53 52 51 50 50 49 49
11 12 12 13 15 14 12 13 14 17 20 22 24 25 26 29 32 34 36 39 41 43 45 47 49 51 53 55 56 56 56 56 56 56 55 53 51 50 49 49 49 50 48 48
10 9 8 10 14 16 16 16 18 21 23 26 29 31 35 38 41 42 44 46 48 51 53 53 53 53 54 55 55 55 56 55 57 58 56 55 54 52 49 49 48 49 49 48
6 8 9 11 12 13 14 16 18 21 24 28 31 33 36 39 43 45 47 50 53 56 58 60 61 60 59 58 58 57 56 56 56 57 57 58 55 50 49 49 48 49 50 49
7 9 11 12 14 15 18 20 21 23 26 27 30 32 34 37 39 42 46 49 52 56 60 61 62 63 61 60 57 56 57 57 56 58 55 53 54 54 54 53 53 51 50 49
11 13 14 15 18 19 21 22 23 25 28 29 31 36 40 43 48 50 52 52 54 56 58 61 61 60 58 56 56 55 53 52 53 52 52 54 54 52 53 53 52 52 51 49
14 16 18 20 21 22 24 25 27 28 30 32 35 38 41 44 48 53 56 58 64 67 63 62 60 59 58 57 52 53 58 57 55 53 51 51 50 52 53 51 50 49 48 47
17 18 20 22 23 25 27 29 31 33 35 38 41 43 44 45 47 51 56 64 69 64 62 61 59 55 53 51 49 48 54 54 54 55 55 54 51 51 51 51 49 48 48 48
17 20 22 24 27 29 31 33 36 38 41 44 46 46 45 49 56 60 68 71 69 69 68 65 61 59 56 53 53 53 53 55 54 52 50 51 54 53 50 51 51 49 47 47
19 22 24 27 30 32 34 37 40 43 46 48 48 50 56 58 61 67 69 69 70 70 70 69 67 66 64 61 55 53 57 58 55 54 53 50 49 49 54 51 52 50 47 45
24 26 28 31 33 36 38 41 45 49 50 52 56 60 62 62 65 67 68 69 70 71 72 73 73 72 72 68 60 55 56 56 60 57 54 52 50 48 48 54 50 50 48 46
27 29 32 34 37 39 43 47 51 52 55 60 63 63 65 65 66 67 69 68 65 62 59 56 52 51 53 54 55 52 46 47 52 59 58 54 51 49 47 50 52 50 48 47
31 34 35 38 40 43 48 52 54 57 62 65 66 67 70 70 65 58 52 48 46 44 43 42 42 45 47 50 51 52 51 49 47 52 59 59 54 50 49 48 52 48 46 42
35 36 39 41 44 48 53 56 59 63 67 68 67 70 66 59 49 44 44 44 44 44 44 45 45 45 46 46 46 47 50 52 52 50 60 60 59 53 49 50 50 51 47 44
37 39 41 44 48 53 56 60 65 69 70 67 68 63 53 46 43 43 44 45 45 46 48 48 47 46 48 50 50 47 43 43 46 50 56 63 61 58 51 50 49 52 52 52
38 41 44 48 53 56 60 65 71 73 71 68 62 51 45 45 46 48 49 49 49 51 50 51 50 49 49 50 43 36 33 35 37 43 52 63 62 60 57 50 50 50 53 55
41 44 47 53 58 61 65 71 74 74 68 64 55 49 49 52 54 55 55 54 53 55 52 50 50 48 47 39 33 30 32 27 29 36 48 59 63 61 58 51 49 49 51 50
44 47 52 57 61 65 70 75 78 71 66 59 54 54 55 56 58 58 56 54 52 54 50 47 44 43 36 30 29 28 24 22 27 28 37 53 59 60 59 53 45 48 48 47
46 50 55 61 65 69 75 79 76 70 63 55 56 59 61 62 62 57 55 53 47 44 42 37 37 34 25 25 28 23 24 27 30 20 25 45 54 57 58 53 46 45 47 45
49 53 59 63 67 72 77 79 75 69 60 58 60 64 67 66 58 50 42 40 36 32 30 31 29 20 21 25 22 22 28 31 27 18 19 37 52 55 54 51 46 38 37 38
52 57 62 66 71 77 79 79 72 65 60 61 65 68 68 60 46 40 36 29 26 26 28 21 14 17 20 22 25 28 27 24 16 15 19 32 50 52 52 52 47 39 35 33
54 60 64 69 74 79 81 78 68 61 59 63 68 69 62 54 44 33 27 24 24 25 13 9 14 16 20 25 32 25 15 16 12 13 20 30 47 49 51 51 45 41 35 33
57 62 67 72 77 80 82 77 65 60 60 63 69 63 55 48 39 26 19 22 20 8 7 12 16 20 25 21 18 14 11 10 9 14 22 30 45 46 47 47 44 40 35 32
59 65 70 75 79 81 78 69 61 60 60 66 65 55 48 41 28 16 14 11 4 5 10 15 19 21 16 13 10 7 8 8 5 16 24 30 43 43 44 42 41 37 32 29

GFSNGP_500_spd_084.txt.gz
Wind_Speed
21 23 22 22 16 13 11 9 7 9 9 9 10 10 10 10 11 15 19 20 21 24 26 30 35 39 41 42 43 44 45 46 46 48 50 51 50 48 47 47 46 45 45 46
20 23 20 17 14 12 6 3 4 4 8 12 15 17 18 21 23 25 27 28 29 32 34 36 38 39 41 45 48 51 51 52 53 52 51 51 50 50 52 52 52 53 51 51
11 10 9 5 5 4 5 1 3 5 7 8 10 13 15 18 22 27 31 34 38 41 42 42 44 47 51 52 53 54 55 57 60 64 64 62 60 59 60 59 59 57 55 55
4 1 4 3 4 7 8 8 7 11 11 11 13 15 17 20 24 27 31 34 38 42 45 47 48 49 50 51 54 56 57 59 60 61 64 66 66 63 59 58 58 59 61 60
6 7 6 7 8 8 7 7 10 12 14 18 20 22 24 27 29 32 35 38 42 44 47 49 51 53 55 56 57 57 56 57 58 59 59 60 60 60 59 58 56 53 53 54
4 3 4 6 8 9 10 9 11 13 16 18 20 23 26 29 32 36 39 44 47 50 54 58 60 63 64 64 63 62 61 60 59 57 56 56 56 55 55 55 56 56 53 51
5 6 5 6 8 10 11 13 15 15 17 19 23 26 28 31 34 38 42 45 48 51 54 57 57 60 63 66 68 68 67 65 63 60 59 58 56 54 54 57 55 55 52 53
8 9 10 11 13 13 15 18 19 21 22 25 28 30 33 36 38 42 46 49 53 58 62 65 66 66 65 63 62 63 62 61 60 58 56 55 57 55 54 53 54 54 55 50
11 12 14 15 17 19 20 22 24 26 27 29 31 32 35 38 42 46 50 54 58 62 65 70 74 73 68 67 64 60 60 58 57 57 57 56 54 52 51 51 53 54 51 51
13 14 16 17 19 20 22 24 26 28 29 31 34 37 40 43 47 51 54 57 60 63 70 75 72 71 72 71 65 60 56 55 58 57 55 57 55 54 53 50 49 49 50 52
13 14 17 19 21 22 24 26 28 31 33 35 38 43 45 49 50 53 60 65 69 73 75 73 72 72 72 70 67 62 57 52 50 52 53 54 57 56 53 54 51 52 49 51
15 17 19 22 24 26 27 30 32 34 36 39 45 48 50 52 56 63 67 71 74 74 72 71 71 71 71 71 68 66 62 58 53 50 55 57 57 56 55 52 51 54 53 51
17 19 22 25 27 29 30 33 34 37 41 46 50 52 56 60 66 68 72 74 74 72 71 69 67 65 65 65 66 68 68 62 56 53 52 56 60 59 54 53 48 51 53 54
22 24 26 28 30 32 34 36 38 42 48 51 54 59 64 68 68 71 74 75 71 64 58 52 48 47 47 46 46 46 48 50 50 48 49 51 57 60 59 54 51 51 45 51
25 27 29 31 33 36 37 40 44 49 53 57 61 66 70 69 72 73 69 63 55 48 45 44 44 45 45 45 43 41 41 43 45 45 43 54 52 56 58 57 53 50 47 43
27 29 31 33 36 38 41 45 50 54 58 62 67 72 70 73 71 63 55 50 46 44 46 48 48 49 48 46 46 44 42 43 42 43 45 46 56 58 56 56 53 52 51 49
29 31 34 36 38 41 45 50 55 58 62 68 72 71 72 70 62 52 51 51 50 51 52 54 54 53 53 51 50 48 46 46 47 49 47 45 49 57 64 58 55 53 50 49
31 33 36 39 41 44 50 55 60 63 68 73 75 72 70 63 54 50 52 53 54 55 56 59 58 55 54 53 52 51 51 51 49 49 43 41 44 50 59 64 61 54 51 49
32 35 39 41 44 48 54 59 63 68 73 77 77 72 66 57 54 55 57 59 62 61 57 58 55 52 50 48 47 45 44 43 43 37 33 35 35 45 53 59 63 59 53 50
34 38 41 43 47 52 57 62 68 73 79 79 76 70 59 56 59 61 65 66 62 59 53 49 48 47 45 42 42 38 37 35 29 30 28 26 30 34 52 58 59 62 55 50
35 39 42 46 51 56 61 67 73 78 82 79 74 65 60 60 63 68 69 61 52 48 43 39 36 33 33 31 30 31 27 24 26 24 26 26 29 30 43 57 55 61 57 50
37 41 45 49 54 59 65 71 77 82 83 78 71 64 62 64 70 70 62 54 43 39 34 29 26 24 25 26 22 20 20 22 21 24 28 29 29 26 35 51 53 58 56 49
39 43 47 52 57 62 69 74 81 85 83 75 66 62 64 70 71 62 50 44 35 29 25 22 23 22 15 12 15 18 19 22 24 28 28 25 24 24 29 43 50 55 51 46
40 44 49 54 59 65 72 78 84 83 76 68 63 64 69 69 61 54 44 33 19 17 21 19 10 9 14 17 19 21 25 30 32 22 21 17 19 25 30 42 48 52 46 42
42 46 51 56 62 68 74 80 84 80 70 62 61 66 70 63 52 42 30 18 15 16 9 9 12 16 20 22 25 25 20 14 11 13 12 12 19 27 33 43 46 47 41 36
43 49 53 58 64 70 76 82 84 75 63 59 62 67 65 54 43 30 20 15 13 13 15 18 20 21 22 19 18 17 13 7 8 9 7 11 24 30 36 42 44 42 37 30
44 50 56 61 67 73 78 81 77 66 58 57 60 64 58 45 31 21 18 17 19 20 21 22 21 18 17 16 12 9 6 5 4 3 6 21 29 31 38 41 41 38 35 31

GFSNGP_500_spd_087.txt.gz
Wind_Speed
12 11 9 9 7 6 6 5 4 4 4 4 3 3 4 4 5 7 10 11 16 20 23 27 31 34 35 38 39 40 43 43 45 46 48 47 47 47 47 49 49 48 46 45
17 15 16 15 14 10 6 5 5 3 3 4 6 6 9 10 13 14 14 16 20 23 26 29 33 35 37 40 42 45 46 49 51 51 51 50 49 48 48 49 52 52 51 49
9 8 6 4 7 5 3 6 8 5 6 7 8 11 14 17 20 23 25 27 28 29 31 34 38 41 43 46 49 51 54 54 56 57 58 58 57 56 55 54 54 55 55 55
1 2 3 4 5 6 7 8 8 9 10 10 10 11 12 14 16 19 23 28 32 34 38 42 45 45 46 47 49 52 55 59 62 64 65 67 66 66 65 65 65 63 64 63
2 5 2 3 3 3 5 6 7 8 9 10 11 12 15 17 19 22 26 29 33 38 43 47 50 53 54 57 60 61 62 62 62 62 64 65 66 67 67 66 64 63 62 59
4 5 6 6 7 8 8 7 9 10 12 13 16 18 18 22 24 26 30 33 36 40 46 51 56 60 63 64 66 67 66 66 66 66 67 68 65 63 64 63 61 59 58 57
8 10 9 10 11 13 13 14 16 18 19 21 22 24 26 29 31 35 38 41 45 49 54 58 61 66 68 73 76 80 79 75 66 65 65 61 62 65 65 64 63 61 59 56
10 11 12 13 14 15 17 19 20 21 23 25 27 29 31 33 36 37 40 43 46 51 55 60 65 68 73 77 80 84 85 73 66 62 61 62 61 59 60 60 61 59 59 56
10 12 12 14 16 17 19 20 22 23 26 28 29 31 33 36 38 42 46 49 53 57 62 67 72 76 77 83 86 81 81 79 75 65 61 54 50 56 57 57 56 56 56 55
11 12 13 15 17 19 20 22 24 26 28 31 34 35 36 40 44 48 53 55 60 63 67 74 80 84 87 87 86 84 82 79 76 70 61 54 49 49 54 55 55 56 56 54
13 14 16 17 19 21 23 25 27 29 32 34 35 37 40 45 50 55 58 62 67 72 78 82 85 85 84 82 80 77 75 73 71 68 64 57 50 47 49 53 55 55 54 55
14 15 17 20 22 24 26 29 31 33 35 37 38 42 47 51 56 61 65 69 74 79 82 83 81 78 72 68 64 61 60 61 62 64 64 62 57 52 50 52 57 57 55 53
18 19 21 22 24 26 29 31 33 35 38 40 44 48 52 57 62 67 71 76 80 82 81 75 67 60 54 50 46 43 41 41 42 44 47 50 53 52 51 57 58 61 57 55
21 22 24 25 28 30 32 34 36 38 40 44 49 54 59 63 68 73 75 78 81 77 68 61 54 51 51 47 45 45 44 43 42 41 40 41 43 43 50 57 61 61 61 57
23 25 27 29 31 33 35 37 38 41 44 49 55 59 65 70 75 75 78 79 74 63 57 54 53 53 54 53 53 52 50 48 46 44 42 40 41 42 43 48 62 63 62 59
26 28 30 31 33 35 38 39 41 44 49 54 59 65 71 78 77 77 77 71 62 56 55 56 56 58 60 59 59 58 56 53 51 49 46 44 42 41 44 42 49 66 65 60
28 31 32 35 36 38 40 42 44 48 53 59 65 71 77 80 78 76 71 63 59 59 58 60 63 65 66 64 61 59 56 53 52 51 49 48 47 47 46 45 45 55 63 63
31 34 34 36 38 41 43 45 48 53 58 64 70 76 81 82 79 71 65 62 63 65 69 71 68 63 59 56 54 52 50 48 47 47 46 45 45 45 46 45 44 47 54 59
34 36 36 38 40 42 44 48 52 57 63 69 75 80 83 80 74 67 65 67 73 75 69 63 56 51 47 44 43 43 42 41 40 40 40 39 37 38 39 41 39 46 52 53
34 36 37 38 41 44 47 51 56 61 67 73 79 83 81 76 70 67 71 76 75 67 57 48 42 38 36 34 34 33 32 32 32 31 31 30 30 31 31 27 28 42 50 52
34 35 37 40 43 46 50 54 59 64 71 77 83 82 76 71 68 71 75 73 63 55 44 36 29 28 26 25 24 25 25 26 26 24 23 22 26 26 25 25 26 33 48 52
33 35 37 41 44 47 52 57 62 68 74 79 83 79 71 67 69 74 73 61 48 37 28 23 22 23 24 23 20 18 17 17 18 19 20 20 21 24 28 30 29 31 42 50
33 35 38 42 45 49 54 59 65 71 77 81 80 74 66 67 69 70 57 44 34 28 25 23 20 17 16 18 19 20 21 21 23 24 25 27 29 30 29 27 25 27 37 47
33 35 38 42 46 50 55 61 67 73 78 80 76 69 63 66 69 60 39 29 28 27 26 26 25 25 25 26 27 27 26 26 25 25 26 22 20 21 19 17 18 27 34 43
33 36 39 43 46 51 57 63 69 74 77 77 70 61 60 62 63 42 29 31 32 33 33 33 31 30 28 26 24 23 22 20 18 14 12 15 16 16 10 13 25 33 39 40
33 36 39 43 47 52 58 64 70 74 77 72 63 58 58 59 57 34 30 33 35 35 35 32 28 27 26 24 22 20 19 15 11 11 14 15 7 6 13 25 32 35 36 37
33 36 39 42 47 53 59 65 71 74 72 66 57 54 54 54 53 33 28 33 36 37 34 30 28 28 25 22 20 17 14 11 9 11 5 4 8 16 28 33 35 37 36 34

GFSNGP_500_spd_090.txt.gz
Wind_Speed
9 10 12 12 13 12 12 12 9 7 6 6 7 8 7 7 7 8 6 7 8 9 11 15 17 20 23 26 28 32 33 35 38 41 43 43 44 44 44 43 44 45 44 44
14 12 10 10 9 8 9 8 9 8 7 7 6 6 3 1 4 6 6 9 10 13 17 20 23 25 28 29 34 36 38 42 44 45 48 50 50 50 50 50 50 48 46 45
5 4 6 8 8 8 8 8 7 7 9 10 10 10 11 12 12 12 12 13 15 17 19 22 24 28 30 34 35 38 39 42 45 49 53 57 59 60 60 57 55 54 53 52
4 5 7 8 7 8 9 9 8 7 6 5 7 9 12 11 13 15 15 16 19 22 24 28 30 34 37 42 45 49 49 51 51 54 55 57 57 59 62 66 65 62 62 60
7 6 7 8 9 11 11 12 14 14 15 15 16 18 19 22 24 26 29 32 34 36 37 40 42 45 48 50 52 57 60 61 63 65 66 66 66 65 65 66 68 68 65 65
10 10 10 9 10 11 11 13 13 14 14 15 16 16 18 22 24 26 28 30 34 38 43 48 51 53 56 59 63 67 70 73 77 79 79 78 74 71 67 67 68 70 68 66
8 8 8 9 12 13 13 11 15 16 17 18 20 21 22 24 26 28 31 33 36 39 42 46 50 56 60 63 66 70 74 80 83 86 88 88 88 85 77 64 61 63 65 65
10 11 11 12 13 13 15 16 17 18 19 21 23 24 26 28 29 32 35 38 41 45 50 54 58 62 65 71 76 80 84 86 91 92 90 86 83 81 77 70 65 58 58 63
11 12 12 13 14 15 16 18 19 21 22 23 24 26 29 31 33 35 39 43 47 50 54 59 65 70 75 78 83 88 89 93 95 93 91 89 86 80 70 62 58 53 51 54
11 11 12 14 14 15 16 17 20 23 25 27 28 29 33 36 38 40 43 48 52 56 60 66 74 79 82 87 91 93 94 91 87 82 77 74 72 70 65 60 54 51 52 54
12 12 14 15 16 16 17 19 22 25 27 29 31 34 37 40 43 46 50 54 58 63 69 75 80 82 88 91 92 89 81 69 60 58 57 56 57 58 57 55 52 50 54 58
16 16 17 19 19 21 22 24 26 28 30 33 35 38 42 45 48 52 56 61 67 73 77 82 84 87 86 82 75 66 57 52 49 47 44 42 41 43 48 51 53 53 55 57
19 20 20 21 23 24 26 28 31 33 35 38 40 43 46 49 53 58 63 69 75 80 84 85 86 79 69 64 60 55 52 51 48 47 45 42 40 38 36 39 41 51 56 58
21 22 23 24 26 28 29 31 34 36 39 42 45 47 51 55 59 64 70 75 80 85 85 82 74 65 61 60 58 56 56 55 54 51 49 46 44 42 40 37 36 38 45 56
24 25 25 28 29 31 33 35 37 40 42 45 49 51 54 59 65 71 76 80 85 84 80 73 67 63 64 63 62 61 61 61 61 59 56 52 48 45 43 41 39 37 35 45
26 27 28 30 32 33 35 38 40 43 46 48 52 54 59 65 70 76 81 82 83 80 74 72 73 74 73 70 69 66 64 63 62 59 55 51 49 47 46 45 44 41 37 37
28 29 30 32 34 35 36 39 42 45 48 51 54 58 63 69 75 80 82 81 80 76 77 81 78 71 64 59 56 53 51 49 48 48 46 44 44 44 44 45 45 45 43 40
30 30 31 34 35 36 37 40 44 47 50 53 57 62 67 73 78 81 81 78 76 76 78 72 64 57 50 45 41 38 37 36 37 38 38 38 39 40 40 40 42 44 45 46
32 32 33 34 36 37 38 41 46 49 51 55 59 64 70 75 80 82 80 76 75 74 63 54 47 41 34 30 28 28 29 29 29 30 31 32 34 35 35 34 35 37 39 41
32 33 35 35 36 37 39 42 47 49 52 57 61 67 72 77 80 78 74 73 72 56 44 41 39 36 33 30 27 27 27 26 25 24 24 24 25 25 27 29 30 31 33 36
34 35 36 36 36 37 39 43 47 49 53 58 63 69 74 77 78 75 68 70 58 44 43 43 41 38 34 30 26 24 24 23 21 19 18 19 19 20 19 21 25 26 22 22
35 36 39 37 36 37 39 44 47 50 54 59 65 70 75 74 71 69 68 64 50 42 44 45 44 41 38 35 33 31 30 29 27 26 24 22 21 20 19 19 19 21 22 24
36 38 39 35 36 37 40 44 47 50 54 60 66 71 74 72 65 62 64 58 46 44 46 48 43 38 35 34 32 31 29 27 26 25 24 25 26 25 25 27 27 25 24 24
40 37 35 33 35 37 40 44 47 50 55 61 66 69 69 64 62 63 59 55 43 44 47 46 39 37 37 36 33 30 27 25 24 22 21 18 12 11 16 18 20 22 20 17
36 34 34 33 34 37 40 43 47 51 56 62 65 68 66 60 56 59 53 52 40 43 46 42 38 38 38 36 31 28 25 24 21 16 14 14 16 17 16 15 12 11 13 23
34 33 33 32 33 37 40 43 46 51 57 61 64 66 61 56 54 55 51 51 37 40 44 40 38 37 36 35 31 26 24 22 20 19 18 17 11 6 1 6 12 18 28 34
33 32 32 30 32 36 39 42 46 51 56 60 63 62 56 53 52 51 48 50 34 37 41 38 37 36 34 33 30 26 23 21 21 17 11 8 7 12 19 25 30 33 32 33

GFSNGP_500_spd_093.txt.gz
Wind_Speed
9 9 10 9 11 11 12 10 11 9 11 12 13 11 9 7 4 3 3 3 4 6 7 11 13 13 15 15 19 21 23 25 26 30 33 34 34 36 36 37 38 39 40 42
6 7 9 11 10 11 11 9 9 8 9 7 6 7 6 5 4 2 3 5 7 9 11 13 15 18 20 22 24 24 26 27 28 31 32 35 37 39 43 46 47 49 48 48
4 6 8 8 7 8 8 11 14 9 8 8 9 9 8 5 5 3 5 6 5 7 9 11 14 17 20 23 27 30 33 35 38 40 42 44 46 49 49 49 49 49 52 55
7 6 8 8 8 9 11 13 15 15 13 11 10 7 8 8 7 7 10 13 15 17 20 22 24 28 31 33 36 38 42 44 47 50 53 55 56 57 60 61 60 60 60 58
7 7 9 10 11 11 11 13 14 15 15 14 14 15 15 14 15 17 19 21 23 25 27 29 31 33 37 40 42 44 49 52 53 56 60 66 65 67 70 71 70 70 69 67
8 8 9 9 10 10 11 10 11 12 13 15 15 14 16 19 21 23 25 28 29 31 33 36 39 43 47 51 53 54 60 60 64 69 72 73 76 80 81 82 81 80 77 74
7 8 8 9 9 9 9 10 11 13 15 17 18 18 18 20 23 25 27 29 32 35 37 40 44 50 55 58 60 66 71 74 80 85 86 88 91 96 96 93 91 85 84 81
8 9 8 9 9 10 11 13 14 16 17 18 20 21 22 24 27 29 31 34 37 40 42 46 50 54 59 63 67 71 76 83 89 92 96 98 97 95 94 92 90 86 84 80
10 10 11 11 12 12 13 14 16 19 20 21 21 23 25 28 31 33 35 38 41 45 47 52 56 61 64 69 76 81 86 91 96 100 98 97 95 90 86 81 76 73 70 68
11 11 12 13 14 14 14 15 18 20 22 23 23 25 27 30 33 36 39 42 46 49 54 58 63 68 74 78 84 91 96 100 100 96 89 79 70 64 60 59 58 59 59 59
14 15 15 15 16 16 16 18 19 21 23 25 26 29 31 34 37 40 44 47 50 55 59 64 70 76 82 88 94 98 99 91 81 74 67 60 55 51 50 50 49 48 50 53
17 18 19 19 19 20 20 21 22 24 26 28 29 32 35 39 42 45 49 52 57 60 66 71 77 83 89 93 96 92 83 74 69 66 62 57 53 50 48 46 44 42 41 44
21 21 22 23 23 24 25 26 26 27 28 31 33 36 39 42 47 50 53 58 61 66 72 77 83 88 90 91 87 83 80 76 72 69 67 62 56 52 48 47 44 42 40 39
25 24 25 25 26 28 29 30 31 32 33 33 36 40 43 47 51 54 58 62 66 71 76 83 88 88 86 85 85 84 80 75 72 69 68 65 60 55 52 48 44 44 43 39
27 28 27 28 29 30 31 33 34 35 36 37 38 41 45 50 54 57 61 66 70 76 82 87 88 85 80 72 66 63 60 57 54 54 54 55 55 54 53 51 49 45 45 45
30 30 30 30 32 32 33 35 37 38 38 40 41 44 48 53 57 60 65 70 75 80 86 87 84 75 59 52 56 54 49 45 42 40 40 41 43 45 46 46 46 46 46 48
33 33 32 32 32 35 35 36 38 39 40 42 45 47 51 56 60 64 69 74 77 83 84 82 74 56 52 55 54 50 45 39 35 32 31 31 31 32 35 37 39 41 44 48
34 34 34 34 34 35 37 38 39 40 41 44 47 49 53 58 62 65 71 75 79 83 82 75 63 52 53 55 51 46 42 36 31 29 27 26 26 27 28 30 32 34 38 42
34 34 35 35 36 37 38 38 39 40 42 44 48 50 55 59 63 67 72 76 80 79 74 66 55 50 55 54 49 45 41 37 33 29 27 26 24 23 22 23 25 28 31 34
35 35 35 36 38 39 39 39 41 41 42 44 48 52 56 60 64 68 73 76 77 75 69 60 49 51 54 50 46 44 41 38 35 32 29 26 22 20 20 20 20 20 24 28
36 37 37 39 39 39 40 41 44 41 42 44 47 51 55 60 64 68 71 73 72 66 66 54 48 52 50 47 47 45 39 36 33 31 29 28 27 23 20 18 16 15 16 18
38 37 38 42 40 40 40 43 42 39 41 43 47 51 55 60 64 68 70 70 67 63 59 47 49 51 49 48 46 42 36 33 31 28 26 25 23 23 23 20 16 13 12 12
41 41 44 45 45 45 44 42 39 38 39 42 46 51 55 59 62 63 64 64 61 61 52 45 50 49 49 48 45 40 35 31 30 27 26 23 21 19 18 20 21 20 18 17
40 45 49 48 48 45 40 42 39 37 38 41 45 50 54 59 62 62 62 60 59 60 47 44 48 48 49 46 42 39 33 29 27 26 24 22 19 15 15 14 13 14 17 19
49 48 48 47 47 41 42 42 38 35 37 40 45 49 53 57 57 59 56 55 57 55 40 42 44 47 47 42 40 37 33 30 28 26 25 22 18 16 14 12 11 11 11 12
45 46 47 50 44 40 41 41 36 34 36 40 45 49 53 56 56 56 52 53 55 50 35 38 41 44 43 41 38 34 30 28 26 24 22 19 15 12 8 7 7 9 12 18
45 47 48 46 38 40 40 39 33 31 36 41 45 49 52 54 53 52 48 50 52 45 30 32 35 38 40 39 37 35 33 31 28 23 20 19 20 23 24 26 27 28 30 32

GFSNGP_500_spd_096.txt.gz
Wind_Speed
7 8 9 9 7 6 6 5 5 7 8 9 8 10 10 7 7 7 7 6 4 2 2 4 4 5 7 9 12 15 17 19 19 21 24 26 28 30 34 36 37 39 39 40
10 12 13 12 8 6 5 5 3 2 3 3 3 3 4 4 4 5 5 6 6 6 5 5 7 7 8 9 11 12 16 19 21 25 27 29 30 32 34 36 35 37 38 41
8 8 8 6 10 11 9 8 9 9 7 7 5 4 4 3 1 1 1 2 0 1 4 7 9 11 14 16 19 22 25 27 31 33 36 38 41 45 48 48 47 48 49 50
7 7 8 7 7 6 9 10 9 9 10 10 8 6 5 4 2 2 3 4 7 9 11 13 16 19 21 24 26 30 33 36 38 42 46 51 54 54 56 60 62 63 63 62
7 6 7 7 8 7 5 6 6 6 6 5 4 4 4 5 7 8 10 12 13 15 17 19 22 24 27 28 31 35 39 42 45 49 54 59 62 64 67 69 71 71 72 73
9 9 8 10 10 10 10 10 11 10 10 10 11 11 11 12 12 13 15 15 17 18 20 23 26 29 32 36 41 44 47 50 56 61 65 69 73 75 79 81 83 85 84 82
8 8 7 8 7 6 7 7 8 9 10 10 11 11 11 12 15 17 19 22 24 26 28 32 36 37 39 42 48 52 57 62 66 69 74 80 84 89 93 95 98 100 100 102
8 8 7 7 7 7 7 8 9 10 11 13 14 15 15 16 18 20 22 24 27 29 32 36 39 41 45 49 54 58 63 69 75 81 84 89 95 100 105 109 110 106 102 98
11 10 11 11 10 11 11 11 12 14 15 17 18 19 20 21 23 25 27 30 32 35 38 42 43 46 49 55 60 64 70 77 82 87 96 105 110 110 103 93 89 86 80 76
16 16 15 15 15 15 16 16 17 19 20 20 21 23 24 25 27 29 31 34 37 40 43 47 50 54 58 63 68 73 78 83 91 100 104 104 101 96 90 78 70 62 56 54
19 21 19 20 20 20 20 21 21 22 23 25 27 28 29 30 31 34 36 39 42 46 49 52 56 61 66 71 75 80 86 94 98 98 95 87 81 78 77 74 70 61 52 49
22 25 24 26 25 25 25 26 26 27 28 29 30 32 34 36 38 40 41 44 47 51 55 59 63 67 72 78 82 88 94 94 90 78 69 70 69 66 64 62 62 59 51 48
26 28 27 28 30 29 29 30 31 32 33 34 35 36 37 38 40 43 46 49 52 57 61 64 68 72 78 82 87 92 91 82 68 66 67 65 62 58 52 52 53 51 48 47
30 34 32 33 32 32 33 33 33 35 36 37 38 40 41 41 42 44 48 51 55 60 65 68 72 77 81 86 90 87 77 63 63 66 64 62 57 49 45 44 45 45 47 46
39 37 37 37 36 35 36 36 37 37 38 39 40 41 42 43 44 47 50 54 58 63 67 71 75 80 84 88 86 75 60 60 64 63 61 57 49 42 39 38 39 40 44 47
43 42 40 41 40 39 37 38 39 39 40 41 42 42 43 44 47 49 52 56 60 65 69 73 78 80 85 85 75 61 60 63 61 58 54 49 43 39 35 33 33 34 38 44
41 41 42 41 42 42 41 41 41 41 41 42 43 44 45 45 47 50 53 57 62 66 70 74 77 81 83 77 62 59 61 58 56 54 50 45 40 36 33 31 29 30 32 37
38 40 40 41 43 43 43 43 42 42 41 44 46 46 47 46 47 50 54 58 63 67 71 75 77 80 78 66 60 61 60 56 53 49 45 41 38 35 32 28 27 24 25 28
34 36 37 40 41 41 42 43 42 42 43 48 46 46 50 47 47 50 54 58 63 67 72 74 75 76 68 59 60 61 58 54 50 44 41 38 36 34 31 29 25 23 21 22
35 34 36 37 40 41 42 43 43 45 47 48 49 51 51 45 46 50 54 58 63 67 71 73 73 71 60 58 60 59 56 52 47 42 39 36 33 31 29 27 26 22 20 19
35 36 38 39 40 42 44 45 46 52 52 50 52 52 48 43 45 50 54 59 63 67 70 72 71 63 54 56 57 56 53 49 44 39 36 34 31 29 27 25 24 21 19 15
37 39 41 43 43 44 47 50 53 55 52 50 47 47 43 41 45 49 53 59 63 66 67 67 66 54 50 53 55 54 50 46 42 37 34 31 29 26 24 23 21 17 13 10
36 42 46 47 47 49 51 51 51 52 48 44 44 43 40 40 43 49 55 59 62 64 64 63 59 47 47 50 52 51 47 44 40 36 33 30 28 26 22 18 13 11 14 11
40 38 41 47 51 52 51 48 51 50 42 40 42 41 37 39 44 48 53 58 61 63 61 59 49 41 44 47 49 47 44 41 39 36 33 30 26 22 18 17 17 15 13 13
35 39 41 43 47 49 51 50 47 41 40 38 39 40 35 38 43 48 53 56 59 60 56 55 42 35 39 43 43 42 41 40 37 34 32 29 25 21 16 12 7 5 8 8
34 36 40 41 43 47 49 45 43 39 38 37 36 36 36 37 42 48 52 54 57 56 52 49 34 31 35 37 37 38 37 35 33 32 32 31 30 28 25 22 19 16 14 13
34 35 41 42 39 43 44 39 42 41 37 37 36 33 35 37 42 48 50 53 55 52 50 44 27 25 29 31 32 32 29 27 25 27 31 32 31 31 30 31 33 35 35 34

GFSNGP_500_spd_099.txt.gz
Wind_Speed
10 11 10 6 5 5 4 5 6 6 7 8 9 9 10 11 11 11 10 10 9 7 6 4 2 2 3 5 7 7 10 11 12 14 17 19 20 23 26 29 30 33 36 39
14 11 10 8 4 2 5 6 8 9 7 7 5 3 4 4 6 6 6 5 4 3 3 2 3 3 3 3 5 7 10 12 14 17 21 21 24 27 31 31 33 37 39 42
8 6 4 5 2 4 3 1 1 1 1 4 3 4 4 4 5 5 4 3 3 3 3 4 4 5 7 9 11 14 17 19 23 26 29 31 33 35 38 39 42 47 50 52
9 7 6 4 1 1 2 2 2 2 3 2 2 2 2 2 1 1 1 2 3 4 5 6 8 10 13 16 19 21 23 26 29 34 37 40 43 46 50 54 58 60 62 64
9 9 6 6 4 2 1 2 1 2 3 4 4 4 3 3 3 3 5 6 8 9 9 11 12 15 17 21 24 27 30 34 37 42 46 49 52 55 60 63 68 72 75 77
11 10 8 7 7 5 4 3 3 2 2 3 3 4 4 4 5 6 8 10 12 13 14 16 18 21 25 28 30 32 35 39 44 48 52 55 58 62 68 73 77 83 87 91
14 12 11 11 10 9 8 9 7 7 7 8 8 8 9 9 10 11 12 13 16 18 20 22 24 28 31 35 37 39 42 46 50 54 58 62 66 72 78 82 88 94 98 103
16 16 16 14 14 13 12 13 13 12 12 12 12 12 12 13 15 16 18 20 22 25 28 29 31 34 37 41 43 46 48 53 56 61 65 70 75 82 88 92 97 105 112 116
22 20 20 19 19 18 18 18 17 17 17 18 19 19 20 21 23 24 26 28 30 32 35 37 38 40 43 46 49 52 55 58 63 67 73 80 84 90 98 106 111 112 109 99
27 25 25 24 23 23 23 23 23 24 24 25 26 27 28 29 31 32 34 35 37 39 41 43 45 47 50 52 55 57 60 65 70 76 81 86 95 102 106 101 91 84 81 78
30 29 33 27 27 29 27 28 28 27 27 29 31 32 33 34 36 37 39 41 42 44 46 47 49 52 55 58 59 62 68 73 78 82 88 96 100 95 85 77 76 75 74 73
37 35 36 34 34 34 34 34 33 33 33 33 33 34 37 38 40 41 43 45 46 48 49 51 53 56 59 62 62 67 74 79 84 89 96 95 83 74 75 76 74 69 64 58
44 37 37 38 38 40 39 38 37 38 38 38 38 39 40 41 43 44 46 47 49 50 52 54 56 59 61 63 67 74 78 83 90 95 88 77 74 75 71 67 64 58 53 50
37 46 41 38 40 42 42 41 41 42 42 42 43 43 44 44 44 46 48 50 51 52 54 56 58 61 62 66 72 77 82 88 92 86 76 74 75 71 66 60 52 49 49 44
30 35 41 41 40 42 43 44 45 45 45 45 45 45 45 46 47 48 52 53 54 54 56 58 60 61 63 69 75 80 86 90 85 73 74 75 71 65 60 52 47 42 41 39
30 33 36 39 40 41 43 44 44 45 45 45 45 46 46 47 48 49 55 54 56 59 59 59 59 60 65 72 77 83 87 84 74 72 74 70 65 60 52 47 43 39 37 35
32 31 34 38 37 38 39 39 41 43 43 44 45 45 46 48 49 52 55 59 59 59 56 57 58 62 68 73 79 83 83 73 71 73 71 65 60 53 46 41 39 36 34 33
36 34 34 34 34 37 38 38 40 41 43 44 45 46 47 48 49 54 59 59 57 55 54 55 59 64 69 74 78 81 72 68 71 72 67 60 55 48 42 40 38 34 31 30
35 36 35 35 31 34 37 39 40 42 43 46 47 47 48 50 57 58 57 54 52 52 53 56 60 65 69 74 76 72 64 68 70 67 61 57 50 45 40 38 35 32 30 28
38 35 35 35 33 32 34 37 40 42 45 48 49 50 53 59 59 54 50 50 50 48 52 55 61 64 69 71 69 61 63 67 65 62 58 54 48 41 37 34 31 29 26 25
43 39 36 34 35 38 41 43 45 47 47 47 51 56 60 56 51 47 45 46 46 48 50 56 60 63 65 66 58 56 61 61 60 58 55 51 44 39 35 32 28 25 22 19
43 42 39 35 35 37 37 41 46 50 55 57 57 56 51 48 46 45 42 41 45 46 51 56 59 60 61 57 50 55 56 56 55 54 51 47 42 34 30 28 20 17 17 10
43 41 38 37 35 35 38 39 40 43 45 49 50 48 44 43 44 45 43 41 43 45 51 54 55 54 56 47 47 50 50 50 49 49 46 44 42 36 30 24 18 13 11 8
41 42 39 38 36 35 36 37 36 37 38 40 39 39 40 42 42 41 42 40 41 46 49 52 50 50 48 38 42 42 44 44 43 43 43 43 42 38 33 26 20 12 9 8
39 41 39 39 40 39 39 38 35 35 35 36 37 38 42 44 42 43 44 39 43 48 49 50 45 46 38 33 35 36 36 37 36 37 39 39 38 36 33 29 24 18 11 4
40 42 41 40 43 43 44 42 37 34 34 37 35 37 43 42 39 41 40 37 45 47 48 44 42 42 29 28 27 26 27 28 29 33 36 36 34 33 35 37 37 35 30 25
44 44 46 45 47 47 43 43 41 42 39 36 35 37 39 39 38 39 37 37 45 46 47 40 39 36 22 22 19 18 18 19 22 27 30 32 33 35 37 40 42 39 38 37

GFSNGP_500_spd_102.txt.gz
Wind_Speed
15 12 10 10 11 14 14 16 17 16 14 13 12 12 11 8 7 7 8 9 8 6 6 6 5 4 5 2 5 8 8 9 13 14 15 16 17 17 21 23 26 27 30 32
12 12 11 11 12 10 10 15 17 17 17 16 13 12 12 9 6 6 5 5 4 4 4 3 4 5 5 6 8 9 9 11 13 14 14 16 18 21 24 26 28 32 34 36
7 6 6 8 8 10 10 10 9 9 11 10 10 10 9 9 9 8 7 6 5 3 1 2 3 4 5 6 7 9 12 15 18 19 22 25 26 28 31 34 37 41 44 46
9 8 8 7 7 7 8 8 9 9 10 11 11 10 10 9 8 7 7 7 7 6 6 6 7 8 9 10 13 15 19 22 25 27 30 32 35 38 41 43 47 50 53 56
12 10 10 10 10 10 10 10 9 10 9 11 12 11 10 9 10 10 10 10 10 10 11 12 13 15 17 18 20 23 26 29 31 33 36 39 42 45 47 50 54 58 61 64
17 16 14 13 12 13 12 14 13 13 12 11 11 12 14 13 13 13 14 14 15 15 15 17 18 20 22 23 25 28 31 34 37 40 43 46 49 52 56 58 61 64 67 71
19 18 15 19 19 18 17 16 17 16 17 16 15 15 15 17 17 18 19 20 21 21 22 23 25 27 29 31 33 36 38 42 45 49 52 54 57 61 63 66 67 70 74 79
27 26 23 22 22 21 21 21 20 20 21 22 22 22 22 23 22 23 24 25 27 29 31 32 34 36 39 41 42 45 47 49 52 55 59 61 63 67 69 73 75 79 84 89
34 32 34 32 27 27 26 25 25 26 26 27 27 27 28 28 28 29 30 31 33 35 38 40 42 43 45 47 49 51 54 57 61 65 65 66 68 70 74 77 82 88 93 99
41 38 38 41 36 34 32 29 30 30 30 31 31 32 33 33 33 34 34 36 38 40 41 43 45 47 49 51 54 57 59 62 65 67 67 69 71 75 79 85 90 96 103 108
39 39 42 41 43 40 40 36 35 35 34 35 35 36 36 37 38 38 39 40 40 41 43 45 48 51 53 55 58 60 62 63 65 66 68 71 76 82 87 93 98 102 97 95
33 31 38 40 40 41 39 41 41 41 40 39 38 39 40 41 41 42 42 43 45 46 47 48 50 54 57 59 60 61 62 63 64 67 70 75 80 86 93 96 93 90 89 84
44 37 31 35 43 43 43 42 40 41 42 44 44 44 43 44 44 45 46 47 48 48 48 48 52 57 60 62 61 60 60 61 65 69 73 79 85 89 92 84 84 81 77 71
39 40 35 34 37 43 44 44 46 42 42 42 44 46 46 47 47 48 48 49 50 49 50 51 56 60 63 61 59 59 61 63 65 71 77 83 87 87 85 83 77 68 65 60
36 38 39 38 35 37 42 44 45 48 46 43 44 46 47 47 47 47 48 50 51 50 49 53 60 64 63 58 57 59 61 64 69 74 79 83 83 82 81 76 69 62 54 45
33 35 37 38 39 36 38 40 44 44 44 44 42 43 45 46 46 47 48 49 50 51 52 62 64 62 59 56 57 59 63 68 72 75 77 77 78 77 75 69 62 54 45 40
29 32 34 37 38 38 34 39 41 43 40 38 38 39 42 44 45 45 47 49 54 59 63 62 59 56 54 56 57 60 65 69 71 72 72 74 74 74 69 63 56 48 40 37
30 31 33 36 41 40 38 36 37 37 38 40 40 42 44 46 48 50 50 54 59 62 59 55 54 52 53 55 56 60 65 66 65 66 69 69 70 68 63 58 50 44 36 33
34 32 34 36 39 41 41 39 34 35 36 38 41 43 45 50 54 51 50 56 59 53 51 51 51 52 52 54 57 63 62 59 59 62 64 65 64 61 58 54 46 39 34 28
36 35 34 37 39 41 42 42 37 34 37 36 37 39 40 45 49 50 52 48 45 46 46 48 50 51 51 54 59 58 55 53 54 56 57 58 58 57 56 52 44 35 30 21
40 38 36 36 38 39 40 41 40 35 36 40 42 45 41 39 40 40 38 39 41 41 43 46 48 49 50 55 53 52 46 46 47 49 52 54 54 54 53 49 42 34 22 18
41 42 40 38 38 40 40 39 38 38 37 39 42 41 39 37 35 33 36 41 41 40 42 43 45 46 50 51 48 42 40 38 40 44 48 51 50 49 49 46 39 31 17 13
42 43 42 42 40 41 42 42 41 38 39 42 41 41 39 38 39 37 38 41 40 37 38 41 42 44 49 46 43 35 34 33 35 38 43 47 46 45 45 44 38 29 19 9
43 45 45 43 42 43 42 44 45 45 42 42 42 42 41 39 37 36 40 41 37 36 38 39 39 44 45 41 36 31 28 27 30 32 37 41 43 45 44 43 41 34 25 16
45 46 47 47 45 45 45 45 46 48 48 43 42 43 40 38 37 36 38 38 35 35 37 37 38 44 41 38 31 27 22 21 24 26 30 33 36 40 44 43 40 38 34 26
48 48 48 48 47 48 48 47 48 51 50 46 45 47 48 38 35 35 36 36 35 37 36 35 39 41 38 35 26 22 16 15 19 23 26 29 30 33 35 38 40 38 35 33
50 50 51 48 48 49 49 49 49 51 51 49 46 46 39 33 31 29 32 33 33 35 33 35 38 38 36 32 22 17 12 11 14 18 22 24 25 28 26 26 30 33 35 37

GFSNGP_500_spd_105.txt.gz
Wind_Speed
16 11 10 12 14 12 14 21 22 22 22 22 20 17 15 16 14 13 13 12 12 10 9 7 6 3 1 3 6 10 13 9 5 9 11 10 11 16 16 21 24 24 23 28
13 15 14 14 15 16 15 15 14 15 16 16 16 15 15 14 13 11 9 9 9 8 6 5 4 5 6 6 7 9 11 12 13 15 16 18 20 21 23 23 24 26 28 31
8 11 12 14 15 15 16 15 16 16 17 17 17 16 15 15 15 13 10 8 7 7 8 9 9 9 9 9 10 11 13 14 15 17 18 20 23 25 27 29 31 34 36 37
12 13 11 13 14 15 16 17 15 16 15 16 17 16 16 16 15 15 14 12 11 10 10 11 11 11 12 13 14 16 17 18 20 22 24 26 29 31 34 36 39 42 44 46
23 18 15 21 16 15 16 19 17 19 18 17 16 16 17 17 17 18 17 17 16 16 16 17 17 17 18 18 20 22 24 25 27 29 32 34 37 39 42 45 48 51 54 56
29 29 26 27 24 21 20 20 19 19 21 21 21 20 20 20 20 20 21 22 22 22 23 23 24 25 25 26 28 30 32 34 36 38 40 43 45 48 50 53 56 59 61 65
34 34 29 29 31 30 29 27 25 24 24 24 24 24 24 24 25 25 26 26 26 27 27 28 29 30 31 32 34 36 39 41 44 46 49 51 54 56 59 62 64 67 69 73
30 35 37 37 36 34 32 33 34 33 32 31 30 30 29 29 30 31 32 33 34 34 34 34 35 36 37 39 41 43 45 48 51 54 56 58 60 63 66 68 69 71 74 75
29 23 29 34 36 36 33 31 32 32 35 37 38 38 36 36 36 37 37 37 37 38 39 40 40 41 42 43 45 46 47 49 52 56 59 61 63 65 67 70 72 74 75 76
29 26 30 25 30 36 36 34 33 34 35 36 38 42 44 43 42 42 42 41 41 40 41 43 44 44 45 45 47 49 52 55 58 62 65 66 68 69 69 70 71 72 75 78
28 30 31 33 32 27 33 37 37 36 37 39 40 40 42 46 47 47 46 46 45 45 45 46 46 46 46 46 48 51 54 58 64 68 69 66 66 66 67 70 72 75 79 83
29 30 29 30 31 32 29 27 32 36 38 40 42 42 44 45 47 50 51 49 48 47 47 47 48 47 47 49 50 53 58 63 68 69 66 64 64 66 70 72 76 81 86 89
30 31 31 29 30 30 30 30 28 29 35 38 39 40 42 45 48 48 49 51 50 49 49 48 48 48 50 51 53 57 65 69 64 63 62 62 64 66 68 74 78 81 83 84
30 32 31 28 26 27 28 28 27 27 28 31 35 38 40 40 41 45 47 48 48 48 47 48 49 49 50 53 60 66 64 61 60 61 61 63 66 69 72 75 76 75 77 78
31 32 30 30 28 27 24 26 26 25 25 26 29 34 37 38 40 41 42 44 44 44 46 48 52 57 59 60 61 57 55 56 58 60 60 64 67 69 70 71 72 74 74 70
31 33 35 32 27 29 29 31 29 29 27 27 27 30 34 34 35 39 41 43 45 49 53 56 55 56 57 57 53 52 53 55 57 58 60 62 62 63 65 67 71 72 68 61
32 34 35 37 35 34 33 33 34 33 33 33 32 31 33 37 39 41 43 46 47 51 55 52 54 58 53 49 46 47 50 53 54 56 57 57 56 59 63 66 67 66 61 55
34 34 35 37 37 36 36 37 38 38 38 38 37 36 35 38 40 41 42 43 43 43 48 48 49 48 47 44 42 44 48 48 51 51 48 48 52 58 61 64 62 59 55 47
36 36 37 38 39 39 38 38 38 38 38 39 39 40 40 39 40 42 44 46 46 47 42 39 43 44 40 39 41 43 43 46 47 43 41 45 51 55 58 58 57 55 48 39
39 37 38 39 40 41 41 40 40 40 39 40 42 44 45 45 45 45 46 41 41 40 39 42 43 40 37 39 41 41 43 44 40 38 39 43 47 51 53 54 54 51 42 29
39 40 40 41 41 42 43 42 40 42 42 42 43 45 47 49 49 49 45 43 41 37 40 41 39 37 37 39 37 40 40 38 34 33 35 38 41 45 49 53 53 51 40 24
40 41 42 43 42 41 43 43 40 41 43 43 45 47 49 50 50 50 48 43 40 37 38 39 37 37 38 35 36 38 37 32 29 29 31 33 35 39 47 53 53 50 43 28
42 43 44 44 46 45 43 44 43 42 44 44 45 48 50 51 50 50 52 46 39 39 36 37 36 36 36 35 37 35 34 26 23 24 26 29 31 35 40 47 52 49 46 35
43 45 45 47 48 49 48 44 42 43 45 45 45 48 51 52 51 51 51 43 36 36 33 34 34 36 34 35 36 33 28 21 18 19 22 25 29 31 35 42 47 49 45 40
43 45 46 47 47 48 50 46 43 45 45 45 45 48 51 51 46 45 36 28 28 29 32 32 33 35 33 36 35 31 25 17 15 16 20 23 25 27 33 38 42 41 41 38
41 44 46 48 48 48 48 46 44 46 46 44 46 49 50 49 42 38 35 31 28 29 32 30 32 35 33 37 34 30 23 16 14 15 19 20 20 22 27 34 37 38 35 33
45 46 48 48 50 48 47 45 44 46 44 44 46 48 50 49 41 37 37 36 33 33 32 29 31 33 33 37 33 27 20 13 13 14 16 15 16 17 20 26 32 32 31 29

GFSNGP_500_spd_108.txt.gz
Wind_Speed
21 19 16 17 17 17 15 15 14 15 16 16 16 16 16 18 18 17 17 19 19 18 17 15 15 13 11 10 6 5 10 14 14 15 13 12 11 12 13 15 18 20 22 25
13 19 20 20 20 19 19 21 20 20 20 19 18 18 18 18 18 18 18 17 16 17 16 16 16 15 15 14 13 12 12 12 13 16 15 18 18 20 22 22 27 30 30 32
11 15 16 18 19 21 22 21 22 22 22 21 21 20 20 19 18 19 19 18 17 16 15 16 16 17 16 17 17 17 18 18 19 20 21 22 24 26 27 29 31 33 35 37
15 15 15 18 21 21 23 23 23 24 23 25 23 24 23 22 21 20 19 19 19 19 18 18 18 19 20 21 21 22 23 23 24 25 26 28 29 30 32 33 35 37 40 42
29 25 20 21 22 23 19 24 24 24 25 25 26 27 27 26 26 25 24 23 23 23 23 23 23 23 23 24 25 26 27 28 29 30 32 34 36 38 40 42 44 47 49 51
23 23 21 27 28 23 27 26 22 22 22 23 26 27 30 30 31 31 32 32 31 29 29 29 29 29 30 31 32 33 35 36 37 38 39 41 43 45 47 49 52 55 57 60
24 24 19 22 24 29 30 30 27 27 24 23 25 28 29 31 32 34 35 36 38 38 38 38 38 38 38 38 39 39 39 39 40 41 43 45 47 48 49 51 53 57 61 65
27 29 30 26 26 23 21 24 28 29 30 29 30 31 32 33 34 34 35 38 41 43 44 44 44 43 42 41 42 42 43 46 46 47 48 49 52 54 57 59 63 66 68 71
27 26 30 29 28 27 25 22 21 24 31 32 33 36 37 38 38 38 37 38 40 42 45 47 49 49 49 48 50 49 49 49 50 52 53 55 57 59 61 65 68 71 73 74
26 27 27 29 29 29 27 25 26 24 24 29 33 36 35 36 37 38 41 43 44 44 45 47 48 49 50 53 53 53 55 56 55 55 56 58 60 63 67 70 74 76 76 74
28 29 29 30 29 30 30 30 29 27 26 26 27 31 35 35 33 33 35 37 40 43 45 47 49 50 50 50 49 50 52 53 53 54 56 61 66 70 72 72 71 71 71 72
29 29 31 31 30 30 31 31 31 29 29 28 27 26 27 29 31 35 35 36 39 42 43 44 46 48 49 49 50 51 51 51 54 58 64 67 66 63 65 64 65 67 70 72
30 31 30 31 33 32 31 30 28 29 30 29 29 27 23 24 25 27 31 36 40 43 45 46 47 47 48 48 50 54 57 58 57 59 62 59 57 56 56 60 64 65 67 69
33 31 31 30 30 32 30 29 28 30 30 27 27 27 29 30 28 30 31 35 40 42 44 45 46 47 52 54 54 56 57 57 59 57 53 51 52 53 54 57 58 56 61 67
37 33 32 31 32 32 33 31 31 33 33 33 32 33 33 34 35 35 36 38 40 44 47 48 50 53 56 53 52 55 57 55 52 50 47 48 50 52 51 53 56 61 65 69
39 37 35 34 34 32 33 34 33 32 32 33 32 33 34 35 38 41 42 42 44 46 49 51 53 54 55 54 50 47 49 45 44 43 45 47 48 47 47 52 57 61 65 68
39 40 38 36 35 35 35 35 35 35 34 34 35 34 34 37 39 42 45 47 49 49 49 48 46 47 48 47 45 48 46 42 42 43 43 45 41 40 45 50 54 57 62 65
38 40 42 41 39 36 37 37 37 37 36 38 37 37 37 37 40 44 47 50 51 53 52 49 46 46 46 46 48 46 43 42 42 41 41 37 35 39 43 46 50 55 61 64
37 37 39 39 41 38 38 39 38 38 37 38 39 39 39 39 41 44 48 50 52 54 53 47 46 43 40 44 43 40 41 41 40 39 34 31 32 36 38 43 48 54 61 63
40 38 38 37 39 40 40 41 41 40 40 39 39 39 40 40 41 45 48 51 53 53 54 47 43 42 41 43 41 39 42 40 38 35 28 27 30 33 35 41 49 54 59 58
42 41 39 38 40 41 42 44 44 43 43 44 40 39 40 40 41 44 47 50 51 51 48 39 33 36 39 40 38 40 40 40 36 29 23 24 27 31 35 41 48 50 53 52
44 43 42 41 42 43 43 45 46 47 46 45 42 39 39 40 41 43 46 48 47 44 35 30 30 33 35 37 36 39 40 38 33 25 20 22 25 30 34 39 45 46 48 47
46 45 43 45 44 43 44 45 46 47 47 45 44 41 40 39 40 43 45 47 44 37 34 34 34 34 35 34 36 38 41 36 31 21 17 20 24 28 30 36 42 41 41 41
45 47 44 45 44 45 46 46 45 47 46 45 44 42 40 39 40 42 44 47 44 38 36 35 35 37 36 33 36 38 40 33 28 19 16 19 22 23 27 32 37 37 37 36
45 45 46 45 43 44 47 47 45 46 45 46 43 41 40 40 40 42 43 46 44 38 36 36 37 38 37 33 34 37 39 31 25 17 14 18 19 19 22 28 32 31 32 33
45 44 47 46 44 43 47 48 44 45 46 44 43 42 42 40 40 43 44 46 46 39 36 36 37 37 36 32 32 36 37 28 22 14 13 15 15 15 17 23 27 28 28 28
47 46 45 44 45 45 50 49 46 46 46 44 43 44 43 41 41 43 45 47 46 41 36 36 36 36 35 32 31 35 35 27 21 12 11 11 12 12 13 18 22 23 24 26

GFSNGP_500_spd_111.txt.gz
Wind_Speed
17 17 19 19 19 20 18 19 18 19 18 22 22 22 23 24 25 25 25 24 24 24 23 23 24 21 18 16 15 12 10 11 12 14 13 16 15 13 17 20 17 18 19 24
13 19 19 19 20 20 21 23 23 23 23 23 23 23 23 24 25 25 25 25 25 25 24 25 24 23 23 23 21 19 18 17 17 17 18 19 20 22 24 27 28 28 29 28
11 19 20 21 22 23 22 22 22 23 23 25 26 26 26 26 26 26 25 25 25 25 25 25 26 26 26 26 25 25 25 24 24 24 24 25 26 27 29 30 31 32 33 35
17 18 20 24 28 28 27 27 28 25 23 22 23 23 24 25 27 26 27 27 27 26 26 26 26 26 27 27 28 29 30 29 30 30 30 31 32 34 35 36 37 39 40 41
21 20 15 18 27 28 30 32 33 30 29 27 26 25 27 25 27 28 28 28 28 29 29 30 31 31 31 32 33 34 35 36 36 37 38 39 40 41 42 43 44 45 46 48
26 24 24 25 26 23 22 22 26 31 33 31 32 30 35 34 34 33 33 32 32 31 31 32 33 34 35 37 37 38 40 40 41 41 42 43 44 44 46 47 48 50 50 50
24 25 21 23 24 26 25 25 24 24 22 26 31 35 35 37 39 40 40 41 42 41 40 38 38 39 39 40 40 41 42 43 45 47 49 48 49 51 51 52 53 56 58 60
25 27 26 26 23 24 25 24 25 25 25 25 24 27 33 35 37 38 39 40 41 41 41 43 44 45 45 45 46 47 47 46 47 51 49 49 50 52 55 56 57 59 61 62
26 27 28 28 28 27 25 25 26 26 25 25 26 27 27 28 29 31 33 36 38 40 41 41 42 44 47 48 49 50 51 51 51 51 52 52 53 54 56 57 60 62 64 66
28 29 28 31 28 29 29 28 28 28 27 27 28 27 28 28 28 29 30 30 32 34 37 41 43 45 47 49 51 52 53 53 54 55 55 55 56 57 59 62 65 68 69 68
29 32 30 31 31 31 32 32 30 31 31 31 32 32 31 30 29 29 31 31 30 30 34 37 42 46 49 51 51 51 52 52 53 54 54 57 59 60 62 63 63 63 61 59
32 33 32 32 30 32 33 34 34 33 33 33 33 33 33 33 33 33 32 33 35 35 35 37 40 44 48 53 55 54 54 54 55 57 57 60 61 61 62 57 55 53 55 57
35 38 37 35 34 33 34 35 35 36 34 32 33 33 33 32 33 33 34 34 36 39 39 40 43 46 49 51 53 54 55 56 57 56 54 51 50 49 48 50 51 52 54 55
39 38 37 36 37 35 36 37 37 37 36 34 33 33 34 35 34 35 35 36 38 40 42 43 45 48 49 50 51 51 50 48 45 44 48 50 47 45 46 46 45 45 47 52
35 35 34 34 37 37 36 37 38 38 39 38 36 34 34 35 36 36 37 38 39 41 43 47 49 51 51 49 50 48 48 46 47 47 45 45 45 46 45 44 42 41 45 49
35 35 35 36 37 38 38 38 39 38 38 39 39 37 36 37 37 38 39 41 42 44 46 48 51 52 53 48 45 45 42 44 47 45 42 44 46 43 41 38 39 43 46 53
36 35 37 37 38 39 40 40 39 39 38 38 39 38 37 38 39 40 41 42 44 45 47 49 51 51 49 42 38 38 41 44 43 42 44 45 43 40 35 34 38 40 47 55
36 36 37 40 39 40 41 42 41 40 39 38 39 39 40 41 43 42 41 42 44 45 47 49 49 45 40 36 32 35 38 39 40 43 44 42 39 33 31 34 36 41 49 55
39 39 38 39 40 41 41 42 42 42 41 41 41 41 41 41 41 40 40 41 42 45 46 48 47 40 38 37 35 35 38 38 40 41 42 39 33 28 30 32 36 43 50 52
42 41 41 40 40 42 42 43 44 44 44 43 42 41 41 42 40 39 40 40 41 44 45 46 44 40 38 37 37 37 37 39 41 41 39 36 28 26 29 32 36 42 46 51
43 41 42 42 43 43 45 47 47 46 45 44 43 41 41 42 41 39 39 40 40 43 43 45 44 41 39 38 38 38 38 40 41 42 38 32 24 25 28 30 34 38 43 47
44 41 42 43 46 44 44 46 49 47 46 45 45 42 41 42 42 40 38 39 40 42 42 43 44 41 40 38 38 37 38 41 42 42 36 28 20 24 26 27 32 35 38 42
45 43 43 44 47 47 45 46 48 49 45 45 47 43 40 40 42 39 38 39 40 41 41 42 44 41 39 38 37 37 36 38 41 41 34 24 18 22 22 25 29 32 33 34
49 46 44 45 45 47 50 49 47 44 45 47 46 42 39 39 41 39 38 39 40 42 41 41 44 41 38 38 36 35 34 37 40 40 33 20 17 19 19 21 26 29 30 31
52 49 46 46 47 50 52 51 49 46 47 48 46 41 37 39 39 39 39 40 41 42 42 41 43 41 37 36 35 33 32 35 38 38 32 18 16 17 16 18 22 25 27 28
54 51 49 48 47 49 51 51 50 45 45 47 44 39 36 38 39 39 40 40 42 43 43 42 42 41 37 35 33 31 31 33 36 35 30 17 15 15 14 15 18 21 22 24
54 52 48 46 46 49 51 50 50 48 46 47 42 39 37 38 39 39 40 42 43 44 43 43 43 40 37 34 31 29 30 32 34 33 29 17 15 14 13 12 14 17 17 19

GFSNGP_500_spd_114.txt.gz
Wind_Speed
19 22 20 18 19 20 20 19 21 16 22 24 21 24 25 24 24 26 26 26 25 24 24 23 23 23 24 24 23 21 19 18 17 16 17 19 21 22 23 22 20 24 25 23
13 25 27 25 27 26 26 26 25 25 23 27 26 27 26 27 27 27 28 28 28 27 26 26 26 26 26 25 25 25 25 25 24 24 23 23 23 25 26 28 29 29 30 31
14 17 20 19 21 24 26 28 32 30 29 30 30 28 29 30 30 30 31 30 30 30 31 31 32 32 31 31 30 30 30 30 30 30 30 31 32 33 34 34 34 36 37 38
17 17 19 19 22 23 24 23 25 24 27 30 29 30 33 30 31 32 32 34 35 35 35 35 35 34 34 34 35 36 35 35 35 36 37 37 37 38 40 41 42 43 44 45
21 18 17 19 21 23 24 26 27 29 29 28 25 27 32 33 35 35 35 34 35 35 35 35 36 38 38 39 39 39 39 41 42 42 42 41 42 43 43 43 45 47 48 49
25 22 23 24 24 23 24 22 23 24 25 25 27 29 27 25 25 29 31 33 33 34 33 32 33 34 35 37 38 40 42 44 45 45 46 48 50 51 53 54 55 55 55 56
24 26 20 24 26 27 25 25 22 22 22 23 23 23 23 24 25 25 26 27 28 27 28 30 30 30 31 33 35 37 39 42 45 47 49 50 51 52 53 54 55 55 56 59
25 29 27 25 26 28 29 30 29 27 25 24 24 24 24 23 23 24 25 27 29 30 31 31 31 33 33 35 37 38 40 43 46 48 50 52 53 53 54 54 54 55 56 58
29 29 33 28 29 27 29 31 31 31 30 28 28 28 28 27 28 27 28 30 32 33 33 34 36 38 38 38 39 42 44 47 49 51 52 51 52 53 51 53 55 56 59 60
33 30 37 34 30 30 30 28 30 32 33 34 33 34 32 32 32 33 33 33 34 34 36 38 39 41 43 45 45 45 48 50 52 54 53 51 52 54 55 56 53 54 55 55
28 30 35 34 35 34 32 31 31 33 34 35 36 36 36 36 35 35 35 36 36 36 37 38 41 42 44 47 47 49 52 55 53 52 50 46 47 48 48 46 46 47 47 45
31 35 36 36 36 34 35 34 33 33 35 36 37 36 36 36 36 36 36 36 37 38 39 40 42 43 45 48 49 50 53 54 52 47 42 40 43 47 46 43 42 43 43 42
36 38 37 35 34 33 33 33 33 34 35 36 39 38 39 38 37 37 37 37 37 38 40 41 43 43 45 48 49 50 49 47 43 40 38 42 43 40 39 42 43 43 42 40
39 40 37 37 35 36 35 35 36 37 37 37 38 39 39 39 39 37 38 38 38 40 41 42 44 45 46 49 49 47 43 41 38 37 39 39 40 40 41 40 39 39 37 37
41 42 41 40 39 39 38 37 36 38 38 40 40 39 38 38 39 37 39 39 39 41 41 42 43 45 46 48 47 44 42 39 37 37 38 39 42 42 42 41 37 31 32 36
40 42 44 43 43 41 40 39 39 40 40 40 41 40 37 37 39 39 40 40 40 41 41 41 42 44 45 47 45 43 42 40 39 40 39 40 43 43 42 38 32 30 32 36
49 47 46 46 44 41 41 42 43 42 42 42 42 42 41 41 40 38 38 39 39 40 40 41 41 42 44 45 45 42 42 41 40 42 40 40 42 44 42 34 29 30 34 39
54 53 51 46 45 45 44 44 45 45 44 43 44 44 45 45 42 39 38 39 40 40 40 40 41 42 43 44 44 42 42 41 41 40 41 42 42 43 39 29 28 30 34 39
55 53 53 51 47 46 47 47 48 46 46 45 45 46 46 47 44 40 39 39 39 40 41 40 40 42 42 43 45 42 42 42 40 40 39 41 42 41 35 26 27 28 35 38
55 54 53 51 49 48 48 47 46 46 47 46 46 46 47 47 45 40 39 40 39 40 41 40 40 42 42 42 44 43 42 42 40 39 38 38 40 39 30 24 25 27 34 36
46 47 49 48 46 47 46 46 46 47 46 46 47 47 45 45 43 41 40 40 40 39 41 41 40 42 41 41 43 43 42 41 39 38 37 37 38 36 25 23 23 26 32 34
50 51 47 43 43 44 44 45 47 49 48 45 44 44 44 46 45 44 41 40 39 39 40 42 40 41 40 39 41 42 41 41 37 36 35 36 37 33 23 21 22 24 29 31
52 47 43 37 39 43 47 48 48 49 49 48 45 41 42 44 46 45 40 40 39 39 40 41 41 42 40 39 39 41 41 39 36 34 33 34 34 30 21 19 19 22 25 28
59 52 48 46 46 48 51 51 51 49 48 48 45 42 41 42 44 44 40 38 38 38 39 41 41 42 41 40 38 40 40 39 34 32 31 32 32 27 19 17 16 19 22 24
65 66 66 62 59 58 53 53 53 50 47 42 41 43 41 42 40 39 38 36 39 37 38 40 41 43 43 40 38 39 40 38 32 31 29 30 30 25 17 15 14 16 19 21
66 66 66 65 65 58 57 57 53 51 48 40 41 44 42 40 41 37 35 35 39 37 38 41 41 44 44 41 38 39 39 37 31 29 27 28 29 23 16 14 11 12 15 16
57 57 55 56 57 56 55 56 54 49 46 42 40 43 40 39 38 35 34 37 40 38 38 41 42 45 45 41 38 39 39 35 29 27 25 25 27 22 16 13 11 9 11 12

GFSNGP_500_spd_117.txt.gz
Wind_Speed
14 19 20 16 14 20 20 20 24 18 27 31 28 27 27 29 28 26 31 34 32 32 32 31 32 33 32 31 30 29 28 28 29 29 29 28 27 27 28 29 29 29 29 31
14 18 19 16 19 19 18 16 19 13 10 27 28 29 31 32 29 27 30 32 33 33 34 33 32 33 34 34 34 34 34 33 31 31 33 33 34 35 36 36 35 36 37 38
12 14 14 15 16 18 19 19 19 19 16 16 15 14 16 22 27 30 28 30 31 33 33 33 34 34 34 34 34 35 36 36 37 38 38 40 41 41 41 41 43 44 45 45
13 12 15 17 20 19 19 21 21 21 23 22 21 19 18 18 16 18 18 18 21 22 23 25 25 25 25 26 27 28 29 31 33 35 37 40 42 44 45 46 46 48 49 50
18 14 14 18 20 20 19 23 22 21 22 23 23 24 24 22 22 22 23 21 20 21 22 23 25 25 25 26 27 29 30 32 33 35 37 40 43 45 48 49 50 51 51 52
21 22 22 20 21 22 21 21 24 26 26 25 25 24 25 25 24 25 26 25 24 24 24 25 27 28 29 32 35 36 36 38 39 39 41 44 47 49 52 53 53 53 54 54
23 23 19 22 25 26 25 25 25 25 26 27 27 26 25 24 27 27 26 27 27 28 28 28 29 30 32 34 37 39 41 44 46 47 47 50 54 57 57 54 52 53 53 54
26 26 25 26 26 26 25 24 27 27 28 27 28 29 29 28 27 30 29 29 29 30 30 31 33 33 35 37 39 41 43 45 48 48 50 54 56 58 59 54 48 47 49 52
27 22 31 33 29 29 27 27 28 29 30 28 29 30 32 30 29 30 32 32 31 32 33 34 35 36 38 39 41 42 44 46 47 49 50 47 44 42 41 38 40 46 46 46
24 21 28 32 32 31 34 32 31 32 32 32 31 32 32 32 33 31 33 34 34 35 35 35 36 38 39 42 43 43 43 45 47 48 46 42 38 36 37 40 42 41 39 39
32 29 31 29 33 35 36 37 35 33 33 35 34 35 36 35 34 35 35 35 35 35 36 37 38 39 41 43 45 45 45 45 47 46 44 42 40 39 38 39 39 40 40 39
34 37 38 33 33 34 35 37 38 36 36 36 36 36 37 37 37 38 38 37 37 36 37 37 39 42 42 43 45 47 46 46 47 46 44 43 42 41 40 38 42 44 43 41
37 40 43 42 41 39 37 37 38 39 39 38 39 39 39 38 40 40 40 40 39 39 40 40 40 41 42 44 45 46 46 46 47 46 45 43 43 42 40 43 44 45 45 39
49 48 45 44 46 44 44 43 42 41 41 38 39 40 41 42 42 41 42 42 42 42 43 41 41 41 42 43 44 45 46 46 47 48 46 44 43 44 42 42 44 45 43 35
54 56 56 51 47 47 49 48 49 46 44 41 40 41 41 43 43 42 42 44 46 44 42 40 40 40 42 43 44 45 45 45 47 48 48 46 45 44 42 41 43 41 34 31
61 67 62 57 53 54 55 54 52 52 48 45 45 44 44 45 47 45 44 45 46 44 40 40 39 40 40 42 43 45 45 45 46 47 48 47 45 45 42 40 42 37 30 28
72 70 68 66 61 61 58 56 54 54 53 51 49 49 49 50 49 47 45 46 46 43 39 40 39 39 40 41 43 44 45 46 46 46 48 48 46 45 41 40 40 32 27 27
73 70 67 69 71 68 59 56 56 56 55 55 52 54 53 52 54 49 48 49 46 41 37 39 40 38 39 40 42 44 45 45 45 46 47 48 45 44 40 38 38 28 26 27
77 77 77 71 62 59 58 56 55 57 57 55 53 53 53 53 51 50 49 47 42 40 35 38 40 38 38 39 40 43 45 45 45 45 46 47 44 42 38 37 35 26 24 26
68 66 59 53 50 52 51 50 50 52 53 52 52 49 48 46 46 47 46 43 44 42 37 39 40 38 37 37 39 41 43 44 44 44 45 45 43 41 37 35 31 23 22 26
52 52 48 46 47 50 51 52 44 47 53 53 45 42 44 47 47 46 45 45 45 41 38 38 39 37 36 36 38 40 42 43 43 42 43 43 41 39 35 34 28 21 19 24
51 52 48 48 48 48 49 48 51 51 53 43 40 43 47 49 48 44 43 43 43 43 40 39 39 36 35 35 37 39 41 42 42 41 41 41 39 37 32 31 24 19 17 22
58 56 61 63 59 56 53 51 51 51 51 42 40 43 49 49 44 41 42 43 43 43 38 38 38 36 34 35 37 38 39 42 42 40 40 39 36 34 29 29 20 17 15 19
52 55 62 66 70 70 68 62 56 57 55 53 53 51 52 51 44 40 43 43 43 43 38 38 37 35 34 35 36 37 39 41 42 39 39 37 34 32 27 26 18 14 12 15
52 52 53 51 53 56 59 61 63 59 56 54 57 57 56 53 46 43 43 43 40 39 36 38 37 35 35 35 36 37 38 41 41 38 38 35 31 29 24 24 16 12 10 11
48 47 49 52 53 54 56 55 54 59 63 65 63 57 54 53 44 41 41 38 34 33 32 36 35 35 36 35 36 38 38 41 41 37 37 33 29 26 22 21 14 11 9 8
40 43 46 49 50 51 52 50 46 44 45 46 47 49 51 47 44 38 36 34 33 32 33 36 34 34 36 36 37 38 39 42 41 36 35 30 26 23 20 19 14 12 11 8